weatherino

Wetterdaten aus der Harmsstraße 54 in 24114 Kiel (4. OG, außen), die per BME280 und einem ESP-32 erhoben werden.

Unter https://wetter.janbpunkt.de/weather.xml steht eine entsprechende XML bereit, die das jüngste Messergebnis enthält.

Da der weatherino ab und zu ausfällt/gewartet wird, können Messpunkte fehlen.

Keine Garantie auf Korrektheit der Werte. Keine Haftung für direkte oder indirekte Schäden, die aus der Verwendung der Daten resultieren. Die Daten der Website werden per SSL verschlüsselt übertragen, es werden keine Cookies gesetzt und keine IP-Adressen geloggt. Weiterhin findet keine Verarbeitung von personenbezogenen Daten statt.

Mehr zu dem Projekt findet man hier.

Impressum
Letzte Messung
Zeitpunkt Temperatur Luftfeuchte Luftdruck
2024-03-01 05:22:02 6.52 ℃ 100 % 1003.94 hPa

Zeitpunkt Temperatur Luftfeuchte Luftdruck
2024-03-01 05:22:02 6.52 ℃ 100 % 1003.94 hPa
2024-03-01 05:12:02 6.56 ℃ 100 % 1003.9 hPa
2024-03-01 05:02:02 6.62 ℃ 100 % 1003.95 hPa
2024-03-01 04:52:02 6.89 ℃ 100 % 1003.96 hPa
2024-03-01 04:42:02 7.04 ℃ 100 % 1003.99 hPa
2024-03-01 04:32:02 7.03 ℃ 100 % 1004.01 hPa
2024-03-01 04:22:02 6.98 ℃ 100 % 1004.04 hPa
2024-03-01 04:12:02 6.97 ℃ 100 % 1004.05 hPa
2024-03-01 04:02:02 7.05 ℃ 100 % 1004.08 hPa
2024-03-01 03:52:02 7.08 ℃ 100 % 1004.17 hPa
2024-03-01 03:42:02 7.37 ℃ 100 % 1004.26 hPa
2024-03-01 03:32:02 7.41 ℃ 100 % 1004.41 hPa
2024-03-01 03:22:02 7.43 ℃ 100 % 1004.54 hPa
2024-03-01 03:12:02 7.38 ℃ 100 % 1004.72 hPa
2024-03-01 03:02:02 7.79 ℃ 100 % 1004.86 hPa
2024-03-01 02:52:02 7.66 ℃ 100 % 1004.97 hPa
2024-03-01 02:42:02 7.51 ℃ 100 % 1005.05 hPa
2024-03-01 02:32:02 7.84 ℃ 100 % 1005.2 hPa
2024-03-01 02:22:02 8.02 ℃ 100 % 1005.29 hPa
2024-03-01 02:12:02 8.52 ℃ 100 % 1005.37 hPa
2024-03-01 02:02:02 8.82 ℃ 100 % 1005.43 hPa
2024-03-01 01:52:02 8.56 ℃ 100 % 1005.54 hPa
2024-03-01 01:42:02 8.63 ℃ 100 % 1005.62 hPa
2024-03-01 01:32:02 8.61 ℃ 100 % 1005.69 hPa
2024-03-01 01:22:02 8.75 ℃ 100 % 1005.73 hPa
2024-03-01 01:12:02 8.92 ℃ 100 % 1005.78 hPa
2024-03-01 01:02:02 9.08 ℃ 100 % 1005.81 hPa
2024-03-01 00:52:02 9.21 ℃ 100 % 1005.87 hPa
2024-03-01 00:42:02 9.21 ℃ 100 % 1005.96 hPa
2024-03-01 00:32:02 9.31 ℃ 100 % 1006.02 hPa
2024-03-01 00:22:02 9.23 ℃ 100 % 1006.09 hPa
2024-03-01 00:12:02 9.33 ℃ 100 % 1006.14 hPa
2024-03-01 00:02:02 9.47 ℃ 100 % 1006.18 hPa
2024-02-29 23:52:02 9.71 ℃ 100 % 1006.26 hPa
2024-02-29 23:42:02 9.66 ℃ 100 % 1006.37 hPa
2024-02-29 23:32:02 9.74 ℃ 100 % 1006.42 hPa
2024-02-29 23:22:02 9.74 ℃ 100 % 1006.47 hPa
2024-02-29 23:12:03 10.01 ℃ 100 % 1006.51 hPa
2024-02-29 23:02:02 10.19 ℃ 100 % 1006.54 hPa
2024-02-29 22:52:02 10.16 ℃ 100 % 1006.61 hPa
2024-02-29 22:42:03 10.13 ℃ 100 % 1006.74 hPa
2024-02-29 22:32:03 10.26 ℃ 100 % 1006.85 hPa
2024-02-29 22:22:03 10.33 ℃ 100 % 1006.95 hPa
2024-02-29 22:12:03 10.23 ℃ 100 % 1007.04 hPa
2024-02-29 22:02:03 10.37 ℃ 100 % 1007.09 hPa
2024-02-29 21:52:03 10.47 ℃ 100 % 1007.16 hPa
2024-02-29 21:42:03 10.3 ℃ 100 % 1007.2 hPa
2024-02-29 21:32:03 10.35 ℃ 100 % 1007.29 hPa
2024-02-29 21:22:03 10.34 ℃ 100 % 1007.34 hPa
2024-02-29 21:12:03 10.51 ℃ 100 % 1007.39 hPa
2024-02-29 21:02:03 10.66 ℃ 100 % 1007.45 hPa
2024-02-29 20:52:03 10.96 ℃ 100 % 1007.48 hPa
2024-02-29 20:42:03 11.04 ℃ 100 % 1007.52 hPa
2024-02-29 20:32:03 11.27 ℃ 100 % 1007.62 hPa
2024-02-29 20:22:03 11.49 ℃ 100 % 1007.72 hPa
2024-02-29 20:12:03 11.52 ℃ 100 % 1007.78 hPa
2024-02-29 20:02:03 11.67 ℃ 100 % 1007.82 hPa
2024-02-29 19:52:03 11.66 ℃ 100 % 1007.91 hPa
2024-02-29 19:42:03 11.52 ℃ 100 % 1007.94 hPa
2024-02-29 19:32:03 11.69 ℃ 100 % 1007.96 hPa
2024-02-29 19:22:03 11.79 ℃ 100 % 1008.05 hPa
2024-02-29 19:12:03 11.96 ℃ 100 % 1008.16 hPa
2024-02-29 19:02:03 12.27 ℃ 100 % 1008.22 hPa
2024-02-29 18:52:03 12.34 ℃ 100 % 1008.19 hPa
2024-02-29 18:42:03 12.37 ℃ 100 % 1008.13 hPa
2024-02-29 18:32:03 12.76 ℃ 100 % 1008.08 hPa
2024-02-29 18:22:03 12.82 ℃ 100 % 1008.11 hPa
2024-02-29 18:12:03 13.19 ℃ 100 % 1008.12 hPa
2024-02-29 18:02:03 13.33 ℃ 100 % 1008.12 hPa
2024-02-29 17:52:03 13.5 ℃ 100 % 1008.14 hPa
2024-02-29 17:42:03 13.88 ℃ 100 % 1008.19 hPa
2024-02-29 17:32:03 14.13 ℃ 100 % 1008.25 hPa
2024-02-29 17:22:03 14.15 ℃ 100 % 1008.31 hPa
2024-02-29 17:12:03 14.3 ℃ 100 % 1008.33 hPa
2024-02-29 17:02:03 14.09 ℃ 100 % 1008.38 hPa
2024-02-29 16:52:03 14.28 ℃ 100 % 1008.41 hPa
2024-02-29 16:42:03 14.53 ℃ 100 % 1008.41 hPa
2024-02-29 16:32:03 14.87 ℃ 100 % 1008.49 hPa
2024-02-29 16:22:03 14.6 ℃ 100 % 1008.58 hPa
2024-02-29 16:12:03 14.62 ℃ 100 % 1008.67 hPa
2024-02-29 16:02:03 14.6 ℃ 100 % 1008.78 hPa
2024-02-29 15:52:03 14.78 ℃ 100 % 1008.92 hPa
2024-02-29 15:42:03 14.96 ℃ 100 % 1009.02 hPa
2024-02-29 15:32:03 14.76 ℃ 100 % 1009.13 hPa
2024-02-29 15:22:03 14.89 ℃ 100 % 1009.22 hPa
2024-02-29 15:12:03 14.82 ℃ 100 % 1009.35 hPa
2024-02-29 15:02:03 14.9 ℃ 100 % 1009.49 hPa
2024-02-29 14:52:03 14.62 ℃ 100 % 1009.58 hPa
2024-02-29 14:42:03 14.62 ℃ 100 % 1009.65 hPa
2024-02-29 14:32:03 14.34 ℃ 100 % 1009.77 hPa
2024-02-29 14:22:03 14.09 ℃ 100 % 1009.86 hPa
2024-02-29 14:12:03 13.92 ℃ 100 % 1010 hPa
2024-02-29 14:02:03 13.91 ℃ 100 % 1010.1 hPa
2024-02-29 13:52:03 13.77 ℃ 100 % 1010.22 hPa
2024-02-29 13:42:03 13.7 ℃ 100 % 1010.36 hPa
2024-02-29 13:32:03 13.36 ℃ 100 % 1010.49 hPa
2024-02-29 13:22:03 13.16 ℃ 100 % 1010.52 hPa
2024-02-29 13:12:03 13.29 ℃ 100 % 1010.58 hPa
2024-02-29 13:02:03 13.06 ℃ 100 % 1010.65 hPa
2024-02-29 12:52:03 12.86 ℃ 100 % 1010.73 hPa
2024-02-29 12:42:03 12.72 ℃ 100 % 1010.78 hPa
2024-02-29 12:32:03 12.81 ℃ 100 % 1010.89 hPa
2024-02-29 12:22:03 12.68 ℃ 100 % 1011.03 hPa
2024-02-29 12:12:03 12.47 ℃ 100 % 1011.16 hPa
2024-02-29 12:02:03 12.19 ℃ 100 % 1011.28 hPa
2024-02-29 11:52:03 11.82 ℃ 100 % 1011.34 hPa
2024-02-29 11:42:03 11.81 ℃ 100 % 1011.42 hPa
2024-02-29 11:32:04 11.59 ℃ 100 % 1011.48 hPa
2024-02-29 11:22:04 11.39 ℃ 100 % 1011.52 hPa
2024-02-29 11:12:04 11.16 ℃ 100 % 1011.57 hPa
2024-02-29 11:02:04 10.77 ℃ 100 % 1011.61 hPa
2024-02-29 10:52:04 10.56 ℃ 100 % 1011.75 hPa
2024-02-29 10:42:04 10.12 ℃ 100 % 1011.83 hPa
2024-02-29 10:32:04 9.87 ℃ 100 % 1011.92 hPa
2024-02-29 10:22:04 9.44 ℃ 100 % 1011.97 hPa
2024-02-29 10:12:04 8.95 ℃ 100 % 1012.01 hPa
2024-02-29 10:02:04 8.74 ℃ 100 % 1012.08 hPa
2024-02-29 09:52:04 8.4 ℃ 100 % 1012.15 hPa
2024-02-29 09:42:04 8.05 ℃ 100 % 1012.24 hPa
2024-02-29 09:32:04 7.94 ℃ 100 % 1012.36 hPa
2024-02-29 09:22:04 7.88 ℃ 100 % 1012.44 hPa
2024-02-29 09:12:04 7.89 ℃ 100 % 1012.53 hPa
2024-02-29 09:02:04 7.77 ℃ 100 % 1012.62 hPa
2024-02-29 08:52:04 7.5 ℃ 100 % 1012.71 hPa
2024-02-29 08:42:04 7.22 ℃ 100 % 1012.82 hPa
2024-02-29 08:32:04 7.07 ℃ 100 % 1012.87 hPa
2024-02-29 08:22:04 7.1 ℃ 100 % 1012.91 hPa
2024-02-29 08:12:04 6.96 ℃ 100 % 1012.94 hPa
2024-02-29 08:02:04 6.71 ℃ 100 % 1013.04 hPa
2024-02-29 07:52:04 6.53 ℃ 100 % 1013.12 hPa
2024-02-29 07:42:04 6.63 ℃ 100 % 1013.16 hPa
2024-02-29 07:32:04 6.48 ℃ 100 % 1013.24 hPa
2024-02-29 07:22:04 6.56 ℃ 100 % 1013.25 hPa
2024-02-29 07:12:04 6.37 ℃ 100 % 1013.23 hPa
2024-02-29 07:02:04 6.24 ℃ 100 % 1013.27 hPa
2024-02-29 06:52:04 6.34 ℃ 100 % 1013.29 hPa
2024-02-29 06:42:04 6.37 ℃ 100 % 1013.32 hPa
2024-02-29 06:32:04 6.48 ℃ 100 % 1013.42 hPa
2024-02-29 06:22:04 6.53 ℃ 100 % 1013.55 hPa
2024-02-29 06:12:04 6.44 ℃ 100 % 1013.64 hPa
2024-02-29 06:02:04 6.55 ℃ 100 % 1013.76 hPa
2024-02-29 05:52:04 6.78 ℃ 100 % 1013.88 hPa
2024-02-29 05:42:04 7 ℃ 100 % 1013.98 hPa
2024-02-29 05:32:04 7.09 ℃ 100 % 1014.1 hPa
2024-02-29 05:22:04 7.15 ℃ 100 % 1014.24 hPa
2024-02-29 05:12:04 7.21 ℃ 100 % 1014.35 hPa
2024-02-29 05:02:04 7.11 ℃ 100 % 1014.49 hPa
2024-02-29 04:52:04 7.28 ℃ 100 % 1014.66 hPa
2024-02-29 04:42:04 7.55 ℃ 100 % 1014.75 hPa
2024-02-29 04:32:04 7.66 ℃ 100 % 1014.84 hPa
2024-02-29 04:22:04 7.65 ℃ 100 % 1014.96 hPa
2024-02-29 04:12:04 7.65 ℃ 100 % 1015.1 hPa
2024-02-29 04:02:04 7.86 ℃ 100 % 1015.32 hPa
2024-02-29 03:52:04 7.99 ℃ 100 % 1015.48 hPa
2024-02-29 03:42:04 7.93 ℃ 100 % 1015.74 hPa
2024-02-29 03:32:04 7.95 ℃ 100 % 1016 hPa
2024-02-29 03:22:04 7.87 ℃ 100 % 1016.17 hPa
2024-02-29 03:12:04 7.78 ℃ 100 % 1016.3 hPa
2024-02-29 03:02:04 7.78 ℃ 100 % 1016.4 hPa
2024-02-29 02:52:04 7.77 ℃ 100 % 1016.56 hPa
2024-02-29 02:42:04 7.56 ℃ 100 % 1016.73 hPa
2024-02-29 02:32:04 7.39 ℃ 100 % 1016.89 hPa
2024-02-29 02:22:04 7.48 ℃ 100 % 1016.98 hPa
2024-02-29 02:12:04 7.75 ℃ 100 % 1017.05 hPa
2024-02-29 02:02:04 7.93 ℃ 100 % 1017.16 hPa
2024-02-29 01:52:04 8.04 ℃ 100 % 1017.24 hPa
2024-02-29 01:42:04 8.1 ℃ 100 % 1017.32 hPa
2024-02-29 01:32:04 7.82 ℃ 100 % 1017.45 hPa
2024-02-29 01:22:04 7.91 ℃ 100 % 1017.55 hPa
2024-02-29 01:12:07 8.1 ℃ 100 % 1017.71 hPa
2024-02-29 01:02:04 8.11 ℃ 100 % 1017.84 hPa
2024-02-29 00:52:04 8.1 ℃ 100 % 1017.96 hPa
2024-02-29 00:42:04 8.08 ℃ 100 % 1018.04 hPa
2024-02-29 00:32:05 8.2 ℃ 100 % 1018.15 hPa
2024-02-29 00:22:05 8.47 ℃ 100 % 1018.25 hPa
2024-02-29 00:12:05 8.34 ℃ 100 % 1018.44 hPa
2024-02-29 00:02:05 8.48 ℃ 100 % 1018.59 hPa
2024-02-28 23:52:05 8.58 ℃ 100 % 1018.64 hPa
2024-02-28 23:42:05 8.61 ℃ 100 % 1018.64 hPa
2024-02-28 23:32:05 8.48 ℃ 100 % 1018.71 hPa
2024-02-28 23:22:05 8.53 ℃ 100 % 1018.74 hPa
2024-02-28 23:12:05 8.63 ℃ 100 % 1018.9 hPa
2024-02-28 23:02:05 8.5 ℃ 100 % 1019.01 hPa
2024-02-28 22:52:05 8.6 ℃ 100 % 1019.04 hPa
2024-02-28 22:42:05 9.05 ℃ 100 % 1019.14 hPa
2024-02-28 22:32:05 9.03 ℃ 100 % 1019.26 hPa
2024-02-28 22:22:05 9.42 ℃ 100 % 1019.25 hPa
2024-02-28 22:12:05 9.58 ℃ 100 % 1019.33 hPa
2024-02-28 22:02:05 9.56 ℃ 100 % 1019.45 hPa
2024-02-28 21:52:05 9.22 ℃ 100 % 1019.55 hPa
2024-02-28 21:42:05 8.81 ℃ 100 % 1019.62 hPa
2024-02-28 21:32:05 8.57 ℃ 100 % 1019.64 hPa
2024-02-28 21:22:05 8.79 ℃ 100 % 1019.68 hPa
2024-02-28 21:12:05 9.04 ℃ 100 % 1019.71 hPa
2024-02-28 21:02:05 8.71 ℃ 100 % 1019.69 hPa
2024-02-28 20:52:05 8.7 ℃ 100 % 1019.7 hPa
2024-02-28 20:42:05 9.18 ℃ 100 % 1019.68 hPa
2024-02-28 20:32:05 9.53 ℃ 100 % 1019.71 hPa
2024-02-28 20:22:05 10.09 ℃ 100 % 1019.69 hPa
2024-02-28 20:12:05 10.04 ℃ 100 % 1019.71 hPa
2024-02-28 20:02:05 9.88 ℃ 100 % 1019.75 hPa
2024-02-28 19:52:05 9.85 ℃ 100 % 1019.79 hPa
2024-02-28 19:42:05 9.95 ℃ 100 % 1019.87 hPa
2024-02-28 19:32:05 10.09 ℃ 100 % 1019.89 hPa
2024-02-28 19:22:05 10.25 ℃ 100 % 1019.93 hPa
2024-02-28 19:12:05 10.29 ℃ 100 % 1019.97 hPa
2024-02-28 19:02:05 10.31 ℃ 100 % 1020.03 hPa
2024-02-28 18:52:05 10.14 ℃ 100 % 1020.07 hPa
2024-02-28 18:42:05 10.24 ℃ 100 % 1020.12 hPa
2024-02-28 18:32:05 10.26 ℃ 100 % 1020.19 hPa
2024-02-28 18:22:05 10.28 ℃ 100 % 1020.2 hPa
2024-02-28 18:12:05 10.08 ℃ 100 % 1020.18 hPa
2024-02-28 18:02:05 10.36 ℃ 100 % 1020.14 hPa
2024-02-28 17:52:05 10.37 ℃ 100 % 1020.12 hPa
2024-02-28 17:42:05 10.31 ℃ 100 % 1020.09 hPa
2024-02-28 17:32:05 10.34 ℃ 100 % 1020.05 hPa
2024-02-28 17:22:05 10.28 ℃ 100 % 1020.02 hPa
2024-02-28 17:12:05 10.12 ℃ 100 % 1019.99 hPa
2024-02-28 17:02:05 10.25 ℃ 100 % 1019.94 hPa
2024-02-28 16:52:05 10.17 ℃ 100 % 1019.93 hPa
2024-02-28 16:42:05 10.49 ℃ 100 % 1019.93 hPa
2024-02-28 16:32:05 10.47 ℃ 100 % 1019.94 hPa
2024-02-28 16:22:05 10.37 ℃ 100 % 1019.95 hPa
2024-02-28 16:12:05 10.36 ℃ 100 % 1020 hPa
2024-02-28 16:02:05 10.49 ℃ 100 % 1019.98 hPa
2024-02-28 15:52:05 10.66 ℃ 100 % 1019.98 hPa
2024-02-28 15:42:05 10.74 ℃ 100 % 1019.93 hPa
2024-02-28 15:32:05 10.48 ℃ 100 % 1019.91 hPa
2024-02-28 15:22:05 10.84 ℃ 100 % 1019.89 hPa
2024-02-28 15:12:05 10.68 ℃ 100 % 1019.85 hPa
2024-02-28 15:02:05 10.07 ℃ 100 % 1019.88 hPa
2024-02-28 14:52:05 9.93 ℃ 100 % 1019.94 hPa
2024-02-28 14:42:05 9.91 ℃ 100 % 1020.02 hPa
2024-02-28 14:32:06 10.31 ℃ 100 % 1020.07 hPa
2024-02-28 14:22:05 10.41 ℃ 100 % 1020.15 hPa
2024-02-28 14:12:07 10.26 ℃ 100 % 1020.24 hPa
2024-02-28 14:02:05 10.45 ℃ 100 % 1020.31 hPa
2024-02-28 13:52:06 10.23 ℃ 100 % 1020.36 hPa
2024-02-28 13:42:05 9.83 ℃ 100 % 1020.42 hPa
2024-02-28 13:32:06 9.46 ℃ 100 % 1020.46 hPa
2024-02-28 13:22:06 9.55 ℃ 100 % 1020.44 hPa
2024-02-28 13:12:06 9.86 ℃ 100 % 1020.45 hPa
2024-02-28 13:02:06 9.77 ℃ 100 % 1020.46 hPa
2024-02-28 12:52:06 9.59 ℃ 100 % 1020.51 hPa
2024-02-28 12:42:06 9.55 ℃ 100 % 1020.52 hPa
2024-02-28 12:32:06 9.76 ℃ 100 % 1020.57 hPa
2024-02-28 12:22:06 9.54 ℃ 100 % 1020.6 hPa
2024-02-28 12:12:06 9.35 ℃ 100 % 1020.63 hPa
2024-02-28 12:02:06 9.2 ℃ 100 % 1020.6 hPa
2024-02-28 11:52:06 9.02 ℃ 100 % 1020.59 hPa
2024-02-28 11:42:06 8.82 ℃ 100 % 1020.54 hPa
2024-02-28 11:32:06 8.73 ℃ 100 % 1020.44 hPa
2024-02-28 11:22:06 8.38 ℃ 100 % 1020.4 hPa
2024-02-28 11:12:06 8.32 ℃ 100 % 1020.33 hPa
2024-02-28 11:02:06 8.26 ℃ 100 % 1020.28 hPa
2024-02-28 10:52:06 8.04 ℃ 100 % 1020.24 hPa
2024-02-28 10:42:06 8.1 ℃ 100 % 1020.23 hPa
2024-02-28 10:32:06 8.26 ℃ 100 % 1020.16 hPa
2024-02-28 10:22:06 8.14 ℃ 100 % 1020.09 hPa
2024-02-28 10:12:06 8 ℃ 100 % 1020.02 hPa
2024-02-28 10:02:06 7.97 ℃ 100 % 1020.02 hPa
2024-02-28 09:52:06 8.07 ℃ 100 % 1019.99 hPa
2024-02-28 09:42:06 8 ℃ 100 % 1019.98 hPa
2024-02-28 09:32:06 7.97 ℃ 100 % 1019.96 hPa
2024-02-28 09:22:06 7.53 ℃ 100 % 1019.91 hPa
2024-02-28 09:12:06 7.33 ℃ 100 % 1019.84 hPa
2024-02-28 09:02:06 7.33 ℃ 100 % 1019.8 hPa
2024-02-28 08:52:06 7.35 ℃ 100 % 1019.77 hPa
2024-02-28 08:42:06 7.19 ℃ 100 % 1019.73 hPa
2024-02-28 08:32:06 7.07 ℃ 100 % 1019.69 hPa
2024-02-28 08:22:06 6.67 ℃ 100 % 1019.67 hPa
2024-02-28 01:42:54 7.25 ℃ 100 % 1019.35 hPa
2024-02-28 01:32:54 6.99 ℃ 100 % 1019.45 hPa
2024-02-28 01:22:54 7.05 ℃ 100 % 1019.54 hPa
2024-02-28 01:12:54 7.56 ℃ 100 % 1019.5 hPa
2024-02-28 01:02:54 7.78 ℃ 100 % 1019.54 hPa
2024-02-28 00:52:54 8.01 ℃ 100 % 1019.53 hPa
2024-02-28 00:42:54 7.98 ℃ 100 % 1019.5 hPa
2024-02-28 00:32:54 8.27 ℃ 100 % 1019.49 hPa
2024-02-28 00:22:54 8.49 ℃ 100 % 1019.5 hPa
2024-02-28 00:12:54 8.24 ℃ 100 % 1019.49 hPa
2024-02-28 00:02:54 8.6 ℃ 100 % 1019.52 hPa
2024-02-27 23:52:54 8.64 ℃ 100 % 1019.43 hPa
2024-02-27 23:42:54 8.81 ℃ 100 % 1019.34 hPa
2024-02-27 23:32:54 8.58 ℃ 100 % 1019.38 hPa
2024-02-27 23:22:54 8.41 ℃ 100 % 1019.4 hPa
2024-02-27 23:12:54 8.16 ℃ 100 % 1019.39 hPa
2024-02-27 23:02:54 8.83 ℃ 100 % 1019.38 hPa
2024-02-27 22:52:54 8.63 ℃ 100 % 1019.38 hPa
2024-02-27 22:42:54 8.36 ℃ 100 % 1019.38 hPa
2024-02-27 22:32:54 7.96 ℃ 100 % 1019.41 hPa
2024-02-27 22:22:54 7.84 ℃ 100 % 1019.38 hPa
2024-02-27 22:12:55 7.67 ℃ 100 % 1019.33 hPa
2024-02-27 22:02:55 7.68 ℃ 100 % 1019.24 hPa
2024-02-27 21:52:55 7.6 ℃ 100 % 1019.2 hPa
2024-02-27 21:42:55 7.35 ℃ 100 % 1019.14 hPa
2024-02-27 21:32:55 7.27 ℃ 100 % 1019.11 hPa
2024-02-27 21:22:55 7.16 ℃ 100 % 1019.11 hPa
2024-02-27 21:12:55 7.11 ℃ 100 % 1019.08 hPa
2024-02-27 21:02:55 6.94 ℃ 100 % 1019.09 hPa
2024-02-27 20:52:55 6.82 ℃ 100 % 1019.13 hPa
2024-02-27 20:42:55 6.35 ℃ 100 % 1019.17 hPa
2024-02-27 20:32:55 6.31 ℃ 100 % 1019.21 hPa
2024-02-27 20:22:55 6.42 ℃ 100 % 1019.22 hPa
2024-02-27 20:12:55 6.27 ℃ 100 % 1019.24 hPa
2024-02-27 20:02:55 6.46 ℃ 100 % 1019.18 hPa
2024-02-27 19:52:55 6.58 ℃ 100 % 1019.11 hPa
2024-02-27 19:42:55 6.29 ℃ 100 % 1019.05 hPa
2024-02-27 19:32:55 6.18 ℃ 100 % 1019.05 hPa
2024-02-27 19:22:55 6.17 ℃ 100 % 1019.07 hPa
2024-02-27 19:12:55 6.22 ℃ 100 % 1019.05 hPa
2024-02-27 19:02:55 6 ℃ 100 % 1019.08 hPa
2024-02-27 18:52:55 6.04 ℃ 100 % 1019.11 hPa
2024-02-27 18:42:55 6.17 ℃ 100 % 1019.14 hPa
2024-02-27 18:32:55 6.31 ℃ 100 % 1019.08 hPa
2024-02-27 18:22:55 5.87 ℃ 100 % 1019.06 hPa
2024-02-27 18:12:55 6.01 ℃ 100 % 1018.98 hPa
2024-02-27 18:02:55 6.37 ℃ 100 % 1018.94 hPa
2024-02-27 17:52:55 5.83 ℃ 100 % 1018.96 hPa
2024-02-27 17:42:55 5.94 ℃ 100 % 1018.89 hPa
2024-02-27 17:32:55 6.11 ℃ 100 % 1018.8 hPa
2024-02-27 17:22:55 6.28 ℃ 100 % 1018.7 hPa
2024-02-27 17:12:55 6.5 ℃ 100 % 1018.7 hPa
2024-02-27 17:02:55 6.56 ℃ 100 % 1018.71 hPa
2024-02-27 16:52:55 6.71 ℃ 100 % 1018.69 hPa
2024-02-27 16:42:55 6.42 ℃ 100 % 1018.69 hPa
2024-02-27 16:32:55 6.89 ℃ 100 % 1018.71 hPa
2024-02-27 16:22:55 6.81 ℃ 100 % 1018.71 hPa
2024-02-27 16:12:55 6.55 ℃ 100 % 1018.69 hPa
2024-02-27 16:02:55 6.71 ℃ 100 % 1018.63 hPa
2024-02-27 15:52:55 7.11 ℃ 100 % 1018.58 hPa
2024-02-27 15:42:55 7.12 ℃ 100 % 1018.6 hPa
2024-02-27 15:32:55 7.01 ℃ 100 % 1018.6 hPa
2024-02-27 15:22:55 7.12 ℃ 100 % 1018.6 hPa
2024-02-27 15:12:55 7.25 ℃ 100 % 1018.56 hPa
2024-02-27 15:02:55 6.98 ℃ 100 % 1018.55 hPa
2024-02-27 14:52:55 6.91 ℃ 100 % 1018.56 hPa
2024-02-27 14:42:55 6.92 ℃ 100 % 1018.58 hPa
2024-02-27 14:32:55 7.13 ℃ 100 % 1018.66 hPa
2024-02-27 14:22:55 7.68 ℃ 100 % 1018.77 hPa
2024-02-27 14:12:55 8.14 ℃ 100 % 1018.87 hPa
2024-02-27 14:02:55 7.53 ℃ 100 % 1019.03 hPa
2024-02-27 13:52:55 7.4 ℃ 100 % 1019.08 hPa
2024-02-27 13:42:55 7.38 ℃ 100 % 1019.09 hPa
2024-02-27 13:32:55 7.34 ℃ 100 % 1019.09 hPa
2024-02-27 13:22:55 7.39 ℃ 100 % 1019.1 hPa
2024-02-27 13:12:55 7.69 ℃ 100 % 1019.12 hPa
2024-02-27 13:02:55 7.13 ℃ 100 % 1019.23 hPa
2024-02-27 12:52:55 7.62 ℃ 100 % 1019.26 hPa
2024-02-27 12:42:55 7.42 ℃ 100 % 1019.32 hPa
2024-02-27 12:32:56 6.99 ℃ 100 % 1019.46 hPa
2024-02-27 12:22:55 7.13 ℃ 100 % 1019.6 hPa
2024-02-27 12:12:55 7.79 ℃ 100 % 1019.69 hPa
2024-02-27 12:02:55 7.36 ℃ 100 % 1019.75 hPa
2024-02-27 11:52:55 7.49 ℃ 100 % 1019.72 hPa
2024-02-27 11:42:56 6.96 ℃ 100 % 1019.77 hPa
2024-02-27 11:32:55 6.93 ℃ 100 % 1019.75 hPa
2024-02-27 11:22:56 6.74 ℃ 100 % 1019.73 hPa
2024-02-27 11:12:55 6.48 ℃ 100 % 1019.74 hPa
2024-02-27 11:02:56 5.95 ℃ 100 % 1019.72 hPa
2024-02-27 10:52:56 6.2 ℃ 100 % 1019.68 hPa
2024-02-27 10:42:56 6.26 ℃ 100 % 1019.64 hPa
2024-02-27 10:32:56 6.41 ℃ 100 % 1019.57 hPa
2024-02-27 10:22:56 6.2 ℃ 100 % 1019.56 hPa
2024-02-27 10:12:56 6.05 ℃ 100 % 1019.55 hPa
2024-02-27 10:02:56 6.14 ℃ 100 % 1019.53 hPa
2024-02-27 09:52:56 6.11 ℃ 100 % 1019.51 hPa
2024-02-27 09:42:56 5.72 ℃ 100 % 1019.59 hPa
2024-02-27 09:32:56 5.45 ℃ 100 % 1019.66 hPa
2024-02-27 09:22:56 5.36 ℃ 100 % 1019.67 hPa
2024-02-27 09:12:56 5.09 ℃ 100 % 1019.68 hPa
2024-02-27 09:02:56 5.35 ℃ 100 % 1019.59 hPa
2024-02-27 08:52:56 5.09 ℃ 100 % 1019.55 hPa
2024-02-27 08:42:56 5.22 ℃ 100 % 1019.43 hPa
2024-02-27 08:32:56 5.1 ℃ 100 % 1019.34 hPa
2024-02-27 08:22:56 4.96 ℃ 100 % 1019.25 hPa
2024-02-27 08:12:56 4.81 ℃ 100 % 1019.23 hPa
2024-02-27 08:02:56 4.71 ℃ 100 % 1019.21 hPa
2024-02-27 07:52:56 4.61 ℃ 100 % 1019.21 hPa
2024-02-27 07:42:56 4.82 ℃ 100 % 1019.13 hPa
2024-02-27 07:32:56 4.91 ℃ 100 % 1019.08 hPa
2024-02-27 07:22:56 5.07 ℃ 100 % 1018.9 hPa
2024-02-27 07:12:57 5.16 ℃ 100 % 1018.82 hPa
2024-02-27 07:02:56 5.16 ℃ 100 % 1018.7 hPa
2024-02-27 06:52:56 5.05 ℃ 100 % 1018.65 hPa
2024-02-27 06:42:56 5.09 ℃ 100 % 1018.63 hPa
2024-02-27 06:32:56 4.98 ℃ 100 % 1018.61 hPa
2024-02-27 06:22:56 4.99 ℃ 100 % 1018.58 hPa
2024-02-27 06:12:56 5.09 ℃ 100 % 1018.58 hPa
2024-02-27 06:02:56 5.15 ℃ 100 % 1018.56 hPa
2024-02-27 05:52:56 5.18 ℃ 100 % 1018.52 hPa
2024-02-27 05:42:56 5.14 ℃ 100 % 1018.48 hPa
2024-02-27 05:32:56 5.14 ℃ 100 % 1018.43 hPa
2024-02-27 05:22:56 5.15 ℃ 100 % 1018.38 hPa
2024-02-27 05:12:56 5.21 ℃ 100 % 1018.35 hPa
2024-02-27 05:02:56 4.87 ℃ 100 % 1018.28 hPa
2024-02-27 04:52:56 4.97 ℃ 100 % 1018.27 hPa
2024-02-27 04:42:56 4.76 ℃ 100 % 1018.21 hPa
2024-02-27 04:32:56 5.04 ℃ 100 % 1018.21 hPa
2024-02-27 04:22:56 4.96 ℃ 100 % 1018.24 hPa
2024-02-27 04:12:56 5.01 ℃ 100 % 1018.2 hPa
2024-02-27 04:02:56 4.69 ℃ 100 % 1018.2 hPa
2024-02-27 03:52:56 4.81 ℃ 100 % 1018.19 hPa
2024-02-27 03:42:56 4.82 ℃ 100 % 1018.13 hPa
2024-02-27 03:32:56 4.65 ℃ 100 % 1018.1 hPa
2024-02-27 03:22:56 4.49 ℃ 100 % 1018.05 hPa
2024-02-27 03:12:56 4.62 ℃ 100 % 1017.96 hPa
2024-02-27 03:02:56 4.54 ℃ 100 % 1017.91 hPa
2024-02-27 02:52:56 4.73 ℃ 100 % 1017.86 hPa
2024-02-27 02:42:56 4.73 ℃ 100 % 1017.82 hPa
2024-02-27 02:32:56 4.96 ℃ 100 % 1017.76 hPa
2024-02-27 02:22:56 4.83 ℃ 100 % 1017.72 hPa
2024-02-27 02:12:56 4.75 ℃ 100 % 1017.65 hPa
2024-02-27 02:02:56 4.69 ℃ 100 % 1017.63 hPa
2024-02-27 01:52:56 4.47 ℃ 100 % 1017.65 hPa
2024-02-27 01:42:56 4.37 ℃ 100 % 1017.65 hPa
2024-02-27 01:32:56 4.42 ℃ 100 % 1017.56 hPa
2024-02-27 01:22:56 4.43 ℃ 100 % 1017.47 hPa
2024-02-27 01:12:56 4.46 ℃ 100 % 1017.44 hPa
2024-02-27 01:02:56 4.58 ℃ 100 % 1017.37 hPa
2024-02-27 00:52:56 4.73 ℃ 100 % 1017.29 hPa
2024-02-27 00:42:57 4.62 ℃ 100 % 1017.26 hPa
2024-02-27 00:32:57 4.57 ℃ 100 % 1017.2 hPa
2024-02-27 00:22:57 4.73 ℃ 100 % 1017.11 hPa
2024-02-27 00:12:57 4.79 ℃ 100 % 1017.1 hPa
2024-02-27 00:02:57 5.1 ℃ 100 % 1017 hPa
2024-02-26 23:52:57 5.19 ℃ 100 % 1016.86 hPa
2024-02-26 23:42:57 5.27 ℃ 100 % 1016.77 hPa
2024-02-26 23:32:57 5.57 ℃ 100 % 1016.7 hPa
2024-02-26 23:22:57 5.84 ℃ 100 % 1016.54 hPa
2024-02-26 23:12:57 6.14 ℃ 100 % 1016.37 hPa
2024-02-26 23:02:57 6.25 ℃ 100 % 1016.29 hPa
2024-02-26 22:52:57 6.16 ℃ 100 % 1016.14 hPa
2024-02-26 22:42:57 6.27 ℃ 100 % 1015.99 hPa
2024-02-26 22:32:57 6.39 ℃ 100 % 1015.93 hPa
2024-02-26 22:22:57 6.13 ℃ 100 % 1015.85 hPa
2024-02-26 22:12:57 6.28 ℃ 100 % 1015.69 hPa
2024-02-26 22:02:57 6.16 ℃ 100 % 1015.59 hPa
2024-02-26 21:52:57 6.25 ℃ 100 % 1015.54 hPa
2024-02-26 21:42:57 6.18 ℃ 100 % 1015.47 hPa
2024-02-26 21:32:57 6.19 ℃ 100 % 1015.36 hPa
2024-02-26 21:22:57 6.2 ℃ 100 % 1015.27 hPa
2024-02-26 21:12:57 6.13 ℃ 100 % 1015.19 hPa
2024-02-26 21:02:57 5.95 ℃ 100 % 1015.14 hPa
2024-02-26 20:52:57 5.95 ℃ 100 % 1015.04 hPa
2024-02-26 20:42:57 6.02 ℃ 100 % 1014.98 hPa
2024-02-26 20:32:57 5.95 ℃ 100 % 1014.9 hPa
2024-02-26 20:22:57 6.05 ℃ 100 % 1014.86 hPa
2024-02-26 20:12:57 5.87 ℃ 100 % 1014.72 hPa
2024-02-26 20:02:57 5.72 ℃ 100 % 1014.62 hPa
2024-02-26 19:52:57 5.85 ℃ 100 % 1014.5 hPa
2024-02-26 19:42:58 5.92 ℃ 100 % 1014.38 hPa
2024-02-26 19:32:57 5.78 ℃ 100 % 1014.33 hPa
2024-02-26 19:22:57 5.6 ℃ 100 % 1014.25 hPa
2024-02-26 19:12:57 5.67 ℃ 100 % 1014.18 hPa
2024-02-26 19:02:57 5.69 ℃ 100 % 1014.11 hPa
2024-02-26 18:52:57 5.64 ℃ 100 % 1014.01 hPa
2024-02-26 18:42:57 5.49 ℃ 100 % 1013.88 hPa
2024-02-26 18:32:57 5.58 ℃ 100 % 1013.72 hPa
2024-02-26 18:22:57 5.89 ℃ 100 % 1013.5 hPa
2024-02-26 18:12:57 6.05 ℃ 100 % 1013.32 hPa
2024-02-26 18:02:57 5.98 ℃ 100 % 1013.2 hPa
2024-02-26 17:52:57 6.04 ℃ 100 % 1013.05 hPa
2024-02-26 17:42:57 6.13 ℃ 100 % 1012.93 hPa
2024-02-26 17:32:57 6.44 ℃ 100 % 1012.81 hPa
2024-02-26 17:22:57 6.61 ℃ 100 % 1012.65 hPa
2024-02-26 17:12:57 6.47 ℃ 100 % 1012.49 hPa
2024-02-26 17:02:57 6.6 ℃ 100 % 1012.32 hPa
2024-02-26 16:52:58 6.6 ℃ 100 % 1012.18 hPa
2024-02-26 16:42:57 6.52 ℃ 100 % 1012.01 hPa
2024-02-26 16:32:57 6.93 ℃ 100 % 1011.83 hPa
2024-02-26 16:22:57 7.05 ℃ 100 % 1011.76 hPa
2024-02-26 16:12:57 6.82 ℃ 100 % 1011.71 hPa
2024-02-26 16:02:57 7.1 ℃ 100 % 1011.63 hPa
2024-02-26 15:52:57 6.85 ℃ 100 % 1011.55 hPa
2024-02-26 15:42:57 6.77 ℃ 100 % 1011.52 hPa
2024-02-26 15:32:57 6.58 ℃ 100 % 1011.49 hPa
2024-02-26 15:22:57 6.44 ℃ 100 % 1011.46 hPa
2024-02-26 15:12:57 6.78 ℃ 100 % 1011.35 hPa
2024-02-26 15:02:57 6.5 ℃ 100 % 1011.23 hPa
2024-02-26 14:52:58 6.52 ℃ 100 % 1011.15 hPa
2024-02-26 14:42:57 6.47 ℃ 100 % 1011.03 hPa
2024-02-26 14:32:57 6.55 ℃ 100 % 1010.86 hPa
2024-02-26 14:22:57 6.45 ℃ 100 % 1010.72 hPa
2024-02-26 14:12:58 6.43 ℃ 100 % 1010.66 hPa
2024-02-26 14:02:58 6.52 ℃ 100 % 1010.55 hPa
2024-02-26 13:52:58 6.47 ℃ 100 % 1010.44 hPa
2024-02-26 13:42:58 6.87 ℃ 100 % 1010.33 hPa
2024-02-26 13:32:58 6.37 ℃ 100 % 1010.27 hPa
2024-02-26 13:22:58 6.01 ℃ 100 % 1010.23 hPa
2024-02-26 13:12:58 5.92 ℃ 100 % 1010.12 hPa
2024-02-26 13:02:58 5.98 ℃ 100 % 1010.05 hPa
2024-02-26 12:52:58 5.73 ℃ 100 % 1010.03 hPa
2024-02-26 12:42:58 5 ℃ 100 % 1010.08 hPa
2024-02-26 12:32:58 4.83 ℃ 100 % 1010.05 hPa
2024-02-26 12:22:58 4.81 ℃ 100 % 1010.01 hPa
2024-02-26 12:12:58 4.76 ℃ 100 % 1009.96 hPa
2024-02-26 12:02:58 4.66 ℃ 100 % 1009.94 hPa
2024-02-26 11:52:58 4.47 ℃ 100 % 1009.89 hPa
2024-02-26 11:42:58 4.37 ℃ 100 % 1009.76 hPa
2024-02-26 11:32:58 4.42 ℃ 100 % 1009.62 hPa
2024-02-26 11:22:58 4.7 ℃ 100 % 1009.49 hPa
2024-02-26 11:12:58 4.16 ℃ 100 % 1009.42 hPa
2024-02-26 11:02:58 4.12 ℃ 100 % 1009.29 hPa
2024-02-26 10:52:58 4.02 ℃ 100 % 1009.2 hPa
2024-02-26 10:42:58 3.98 ℃ 100 % 1009.12 hPa
2024-02-26 10:32:58 4.02 ℃ 100 % 1009.01 hPa
2024-02-26 10:22:58 4.2 ℃ 100 % 1008.95 hPa
2024-02-26 10:12:58 4.06 ℃ 100 % 1008.89 hPa
2024-02-26 10:02:58 4 ℃ 100 % 1008.81 hPa
2024-02-26 09:52:58 3.84 ℃ 100 % 1008.74 hPa
2024-02-26 09:42:58 3.63 ℃ 100 % 1008.65 hPa
2024-02-26 09:32:58 3.21 ℃ 100 % 1008.63 hPa
2024-02-26 09:22:58 2.84 ℃ 100 % 1008.58 hPa
2024-02-26 09:12:58 2.7 ℃ 100 % 1008.42 hPa
2024-02-26 09:02:58 2.74 ℃ 100 % 1008.2 hPa
2024-02-26 08:52:58 2.99 ℃ 100 % 1008.04 hPa
2024-02-26 08:42:58 3.42 ℃ 100 % 1007.91 hPa
2024-02-26 08:32:58 3.93 ℃ 100 % 1007.79 hPa
2024-02-26 08:22:58 4.64 ℃ 100 % 1007.64 hPa
2024-02-26 08:12:58 5.59 ℃ 100 % 1007.48 hPa
2024-02-26 08:02:58 5.74 ℃ 100 % 1007.33 hPa
2024-02-26 07:52:59 5.17 ℃ 100 % 1007.2 hPa
2024-02-26 07:42:58 5.04 ℃ 100 % 1007.11 hPa
2024-02-26 07:32:58 5.17 ℃ 100 % 1006.98 hPa
2024-02-26 07:22:58 5.33 ℃ 100 % 1006.83 hPa
2024-02-26 07:12:58 5.43 ℃ 100 % 1006.72 hPa
2024-02-26 07:02:58 5.54 ℃ 100 % 1006.57 hPa
2024-02-26 06:52:58 5.68 ℃ 100 % 1006.45 hPa
2024-02-26 06:42:58 6.23 ℃ 100 % 1006.33 hPa
2024-02-26 06:32:58 6.38 ℃ 100 % 1006.27 hPa
2024-02-26 06:22:58 6.16 ℃ 100 % 1006.18 hPa
2024-02-26 06:12:58 6.19 ℃ 100 % 1006.08 hPa
2024-02-26 06:02:58 6.18 ℃ 100 % 1005.93 hPa
2024-02-26 05:52:58 5.9 ℃ 100 % 1005.8 hPa
2024-02-26 05:42:58 5.97 ℃ 100 % 1005.68 hPa
2024-02-26 05:32:58 5.8 ℃ 100 % 1005.57 hPa
2024-02-26 05:22:58 6.18 ℃ 100 % 1005.44 hPa
2024-02-26 05:12:59 5.76 ℃ 100 % 1005.33 hPa
2024-02-26 05:02:58 5.8 ℃ 100 % 1005.26 hPa
2024-02-26 04:52:58 6 ℃ 100 % 1005.11 hPa
2024-02-26 04:42:58 6.34 ℃ 100 % 1005.05 hPa
2024-02-26 04:32:58 6.42 ℃ 100 % 1004.99 hPa
2024-02-26 04:22:58 6.46 ℃ 100 % 1004.92 hPa
2024-02-26 04:12:58 6.94 ℃ 100 % 1004.86 hPa
2024-02-26 04:02:58 7.27 ℃ 100 % 1004.81 hPa
2024-02-26 03:52:59 7.5 ℃ 100 % 1004.76 hPa
2024-02-26 03:42:58 7.7 ℃ 100 % 1004.68 hPa
2024-02-26 03:32:59 7.96 ℃ 100 % 1004.63 hPa
2024-02-26 03:22:59 8.21 ℃ 100 % 1004.61 hPa
2024-02-26 03:12:59 8.39 ℃ 100 % 1004.56 hPa
2024-02-26 03:02:59 8.14 ℃ 100 % 1004.57 hPa
2024-02-26 02:52:59 8.02 ℃ 100 % 1004.5 hPa
2024-02-26 02:42:59 8.08 ℃ 100 % 1004.48 hPa
2024-02-26 02:32:59 8.24 ℃ 100 % 1004.46 hPa
2024-02-26 02:22:59 8.47 ℃ 100 % 1004.45 hPa
2024-02-26 02:12:59 8.54 ℃ 100 % 1004.37 hPa
2024-02-26 02:02:59 8.45 ℃ 100 % 1004.32 hPa
2024-02-26 01:52:59 8.39 ℃ 100 % 1004.25 hPa
2024-02-26 01:42:59 8.87 ℃ 100 % 1004.19 hPa
2024-02-26 01:32:59 8.57 ℃ 100 % 1004.14 hPa
2024-02-26 01:22:59 8.22 ℃ 100 % 1004.16 hPa
2024-02-26 01:12:59 8.26 ℃ 100 % 1004.11 hPa
2024-02-26 01:02:59 8.38 ℃ 100 % 1004.07 hPa
2024-02-26 00:52:59 8.43 ℃ 100 % 1004.03 hPa
2024-02-26 00:42:59 8.1 ℃ 100 % 1003.99 hPa
2024-02-26 00:32:59 8.06 ℃ 100 % 1003.93 hPa
2024-02-26 00:22:59 8.63 ℃ 100 % 1003.87 hPa
2024-02-26 00:12:59 9.02 ℃ 100 % 1003.83 hPa
2024-02-26 00:02:59 9.5 ℃ 100 % 1003.74 hPa
2024-02-25 23:52:59 9.79 ℃ 100 % 1003.65 hPa
2024-02-25 23:42:59 9.78 ℃ 100 % 1003.6 hPa
2024-02-25 23:32:59 9.67 ℃ 100 % 1003.6 hPa
2024-02-25 23:22:59 9.82 ℃ 100 % 1003.57 hPa
2024-02-25 23:12:59 9.79 ℃ 100 % 1003.54 hPa
2024-02-25 23:02:59 9.86 ℃ 100 % 1003.47 hPa
2024-02-25 22:52:59 10.04 ℃ 100 % 1003.46 hPa
2024-02-25 22:42:59 10.04 ℃ 100 % 1003.49 hPa
2024-02-25 22:32:59 10.4 ℃ 100 % 1003.43 hPa
2024-02-25 22:22:59 10.74 ℃ 100 % 1003.43 hPa
2024-02-25 22:12:59 10.86 ℃ 100 % 1003.4 hPa
2024-02-25 22:02:59 10.89 ℃ 100 % 1003.39 hPa
2024-02-25 21:53:00 10.89 ℃ 100 % 1003.34 hPa
2024-02-25 21:42:59 10.8 ℃ 100 % 1003.26 hPa
2024-02-25 21:33:02 10.85 ℃ 100 % 1003.2 hPa
2024-02-25 21:22:59 10.78 ℃ 100 % 1003.14 hPa
2024-02-25 21:12:59 10.42 ℃ 100 % 1003.08 hPa
2024-02-25 21:02:59 10.11 ℃ 100 % 1003.08 hPa
2024-02-25 20:52:59 9.81 ℃ 100 % 1003.05 hPa
2024-02-25 20:42:59 9.62 ℃ 100 % 1003.02 hPa
2024-02-25 20:32:59 9.85 ℃ 100 % 1002.99 hPa
2024-02-25 20:22:59 9.84 ℃ 100 % 1002.99 hPa
2024-02-25 20:12:59 9.64 ℃ 100 % 1002.93 hPa
2024-02-25 20:02:59 9.5 ℃ 100 % 1002.9 hPa
2024-02-25 19:53:00 9.96 ℃ 100 % 1002.86 hPa
2024-02-25 19:42:59 9.95 ℃ 100 % 1002.84 hPa
2024-02-25 19:32:59 10.02 ℃ 100 % 1002.77 hPa
2024-02-25 19:22:59 9.99 ℃ 100 % 1002.7 hPa
2024-02-25 19:12:59 9.97 ℃ 100 % 1002.65 hPa
2024-02-25 19:02:59 9.82 ℃ 100 % 1002.65 hPa
2024-02-25 18:52:59 9.71 ℃ 100 % 1002.65 hPa
2024-02-25 18:42:59 9.6 ℃ 100 % 1002.58 hPa
2024-02-25 18:32:59 9.97 ℃ 100 % 1002.52 hPa
2024-02-25 18:22:59 10.46 ℃ 100 % 1002.46 hPa
2024-02-25 18:12:59 10.36 ℃ 100 % 1002.39 hPa
2024-02-25 18:02:59 10.46 ℃ 100 % 1002.36 hPa
2024-02-25 17:52:59 10.39 ℃ 100 % 1002.32 hPa
2024-02-25 17:42:59 10.54 ℃ 100 % 1002.24 hPa
2024-02-25 17:32:59 10.3 ℃ 100 % 1002.18 hPa
2024-02-25 17:22:59 9.98 ℃ 100 % 1002.12 hPa
2024-02-25 17:12:59 9.96 ℃ 100 % 1002.1 hPa
2024-02-25 17:02:59 9.71 ℃ 100 % 1002.04 hPa
2024-02-25 16:52:59 9.6 ℃ 100 % 1001.93 hPa
2024-02-25 16:43:00 9.95 ℃ 100 % 1001.73 hPa
2024-02-25 16:33:00 10.29 ℃ 100 % 1001.68 hPa
2024-02-25 16:23:00 10.76 ℃ 100 % 1001.61 hPa
2024-02-25 16:13:00 10.68 ℃ 100 % 1001.55 hPa
2024-02-25 16:03:00 11.06 ℃ 100 % 1001.51 hPa
2024-02-25 15:53:00 11.35 ℃ 100 % 1001.51 hPa
2024-02-25 15:43:00 11.1 ℃ 100 % 1001.5 hPa
2024-02-25 15:33:00 10.89 ℃ 100 % 1001.51 hPa
2024-02-25 15:23:00 10.98 ℃ 100 % 1001.49 hPa
2024-02-25 15:13:00 10.85 ℃ 100 % 1001.47 hPa
2024-02-25 15:03:00 10.76 ℃ 100 % 1001.5 hPa
2024-02-25 14:53:00 10.78 ℃ 100 % 1001.54 hPa
2024-02-25 14:43:00 10.76 ℃ 100 % 1001.53 hPa
2024-02-25 14:33:00 10.74 ℃ 100 % 1001.59 hPa
2024-02-25 14:23:00 10.89 ℃ 100 % 1001.58 hPa
2024-02-25 14:13:00 11.29 ℃ 100 % 1001.5 hPa
2024-02-25 14:03:00 11.25 ℃ 100 % 1001.53 hPa
2024-02-25 13:53:00 11.18 ℃ 100 % 1001.62 hPa
2024-02-25 13:43:00 11.33 ℃ 100 % 1001.66 hPa
2024-02-25 13:33:00 11.24 ℃ 100 % 1001.72 hPa
2024-02-25 13:23:00 10.75 ℃ 100 % 1001.78 hPa
2024-02-25 13:13:00 10.39 ℃ 100 % 1001.88 hPa
2024-02-25 13:03:00 10.25 ℃ 100 % 1001.95 hPa
2024-02-25 12:53:00 9.94 ℃ 100 % 1002 hPa
2024-02-25 12:43:00 9.84 ℃ 100 % 1002.03 hPa
2024-02-25 12:33:00 9.82 ℃ 100 % 1002.06 hPa
2024-02-25 12:23:00 9.53 ℃ 100 % 1002.11 hPa
2024-02-25 12:13:00 9.27 ℃ 100 % 1002.14 hPa
2024-02-25 12:03:00 8.92 ℃ 100 % 1002.18 hPa
2024-02-25 11:53:00 8.64 ℃ 100 % 1002.27 hPa
2024-02-25 11:43:00 8.65 ℃ 100 % 1002.35 hPa
2024-02-25 11:33:00 8.67 ℃ 100 % 1002.39 hPa
2024-02-25 11:23:00 8.34 ℃ 100 % 1002.49 hPa
2024-02-25 11:13:00 8.55 ℃ 100 % 1002.54 hPa
2024-02-25 11:03:00 8.77 ℃ 100 % 1002.55 hPa
2024-02-25 10:53:00 8.03 ℃ 100 % 1002.55 hPa
2024-02-25 10:43:00 7.8 ℃ 100 % 1002.58 hPa
2024-02-25 10:33:00 7.43 ℃ 100 % 1002.58 hPa
2024-02-25 04:15:16 5.71 ℃ 100 % 1003.22 hPa
2024-02-25 04:05:16 5.97 ℃ 100 % 1003.23 hPa
2024-02-25 03:55:16 5.9 ℃ 100 % 1003.24 hPa
2024-02-25 03:45:16 6.11 ℃ 100 % 1003.29 hPa
2024-02-25 03:35:16 6.23 ℃ 100 % 1003.33 hPa
2024-02-25 03:25:16 6.15 ℃ 100 % 1003.36 hPa
2024-02-25 03:15:16 6.09 ℃ 100 % 1003.4 hPa
2024-02-25 03:05:16 6.2 ℃ 100 % 1003.35 hPa
2024-02-25 02:55:16 6.32 ℃ 100 % 1003.37 hPa
2024-02-25 02:45:16 6.42 ℃ 100 % 1003.33 hPa
2024-02-25 02:35:16 6.96 ℃ 100 % 1003.3 hPa
2024-02-25 02:25:16 7.34 ℃ 100 % 1003.16 hPa
2024-02-25 02:15:16 7.51 ℃ 100 % 1003.09 hPa
2024-02-25 02:05:16 7.69 ℃ 100 % 1003.11 hPa
2024-02-25 01:55:16 7.41 ℃ 100 % 1003.17 hPa
2024-02-25 01:45:16 7.36 ℃ 100 % 1003.25 hPa
2024-02-25 01:35:16 7.11 ℃ 100 % 1003.3 hPa
2024-02-25 01:25:16 7.19 ℃ 100 % 1003.28 hPa
2024-02-25 01:15:16 7.22 ℃ 100 % 1003.27 hPa
2024-02-25 01:05:16 7.18 ℃ 100 % 1003.23 hPa
2024-02-25 00:55:16 7.3 ℃ 100 % 1003.14 hPa
2024-02-25 00:45:16 7.28 ℃ 100 % 1003.03 hPa
2024-02-25 00:35:16 7.18 ℃ 100 % 1002.94 hPa
2024-02-25 00:25:16 7.33 ℃ 100 % 1002.89 hPa
2024-02-25 00:15:16 7.19 ℃ 100 % 1002.9 hPa
2024-02-25 00:05:16 7.42 ℃ 100 % 1002.9 hPa
2024-02-24 23:55:16 7.4 ℃ 100 % 1002.88 hPa
2024-02-24 23:45:16 7.42 ℃ 100 % 1002.84 hPa
2024-02-24 23:35:16 7.46 ℃ 100 % 1002.86 hPa
2024-02-24 23:25:16 7.42 ℃ 100 % 1002.83 hPa
2024-02-24 23:15:16 7.53 ℃ 100 % 1002.85 hPa
2024-02-24 23:05:16 7.61 ℃ 100 % 1002.85 hPa
2024-02-24 22:55:16 7.81 ℃ 100 % 1002.82 hPa
2024-02-24 22:45:16 7.71 ℃ 100 % 1002.78 hPa
2024-02-24 22:35:16 7.52 ℃ 100 % 1002.79 hPa
2024-02-24 22:25:16 7.61 ℃ 100 % 1002.75 hPa
2024-02-24 22:15:16 7.41 ℃ 100 % 1002.74 hPa
2024-02-24 22:05:16 7.53 ℃ 100 % 1002.7 hPa
2024-02-24 21:55:16 7.6 ℃ 100 % 1002.65 hPa
2024-02-24 21:45:16 7.88 ℃ 100 % 1002.64 hPa
2024-02-24 21:35:16 7.87 ℃ 100 % 1002.56 hPa
2024-02-24 21:25:16 7.99 ℃ 100 % 1002.52 hPa
2024-02-24 21:15:16 7.75 ℃ 100 % 1002.47 hPa
2024-02-24 21:05:16 7.96 ℃ 100 % 1002.38 hPa
2024-02-24 20:55:16 7.79 ℃ 100 % 1002.33 hPa
2024-02-24 20:45:16 8.16 ℃ 100 % 1002.3 hPa
2024-02-24 20:35:16 8.57 ℃ 100 % 1002.26 hPa
2024-02-24 20:25:16 8.41 ℃ 100 % 1002.24 hPa
2024-02-24 20:15:16 8.28 ℃ 100 % 1002.25 hPa
2024-02-24 20:05:16 8.46 ℃ 100 % 1002.21 hPa
2024-02-24 19:55:16 8.83 ℃ 100 % 1002.11 hPa
2024-02-24 19:45:16 8.72 ℃ 100 % 1002.03 hPa
2024-02-24 19:35:16 8.46 ℃ 100 % 1001.95 hPa
2024-02-24 19:25:17 8.12 ℃ 100 % 1001.91 hPa
2024-02-24 19:15:16 7.96 ℃ 100 % 1001.88 hPa
2024-02-24 19:05:17 7.95 ℃ 100 % 1001.8 hPa
2024-02-24 18:55:17 8.07 ℃ 100 % 1001.74 hPa
2024-02-24 18:45:17 7.87 ℃ 100 % 1001.58 hPa
2024-02-24 18:35:17 8.02 ℃ 100 % 1001.45 hPa
2024-02-24 18:25:17 8.85 ℃ 100 % 1001.09 hPa
2024-02-24 18:15:17 10.39 ℃ 100 % 1000.57 hPa
2024-02-24 18:05:17 10.66 ℃ 100 % 1000.29 hPa
2024-02-24 17:55:17 10.67 ℃ 100 % 1000.26 hPa
2024-02-24 17:45:17 10.78 ℃ 100 % 1000.21 hPa
2024-02-24 17:35:17 11.08 ℃ 100 % 1000.15 hPa
2024-02-24 17:25:17 11.05 ℃ 100 % 1000.11 hPa
2024-02-24 17:15:17 11.17 ℃ 100 % 1000.09 hPa
2024-02-24 17:05:17 11.1 ℃ 100 % 1000.03 hPa
2024-02-24 16:55:17 11.15 ℃ 100 % 999.97 hPa
2024-02-24 16:45:17 11.08 ℃ 100 % 999.91 hPa
2024-02-24 16:35:17 11.22 ℃ 100 % 999.83 hPa
2024-02-24 16:25:17 11.19 ℃ 100 % 999.81 hPa
2024-02-24 16:15:17 11.25 ℃ 100 % 999.83 hPa
2024-02-24 16:05:17 11.4 ℃ 100 % 999.78 hPa
2024-02-24 15:55:17 11.54 ℃ 100 % 999.74 hPa
2024-02-24 15:45:17 11.5 ℃ 100 % 999.67 hPa
2024-02-24 15:35:17 11.46 ℃ 100 % 999.56 hPa
2024-02-24 15:25:17 11.81 ℃ 100 % 999.48 hPa
2024-02-24 15:15:17 11.94 ℃ 100 % 999.4 hPa
2024-02-24 15:05:17 11.8 ℃ 100 % 999.31 hPa
2024-02-24 14:55:17 11.9 ℃ 100 % 999.24 hPa
2024-02-24 14:45:17 12.05 ℃ 100 % 999.23 hPa
2024-02-24 14:35:17 11.98 ℃ 100 % 999.25 hPa
2024-02-24 14:25:17 11.93 ℃ 100 % 999.24 hPa
2024-02-24 14:15:17 11.86 ℃ 100 % 999.24 hPa
2024-02-24 14:05:17 11.98 ℃ 100 % 999.24 hPa
2024-02-24 13:55:17 12.27 ℃ 100 % 999.25 hPa
2024-02-24 13:45:17 11.88 ℃ 100 % 999.17 hPa
2024-02-24 13:35:17 11.83 ℃ 100 % 999.14 hPa
2024-02-24 13:25:17 12 ℃ 100 % 999.05 hPa
2024-02-24 13:15:17 12.17 ℃ 100 % 998.96 hPa
2024-02-24 13:05:17 11.74 ℃ 100 % 998.93 hPa
2024-02-24 12:55:17 11.8 ℃ 100 % 998.9 hPa
2024-02-24 12:45:17 12.4 ℃ 100 % 998.89 hPa
2024-02-24 12:35:17 12.09 ℃ 100 % 998.92 hPa
2024-02-24 12:25:17 11.61 ℃ 100 % 998.96 hPa
2024-02-24 12:15:17 11.71 ℃ 100 % 999 hPa
2024-02-24 12:05:17 10.59 ℃ 100 % 999.1 hPa
2024-02-24 11:55:17 10.34 ℃ 100 % 999.12 hPa
2024-02-24 11:45:17 10.49 ℃ 100 % 999.11 hPa
2024-02-24 11:35:17 10.19 ℃ 100 % 999.09 hPa
2024-02-24 11:25:17 9.85 ℃ 100 % 999.01 hPa
2024-02-24 11:15:17 9.79 ℃ 100 % 998.91 hPa
2024-02-24 11:05:17 9.82 ℃ 100 % 998.85 hPa
2024-02-24 10:55:17 9.92 ℃ 100 % 998.78 hPa
2024-02-24 10:45:17 10.07 ℃ 100 % 998.69 hPa
2024-02-24 10:35:17 9.84 ℃ 100 % 998.59 hPa
2024-02-24 10:25:17 10.02 ℃ 100 % 998.55 hPa
2024-02-24 10:15:17 10.1 ℃ 100 % 998.53 hPa
2024-02-24 10:05:17 9.8 ℃ 100 % 998.52 hPa
2024-02-24 09:55:17 9.43 ℃ 100 % 998.48 hPa
2024-02-24 09:45:17 9.28 ℃ 100 % 998.46 hPa
2024-02-24 09:35:17 8.78 ℃ 100 % 998.43 hPa
2024-02-24 09:25:17 8.85 ℃ 100 % 998.33 hPa
2024-02-24 09:15:17 8.57 ℃ 100 % 998.23 hPa
2024-02-24 09:05:17 8.4 ℃ 100 % 998.16 hPa
2024-02-24 08:55:17 7.98 ℃ 100 % 998.12 hPa
2024-02-24 08:45:17 7.84 ℃ 100 % 998.04 hPa
2024-02-24 08:35:17 7.35 ℃ 100 % 997.97 hPa
2024-02-24 08:25:18 6.7 ℃ 100 % 997.96 hPa
2024-02-24 08:15:17 6.56 ℃ 100 % 997.96 hPa
2024-02-24 08:05:17 6.57 ℃ 100 % 997.91 hPa
2024-02-24 07:55:18 6.29 ℃ 100 % 997.82 hPa
2024-02-24 07:45:17 6.24 ℃ 100 % 997.76 hPa
2024-02-24 07:35:18 6.61 ℃ 100 % 997.75 hPa
2024-02-24 07:25:18 7.13 ℃ 100 % 997.68 hPa
2024-02-24 07:15:18 7.04 ℃ 100 % 997.58 hPa
2024-02-24 07:05:18 7.1 ℃ 100 % 997.52 hPa
2024-02-24 06:55:18 7.02 ℃ 100 % 997.49 hPa
2024-02-24 06:45:18 6.92 ℃ 100 % 997.48 hPa
2024-02-24 06:35:18 7.22 ℃ 100 % 997.44 hPa
2024-02-24 06:25:18 7.08 ℃ 100 % 997.37 hPa
2024-02-24 06:15:18 7.11 ℃ 100 % 997.31 hPa
2024-02-24 06:05:18 6.98 ℃ 100 % 997.22 hPa
2024-02-24 05:55:18 7.18 ℃ 100 % 997.19 hPa
2024-02-24 05:45:18 7.02 ℃ 100 % 997.15 hPa
2024-02-24 05:35:18 7.17 ℃ 100 % 997.08 hPa
2024-02-24 05:25:18 6.81 ℃ 100 % 997.1 hPa
2024-02-24 05:15:18 7.07 ℃ 100 % 997.09 hPa
2024-02-24 05:05:18 7.31 ℃ 100 % 997.01 hPa
2024-02-24 04:55:18 7.3 ℃ 100 % 996.97 hPa
2024-02-24 04:45:18 6.98 ℃ 100 % 996.93 hPa
2024-02-24 04:35:18 6.94 ℃ 100 % 996.89 hPa
2024-02-24 04:25:18 7.13 ℃ 100 % 996.86 hPa
2024-02-24 04:15:18 7.15 ℃ 100 % 996.78 hPa
2024-02-24 04:05:18 7.48 ℃ 100 % 996.7 hPa
2024-02-24 03:55:18 7.3 ℃ 100 % 996.64 hPa
2024-02-24 03:45:18 7.55 ℃ 100 % 996.57 hPa
2024-02-24 03:35:18 7.37 ℃ 100 % 996.55 hPa
2024-02-24 03:25:18 7.53 ℃ 100 % 996.49 hPa
2024-02-24 03:15:18 7.69 ℃ 100 % 996.44 hPa
2024-02-24 03:05:18 7.41 ℃ 100 % 996.48 hPa
2024-02-24 02:55:18 7.43 ℃ 100 % 996.45 hPa
2024-02-24 02:45:18 7.51 ℃ 100 % 996.42 hPa
2024-02-24 02:35:18 7.69 ℃ 100 % 996.35 hPa
2024-02-24 02:25:18 7.59 ℃ 100 % 996.38 hPa
2024-02-24 02:15:18 7.64 ℃ 100 % 996.38 hPa
2024-02-24 02:05:18 7.78 ℃ 100 % 996.37 hPa
2024-02-24 01:55:18 7.91 ℃ 100 % 996.31 hPa
2024-02-24 01:45:18 8.36 ℃ 100 % 996.25 hPa
2024-02-24 01:35:18 8.27 ℃ 100 % 996.2 hPa
2024-02-24 01:25:18 8.42 ℃ 100 % 996.15 hPa
2024-02-24 01:15:18 8.62 ℃ 100 % 996.08 hPa
2024-02-24 01:05:18 8.54 ℃ 100 % 996.07 hPa
2024-02-24 00:55:18 8.44 ℃ 100 % 996.08 hPa
2024-02-24 00:45:18 8.68 ℃ 100 % 996.06 hPa
2024-02-24 00:35:18 8.34 ℃ 100 % 996.04 hPa
2024-02-24 00:25:18 8.57 ℃ 100 % 996.03 hPa
2024-02-24 00:15:18 8.54 ℃ 100 % 996.05 hPa
2024-02-24 00:05:18 8.87 ℃ 100 % 996 hPa
2024-02-23 23:55:18 9.08 ℃ 100 % 996.02 hPa
2024-02-23 23:45:18 8.9 ℃ 100 % 996.07 hPa
2024-02-23 23:35:18 8.65 ℃ 100 % 996.1 hPa
2024-02-23 23:25:18 8.63 ℃ 100 % 996.07 hPa
2024-02-23 23:15:18 8.45 ℃ 100 % 996.03 hPa
2024-02-23 23:05:18 8.63 ℃ 100 % 995.98 hPa
2024-02-23 22:55:19 8.91 ℃ 100 % 995.93 hPa
2024-02-23 22:45:19 8.75 ℃ 100 % 995.88 hPa
2024-02-23 22:35:19 8.61 ℃ 100 % 995.77 hPa
2024-02-23 22:25:18 8.7 ℃ 100 % 995.66 hPa
2024-02-23 22:15:18 8.96 ℃ 100 % 995.54 hPa
2024-02-23 22:05:18 8.63 ℃ 100 % 995.47 hPa
2024-02-23 21:55:18 9.05 ℃ 100 % 995.35 hPa
2024-02-23 21:45:18 9.09 ℃ 100 % 995.3 hPa
2024-02-23 21:35:19 8.79 ℃ 100 % 995.17 hPa
2024-02-23 21:25:19 8.76 ℃ 100 % 995.06 hPa
2024-02-23 21:15:19 8.75 ℃ 100 % 995.02 hPa
2024-02-23 21:05:19 8.84 ℃ 100 % 994.92 hPa
2024-02-23 20:55:18 8.98 ℃ 100 % 994.84 hPa
2024-02-23 20:45:19 8.86 ℃ 100 % 994.79 hPa
2024-02-23 20:35:19 8.77 ℃ 100 % 994.67 hPa
2024-02-23 20:25:19 8.84 ℃ 100 % 994.55 hPa
2024-02-23 20:15:19 8.94 ℃ 100 % 994.49 hPa
2024-02-23 20:05:19 8.98 ℃ 100 % 994.42 hPa
2024-02-23 19:55:19 9.12 ℃ 100 % 994.36 hPa
2024-02-23 19:45:19 9.09 ℃ 100 % 994.27 hPa
2024-02-23 19:35:19 9.13 ℃ 100 % 994.16 hPa
2024-02-23 19:25:19 9.21 ℃ 100 % 994.03 hPa
2024-02-23 19:15:19 9.42 ℃ 100 % 993.91 hPa
2024-02-23 19:05:19 9.34 ℃ 100 % 993.77 hPa
2024-02-23 18:55:19 9.52 ℃ 100 % 993.66 hPa
2024-02-23 18:45:19 9.68 ℃ 100 % 993.55 hPa
2024-02-23 18:35:19 9.86 ℃ 100 % 993.49 hPa
2024-02-23 18:25:19 9.87 ℃ 100 % 993.41 hPa
2024-02-23 18:15:19 9.94 ℃ 100 % 993.32 hPa
2024-02-23 18:05:19 10.3 ℃ 100 % 993.13 hPa
2024-02-23 17:55:19 10.53 ℃ 100 % 992.95 hPa
2024-02-23 17:45:19 10.65 ℃ 100 % 992.73 hPa
2024-02-23 17:35:19 10.63 ℃ 100 % 992.56 hPa
2024-02-23 17:25:19 10.62 ℃ 100 % 992.46 hPa
2024-02-23 17:15:19 10.79 ℃ 100 % 992.4 hPa
2024-02-23 17:05:19 10.84 ℃ 100 % 992.28 hPa
2024-02-23 16:55:19 10.77 ℃ 100 % 992.18 hPa
2024-02-23 16:45:19 10.81 ℃ 100 % 992.12 hPa
2024-02-23 16:35:19 10.91 ℃ 100 % 992.06 hPa
2024-02-23 16:25:19 10.88 ℃ 100 % 991.97 hPa
2024-02-23 16:15:19 10.9 ℃ 100 % 991.84 hPa
2024-02-23 16:05:19 10.66 ℃ 100 % 991.79 hPa
2024-02-23 15:55:20 10.7 ℃ 100 % 991.77 hPa
2024-02-23 15:45:19 10.44 ℃ 100 % 991.74 hPa
2024-02-23 15:35:19 10.53 ℃ 100 % 991.77 hPa
2024-02-23 15:25:19 10.81 ℃ 100 % 991.8 hPa
2024-02-23 15:15:19 10.87 ℃ 100 % 991.76 hPa
2024-02-23 15:05:19 11.1 ℃ 100 % 991.77 hPa
2024-02-23 14:55:19 11.09 ℃ 100 % 991.73 hPa
2024-02-23 14:45:19 11.05 ℃ 100 % 991.73 hPa
2024-02-23 14:35:19 11.05 ℃ 100 % 991.73 hPa
2024-02-23 14:25:19 10.88 ℃ 100 % 991.72 hPa
2024-02-23 14:15:19 10.88 ℃ 100 % 991.67 hPa
2024-02-23 14:05:19 10.8 ℃ 100 % 991.54 hPa
2024-02-23 13:55:19 10.99 ℃ 100 % 991.47 hPa
2024-02-23 13:45:19 10.94 ℃ 100 % 991.46 hPa
2024-02-23 13:35:19 10.84 ℃ 100 % 991.41 hPa
2024-02-23 13:25:19 10.73 ℃ 100 % 991.41 hPa
2024-02-23 13:15:19 10.95 ℃ 100 % 991.41 hPa
2024-02-23 13:05:19 10.87 ℃ 100 % 991.35 hPa
2024-02-23 12:55:19 10.4 ℃ 100 % 991.33 hPa
2024-02-23 12:45:19 10.25 ℃ 100 % 991.32 hPa
2024-02-23 12:35:19 10.06 ℃ 100 % 991.26 hPa
2024-02-23 12:25:19 10.33 ℃ 100 % 991.27 hPa
2024-02-23 12:15:19 10.16 ℃ 100 % 991.24 hPa
2024-02-23 12:05:19 10.03 ℃ 100 % 991.18 hPa
2024-02-23 11:55:19 10.04 ℃ 100 % 990.97 hPa
2024-02-23 11:45:19 10.05 ℃ 100 % 990.79 hPa
2024-02-23 11:35:19 9.91 ℃ 100 % 990.54 hPa
2024-02-23 11:25:19 9.8 ℃ 100 % 990.3 hPa
2024-02-23 11:15:19 9.85 ℃ 100 % 990.06 hPa
2024-02-23 11:05:19 9.88 ℃ 100 % 989.84 hPa
2024-02-23 10:55:20 9.64 ℃ 100 % 989.62 hPa
2024-02-23 10:45:19 9.68 ℃ 100 % 989.44 hPa
2024-02-23 10:35:19 9.34 ℃ 100 % 989.27 hPa
2024-02-23 10:25:19 9.4 ℃ 100 % 989.16 hPa
2024-02-23 10:15:20 9.24 ℃ 100 % 988.97 hPa
2024-02-23 10:05:20 8.95 ℃ 100 % 988.81 hPa
2024-02-23 09:55:20 8.97 ℃ 100 % 988.65 hPa
2024-02-23 09:45:20 8.97 ℃ 100 % 988.46 hPa
2024-02-23 09:35:20 8.69 ℃ 100 % 988.28 hPa
2024-02-23 09:25:20 8.45 ℃ 100 % 988.16 hPa
2024-02-23 09:15:20 8.3 ℃ 100 % 987.99 hPa
2024-02-23 09:05:20 8.2 ℃ 100 % 987.8 hPa
2024-02-23 08:55:20 7.78 ℃ 100 % 987.58 hPa
2024-02-23 08:45:20 7.87 ℃ 100 % 987.37 hPa
2024-02-23 08:35:20 8 ℃ 100 % 987.11 hPa
2024-02-23 08:25:20 8.02 ℃ 100 % 986.91 hPa
2024-02-23 08:15:20 8.1 ℃ 100 % 986.6 hPa
2024-02-23 08:05:20 8.09 ℃ 100 % 986.35 hPa
2024-02-23 07:55:20 8.08 ℃ 100 % 986.11 hPa
2024-02-23 07:45:20 7.92 ℃ 100 % 985.91 hPa
2024-02-23 07:35:20 7.86 ℃ 100 % 985.63 hPa
2024-02-23 07:25:20 7.69 ℃ 100 % 985.41 hPa
2024-02-23 07:15:20 7.64 ℃ 100 % 985.21 hPa
2024-02-23 07:05:20 7.67 ℃ 100 % 985.04 hPa
2024-02-23 06:55:20 7.6 ℃ 100 % 984.89 hPa
2024-02-23 06:45:20 7.5 ℃ 100 % 984.71 hPa
2024-02-23 06:35:20 7.7 ℃ 100 % 984.55 hPa
2024-02-23 06:25:20 7.77 ℃ 100 % 984.32 hPa
2024-02-23 06:15:20 7.79 ℃ 100 % 984.09 hPa
2024-02-23 06:05:20 7.89 ℃ 100 % 983.91 hPa
2024-02-23 05:55:20 7.94 ℃ 100 % 983.78 hPa
2024-02-23 05:45:20 8.03 ℃ 100 % 983.54 hPa
2024-02-23 05:35:20 7.77 ℃ 100 % 983.3 hPa
2024-02-23 05:25:20 7.76 ℃ 100 % 983.04 hPa
2024-02-23 05:15:20 7.75 ℃ 100 % 982.8 hPa
2024-02-23 05:05:20 7.69 ℃ 100 % 982.54 hPa
2024-02-23 04:55:20 7.64 ℃ 100 % 982.26 hPa
2024-02-23 04:45:20 7.66 ℃ 100 % 982.06 hPa
2024-02-23 04:35:20 7.9 ℃ 100 % 981.82 hPa
2024-02-23 04:25:20 7.87 ℃ 100 % 981.62 hPa
2024-02-23 04:15:20 7.82 ℃ 100 % 981.45 hPa
2024-02-23 04:05:20 7.93 ℃ 100 % 981.17 hPa
2024-02-23 03:55:20 8.04 ℃ 100 % 980.77 hPa
2024-02-23 03:45:20 8.09 ℃ 100 % 980.43 hPa
2024-02-23 03:35:20 8.28 ℃ 100 % 980.11 hPa
2024-02-23 03:25:20 8.38 ℃ 100 % 979.7 hPa
2024-02-23 03:15:20 8.68 ℃ 100 % 979.25 hPa
2024-02-23 03:05:20 8.74 ℃ 100 % 978.84 hPa
2024-02-23 02:55:20 8.99 ℃ 100 % 978.38 hPa
2024-02-23 02:45:20 9.26 ℃ 100 % 978.02 hPa
2024-02-23 02:35:20 9.45 ℃ 100 % 977.72 hPa
2024-02-23 02:25:20 9.5 ℃ 100 % 977.37 hPa
2024-02-23 02:15:20 9.78 ℃ 100 % 977.01 hPa
2024-02-23 02:05:20 10.19 ℃ 100 % 976.87 hPa
2024-02-23 01:55:20 11.04 ℃ 100 % 976.52 hPa
2024-02-23 01:45:20 11.39 ℃ 100 % 976.03 hPa
2024-02-23 01:35:20 11.61 ℃ 100 % 975.92 hPa
2024-02-23 01:25:20 11.71 ℃ 100 % 975.82 hPa
2024-02-23 01:15:20 12.07 ℃ 100 % 975.68 hPa
2024-02-23 01:05:20 12.58 ℃ 100 % 975.41 hPa
2024-02-23 00:55:20 12.85 ℃ 100 % 975.1 hPa
2024-02-23 00:45:20 13.03 ℃ 100 % 974.82 hPa
2024-02-23 00:35:20 13.11 ℃ 100 % 974.46 hPa
2024-02-23 00:25:20 12.97 ℃ 100 % 974.47 hPa
2024-02-23 00:15:20 12.85 ℃ 100 % 974.36 hPa
2024-02-23 00:05:21 12.75 ℃ 100 % 974.35 hPa
2024-02-22 23:55:21 12.58 ℃ 100 % 974.29 hPa
2024-02-22 23:45:20 12.63 ℃ 100 % 974.48 hPa
2024-02-22 23:35:21 12.39 ℃ 100 % 974.74 hPa
2024-02-22 23:25:21 12.44 ℃ 100 % 974.91 hPa
2024-02-22 23:15:21 12.33 ℃ 100 % 975.13 hPa
2024-02-22 23:05:21 12.28 ℃ 100 % 975.3 hPa
2024-02-22 22:55:21 12.29 ℃ 100 % 975.44 hPa
2024-02-22 22:45:21 12.1 ℃ 100 % 975.68 hPa
2024-02-22 22:35:21 12.1 ℃ 100 % 975.94 hPa
2024-02-22 22:25:21 11.96 ℃ 100 % 976.19 hPa
2024-02-22 22:15:21 12.08 ℃ 100 % 976.41 hPa
2024-02-22 22:05:21 12.02 ℃ 100 % 976.55 hPa
2024-02-22 21:55:21 11.96 ℃ 100 % 976.9 hPa
2024-02-22 21:45:21 12 ℃ 100 % 977.24 hPa
2024-02-22 21:35:21 12 ℃ 100 % 977.42 hPa
2024-02-22 21:25:21 12.05 ℃ 100 % 977.53 hPa
2024-02-22 21:15:21 12 ℃ 100 % 977.75 hPa
2024-02-22 21:05:21 11.88 ℃ 100 % 977.96 hPa
2024-02-22 20:55:21 12.01 ℃ 100 % 978.27 hPa
2024-02-22 20:45:21 12.11 ℃ 100 % 978.6 hPa
2024-02-22 20:35:21 12.37 ℃ 100 % 978.86 hPa
2024-02-22 20:25:21 12.29 ℃ 100 % 979.12 hPa
2024-02-22 20:15:21 12.34 ℃ 100 % 979.4 hPa
2024-02-22 20:05:22 12.46 ℃ 100 % 979.67 hPa
2024-02-22 19:55:21 12.36 ℃ 100 % 979.92 hPa
2024-02-22 19:45:21 12.29 ℃ 100 % 980.19 hPa
2024-02-22 19:35:21 12.35 ℃ 100 % 980.42 hPa
2024-02-22 19:25:21 12.22 ℃ 100 % 980.66 hPa
2024-02-22 19:15:21 12.25 ℃ 100 % 980.91 hPa
2024-02-22 19:05:21 12.24 ℃ 100 % 981.18 hPa
2024-02-22 18:55:21 12.22 ℃ 100 % 981.46 hPa
2024-02-22 18:45:21 12.4 ℃ 100 % 981.74 hPa
2024-02-22 18:35:21 12.4 ℃ 100 % 982.01 hPa
2024-02-22 18:25:21 12.37 ℃ 100 % 982.28 hPa
2024-02-22 18:15:21 12.53 ℃ 100 % 982.48 hPa
2024-02-22 18:05:21 12.51 ℃ 100 % 982.64 hPa
2024-02-22 17:55:21 12.51 ℃ 100 % 982.76 hPa
2024-02-22 17:45:21 12.64 ℃ 100 % 982.92 hPa
2024-02-22 17:35:21 12.6 ℃ 100 % 982.89 hPa
2024-02-22 17:25:21 12.69 ℃ 100 % 983.05 hPa
2024-02-22 17:15:21 12.85 ℃ 100 % 983.18 hPa
2024-02-22 17:05:21 13.01 ℃ 100 % 983.48 hPa
2024-02-22 16:55:21 13.16 ℃ 100 % 983.71 hPa
2024-02-22 16:45:21 13.35 ℃ 100 % 984.06 hPa
2024-02-22 16:35:21 13.6 ℃ 100 % 984.51 hPa
2024-02-22 16:25:21 13.7 ℃ 100 % 984.97 hPa
2024-02-22 16:15:21 13.69 ℃ 100 % 985.34 hPa
2024-02-22 16:05:21 13.96 ℃ 100 % 985.83 hPa
2024-02-22 15:55:21 14.09 ℃ 100 % 986.17 hPa
2024-02-22 15:45:21 14.06 ℃ 100 % 986.45 hPa
2024-02-22 15:35:21 13.96 ℃ 100 % 986.7 hPa
2024-02-22 15:25:21 14 ℃ 100 % 986.84 hPa
2024-02-22 15:15:21 13.81 ℃ 100 % 986.91 hPa
2024-02-22 15:05:21 13.61 ℃ 100 % 986.97 hPa
2024-02-22 14:55:21 13.62 ℃ 100 % 987.1 hPa
2024-02-22 14:45:21 13.7 ℃ 100 % 987.21 hPa
2024-02-22 14:35:21 13.64 ℃ 100 % 987.32 hPa
2024-02-22 14:25:21 13.85 ℃ 100 % 987.53 hPa
2024-02-22 14:15:21 14.09 ℃ 100 % 987.84 hPa
2024-02-22 14:05:21 13.87 ℃ 100 % 988.15 hPa
2024-02-22 13:55:21 14 ℃ 100 % 988.43 hPa
2024-02-22 13:45:21 13.98 ℃ 100 % 988.55 hPa
2024-02-22 13:35:21 13.6 ℃ 100 % 988.66 hPa
2024-02-22 13:25:21 13.41 ℃ 100 % 988.85 hPa
2024-02-22 13:15:21 13.52 ℃ 100 % 989.11 hPa
2024-02-22 13:05:21 13.69 ℃ 100 % 989.38 hPa
2024-02-22 12:55:21 13.26 ℃ 100 % 989.66 hPa
2024-02-22 12:45:21 13.15 ℃ 100 % 989.9 hPa
2024-02-22 12:35:21 13.13 ℃ 100 % 990.05 hPa
2024-02-22 12:25:21 13.31 ℃ 100 % 990.22 hPa
2024-02-22 12:15:22 13.6 ℃ 100 % 990.47 hPa
2024-02-22 12:05:22 13.67 ℃ 100 % 990.59 hPa
2024-02-22 11:55:22 13.76 ℃ 100 % 990.72 hPa
2024-02-22 11:45:22 13.23 ℃ 100 % 990.9 hPa
2024-02-22 11:35:22 13.08 ℃ 100 % 991.06 hPa
2024-02-22 11:25:22 13.08 ℃ 100 % 991.2 hPa
2024-02-22 11:15:22 13.15 ℃ 100 % 991.4 hPa
2024-02-22 11:05:22 12.92 ℃ 100 % 991.57 hPa
2024-02-22 10:55:22 12.59 ℃ 100 % 991.73 hPa
2024-02-22 10:45:22 12.54 ℃ 100 % 991.79 hPa
2024-02-22 10:35:22 12.3 ℃ 100 % 991.81 hPa
2024-02-22 10:25:22 12.24 ℃ 100 % 991.83 hPa
2024-02-22 10:15:22 12.23 ℃ 100 % 991.88 hPa
2024-02-22 10:05:22 12.37 ℃ 100 % 991.9 hPa
2024-02-22 09:55:22 12.01 ℃ 100 % 991.95 hPa
2024-02-22 09:45:22 11.76 ℃ 100 % 992 hPa
2024-02-22 09:35:22 11.72 ℃ 100 % 992.04 hPa
2024-02-22 09:25:22 11.72 ℃ 100 % 992.12 hPa
2024-02-22 09:15:22 11.84 ℃ 100 % 992.22 hPa
2024-02-22 09:05:22 11.78 ℃ 100 % 992.29 hPa
2024-02-22 08:55:22 11.53 ℃ 100 % 992.28 hPa
2024-02-22 08:45:22 11.34 ℃ 100 % 992.36 hPa
2024-02-22 08:35:22 11.1 ℃ 100 % 992.37 hPa
2024-02-22 08:25:22 11.09 ℃ 100 % 992.41 hPa
2024-02-22 08:15:22 11.19 ℃ 100 % 992.55 hPa
2024-02-22 08:05:22 11.19 ℃ 100 % 992.64 hPa
2024-02-22 07:55:22 10.94 ℃ 100 % 992.79 hPa
2024-02-22 07:45:22 10.97 ℃ 100 % 992.9 hPa
2024-02-22 07:35:22 10.9 ℃ 100 % 992.97 hPa
2024-02-22 07:25:22 10.95 ℃ 100 % 993.06 hPa
2024-02-22 07:15:22 11.2 ℃ 100 % 993.15 hPa
2024-02-22 07:05:22 10.93 ℃ 100 % 993.25 hPa
2024-02-22 06:55:22 10.98 ℃ 100 % 993.32 hPa
2024-02-22 06:45:22 10.84 ℃ 100 % 993.39 hPa
2024-02-22 06:35:22 10.76 ℃ 100 % 993.49 hPa
2024-02-22 06:25:22 10.61 ℃ 100 % 993.59 hPa
2024-02-22 06:15:22 10.61 ℃ 100 % 993.72 hPa
2024-02-22 06:05:22 10.75 ℃ 100 % 993.84 hPa
2024-02-22 05:55:22 10.76 ℃ 100 % 993.94 hPa
2024-02-22 05:45:22 10.61 ℃ 100 % 994.05 hPa
2024-02-22 05:35:22 10.63 ℃ 100 % 994.17 hPa
2024-02-22 05:25:22 10.57 ℃ 100 % 994.28 hPa
2024-02-22 05:15:22 10.49 ℃ 100 % 994.41 hPa
2024-02-22 05:05:22 10.35 ℃ 100 % 994.58 hPa
2024-02-22 04:55:22 10.28 ℃ 100 % 994.73 hPa
2024-02-22 04:45:22 10.21 ℃ 100 % 994.86 hPa
2024-02-22 04:35:22 10.23 ℃ 100 % 995.02 hPa
2024-02-22 04:25:22 10.46 ℃ 100 % 995.14 hPa
2024-02-22 04:15:22 10.26 ℃ 100 % 995.25 hPa
2024-02-22 04:05:22 10.18 ℃ 100 % 995.4 hPa
2024-02-22 03:55:22 10.21 ℃ 100 % 995.52 hPa
2024-02-22 03:45:22 10.29 ℃ 100 % 995.7 hPa
2024-02-22 03:35:22 10.61 ℃ 100 % 995.88 hPa
2024-02-22 03:25:22 10.45 ℃ 100 % 996.05 hPa
2024-02-22 03:15:22 10.28 ℃ 100 % 996.27 hPa
2024-02-22 03:05:22 10.22 ℃ 100 % 996.48 hPa
2024-02-22 02:55:22 10.17 ℃ 100 % 996.66 hPa
2024-02-22 02:45:22 10.34 ℃ 100 % 996.85 hPa
2024-02-22 02:35:23 10.08 ℃ 100 % 997.03 hPa
2024-02-22 02:25:22 9.88 ℃ 100 % 997.24 hPa
2024-02-22 02:15:22 9.69 ℃ 100 % 997.44 hPa
2024-02-22 02:05:22 9.74 ℃ 100 % 997.63 hPa
2024-02-22 01:55:22 9.66 ℃ 100 % 997.86 hPa
2024-02-22 01:45:22 9.8 ℃ 100 % 998.04 hPa
2024-02-22 01:35:22 9.95 ℃ 100 % 998.23 hPa
2024-02-22 01:25:22 10.05 ℃ 100 % 998.41 hPa
2024-02-22 01:15:22 9.89 ℃ 100 % 998.63 hPa
2024-02-22 01:05:22 9.94 ℃ 100 % 998.84 hPa
2024-02-22 00:55:23 9.86 ℃ 100 % 999.12 hPa
2024-02-22 00:45:22 9.93 ℃ 100 % 999.35 hPa
2024-02-22 00:35:23 10.24 ℃ 100 % 999.62 hPa
2024-02-22 00:25:23 10.19 ℃ 100 % 999.8 hPa
2024-02-22 00:15:23 10.29 ℃ 100 % 999.94 hPa
2024-02-22 00:05:23 10.23 ℃ 100 % 1000.06 hPa
2024-02-21 23:55:23 10.19 ℃ 100 % 1000.28 hPa
2024-02-21 23:45:23 10.1 ℃ 100 % 1000.49 hPa
2024-02-21 23:35:23 10.19 ℃ 100 % 1000.69 hPa
2024-02-21 23:25:23 10.22 ℃ 100 % 1000.86 hPa
2024-02-21 23:15:23 10.3 ℃ 100 % 1001.02 hPa
2024-02-21 23:05:23 10.6 ℃ 100 % 1001.19 hPa
2024-02-21 22:55:23 10.42 ℃ 100 % 1001.36 hPa
2024-02-21 22:45:23 10.41 ℃ 100 % 1001.52 hPa
2024-02-21 22:35:23 10.62 ℃ 100 % 1001.73 hPa
2024-02-21 22:25:24 10.46 ℃ 100 % 1001.97 hPa
2024-02-21 22:15:23 10.54 ℃ 100 % 1002.2 hPa
2024-02-21 22:05:23 10.8 ℃ 100 % 1002.45 hPa
2024-02-21 21:55:23 10.66 ℃ 100 % 1002.7 hPa
2024-02-21 21:45:23 10.79 ℃ 100 % 1002.89 hPa
2024-02-21 21:35:23 10.78 ℃ 100 % 1003.13 hPa
2024-02-21 21:25:23 10.57 ℃ 100 % 1003.31 hPa
2024-02-21 21:15:23 10.54 ℃ 100 % 1003.54 hPa
2024-02-21 21:05:23 10.68 ℃ 100 % 1003.78 hPa
2024-02-21 20:55:23 10.73 ℃ 100 % 1003.97 hPa
2024-02-21 20:45:23 10.84 ℃ 100 % 1004.2 hPa
2024-02-21 20:35:23 10.74 ℃ 100 % 1004.39 hPa
2024-02-21 20:25:23 10.89 ℃ 100 % 1004.6 hPa
2024-02-21 20:15:23 10.86 ℃ 100 % 1004.79 hPa
2024-02-21 20:05:23 10.65 ℃ 100 % 1004.95 hPa
2024-02-21 19:55:23 10.76 ℃ 100 % 1005.11 hPa
2024-02-21 19:45:23 10.85 ℃ 100 % 1005.31 hPa
2024-02-21 19:35:23 10.74 ℃ 100 % 1005.42 hPa
2024-02-21 19:25:23 10.68 ℃ 100 % 1005.65 hPa
2024-02-21 19:15:23 10.73 ℃ 100 % 1005.89 hPa
2024-02-21 19:05:23 10.85 ℃ 100 % 1006.09 hPa
2024-02-21 18:55:23 10.83 ℃ 100 % 1006.37 hPa
2024-02-21 18:45:23 10.89 ℃ 100 % 1006.57 hPa
2024-02-21 18:35:23 11.08 ℃ 100 % 1006.73 hPa
2024-02-21 18:25:23 11.24 ℃ 100 % 1006.85 hPa
2024-02-21 18:15:23 11.35 ℃ 100 % 1007.05 hPa
2024-02-21 18:05:23 11.3 ℃ 100 % 1007.1 hPa
2024-02-21 17:55:23 11.47 ℃ 100 % 1007.38 hPa
2024-02-21 17:45:23 11.47 ℃ 100 % 1007.68 hPa
2024-02-21 17:35:23 11.57 ℃ 100 % 1007.83 hPa
2024-02-21 17:25:23 11.98 ℃ 100 % 1008 hPa
2024-02-21 17:15:23 12.14 ℃ 100 % 1008.09 hPa
2024-02-21 17:05:23 12.03 ℃ 100 % 1008.21 hPa
2024-02-21 16:55:23 11.99 ℃ 100 % 1008.43 hPa
2024-02-21 16:45:23 11.88 ℃ 100 % 1008.63 hPa
2024-02-21 16:35:23 11.86 ℃ 100 % 1008.79 hPa
2024-02-21 16:25:23 11.63 ℃ 100 % 1008.94 hPa
2024-02-21 16:15:23 11.62 ℃ 100 % 1009.11 hPa
2024-02-21 16:05:23 11.52 ℃ 100 % 1009.25 hPa
2024-02-21 15:55:23 11.62 ℃ 100 % 1009.36 hPa
2024-02-21 15:45:23 11.79 ℃ 100 % 1009.54 hPa
2024-02-21 15:35:23 11.83 ℃ 100 % 1009.74 hPa
2024-02-21 15:25:23 11.88 ℃ 100 % 1009.94 hPa
2024-02-21 15:15:23 12.2 ℃ 100 % 1010.17 hPa
2024-02-21 15:05:23 12.42 ℃ 100 % 1010.43 hPa
2024-02-21 14:55:23 12.7 ℃ 100 % 1010.61 hPa
2024-02-21 14:45:23 12.7 ℃ 100 % 1010.79 hPa
2024-02-21 14:35:23 12.7 ℃ 100 % 1010.95 hPa
2024-02-21 14:25:24 13.08 ℃ 100 % 1011.04 hPa
2024-02-21 14:15:23 13.26 ℃ 100 % 1011.2 hPa
2024-02-21 14:05:24 13.07 ℃ 100 % 1011.33 hPa
2024-02-21 13:55:23 12.97 ℃ 100 % 1011.46 hPa
2024-02-21 13:45:24 13.26 ℃ 100 % 1011.55 hPa
2024-02-21 13:35:24 13.41 ℃ 100 % 1011.69 hPa
2024-02-21 13:25:24 13.18 ℃ 100 % 1011.83 hPa
2024-02-21 13:15:24 13.24 ℃ 100 % 1012 hPa
2024-02-21 13:05:24 13.29 ℃ 100 % 1012.18 hPa
2024-02-21 12:55:24 13.15 ℃ 100 % 1012.32 hPa
2024-02-21 12:45:24 13.18 ℃ 100 % 1012.44 hPa
2024-02-21 12:35:24 13.09 ℃ 100 % 1012.62 hPa
2024-02-21 12:25:24 12.78 ℃ 100 % 1012.79 hPa
2024-02-21 12:15:24 12.53 ℃ 100 % 1012.91 hPa
2024-02-21 12:05:24 12.16 ℃ 100 % 1013.08 hPa
2024-02-21 11:55:24 11.71 ℃ 100 % 1013.2 hPa
2024-02-21 11:45:24 11.52 ℃ 100 % 1013.27 hPa
2024-02-21 11:35:24 11.47 ℃ 100 % 1013.29 hPa
2024-02-21 11:25:24 11.31 ℃ 100 % 1013.33 hPa
2024-02-21 11:15:24 11.4 ℃ 100 % 1013.38 hPa
2024-02-21 11:05:24 10.99 ℃ 100 % 1013.45 hPa
2024-02-21 10:55:24 10.64 ℃ 100 % 1013.47 hPa
2024-02-21 10:45:24 10.45 ℃ 100 % 1013.5 hPa
2024-02-21 10:35:24 10.49 ℃ 100 % 1013.5 hPa
2024-02-21 10:25:24 10.52 ℃ 100 % 1013.5 hPa
2024-02-21 10:15:24 10.33 ℃ 100 % 1013.52 hPa
2024-02-21 10:05:24 10.22 ℃ 100 % 1013.55 hPa
2024-02-21 09:55:24 10.1 ℃ 100 % 1013.59 hPa
2024-02-21 09:45:24 10.03 ℃ 100 % 1013.65 hPa
2024-02-21 09:35:24 9.9 ℃ 100 % 1013.74 hPa
2024-02-21 09:25:24 9.91 ℃ 100 % 1013.82 hPa
2024-02-21 09:15:24 9.94 ℃ 100 % 1013.72 hPa
2024-02-21 09:05:24 9.77 ℃ 100 % 1013.69 hPa
2024-02-21 08:55:24 9.82 ℃ 100 % 1013.7 hPa
2024-02-21 08:45:24 9.69 ℃ 100 % 1013.63 hPa
2024-02-21 08:35:24 9.74 ℃ 100 % 1013.5 hPa
2024-02-21 08:25:24 9.82 ℃ 100 % 1013.47 hPa
2024-02-21 08:15:24 9.77 ℃ 100 % 1013.55 hPa
2024-02-21 08:05:24 9.82 ℃ 100 % 1013.57 hPa
2024-02-21 07:55:24 9.88 ℃ 100 % 1013.58 hPa
2024-02-21 07:45:24 9.7 ℃ 100 % 1013.61 hPa
2024-02-21 07:35:24 9.95 ℃ 100 % 1013.63 hPa
2024-02-21 07:25:24 10.17 ℃ 100 % 1013.61 hPa
2024-02-21 07:15:24 10.07 ℃ 100 % 1013.48 hPa
2024-02-21 07:05:24 10.1 ℃ 100 % 1013.46 hPa
2024-02-21 06:55:24 10.14 ℃ 100 % 1013.45 hPa
2024-02-21 06:45:25 10.21 ℃ 100 % 1013.46 hPa
2024-02-21 06:35:24 10.21 ℃ 100 % 1013.53 hPa
2024-02-21 06:25:24 10.16 ℃ 100 % 1013.5 hPa
2024-02-21 06:15:24 10.24 ℃ 100 % 1013.62 hPa
2024-02-21 06:05:24 10.29 ℃ 100 % 1013.66 hPa
2024-02-21 05:55:24 10.2 ℃ 100 % 1013.68 hPa
2024-02-21 05:45:24 10.25 ℃ 100 % 1013.7 hPa
2024-02-21 05:35:24 10.44 ℃ 100 % 1013.65 hPa
2024-02-21 05:25:24 10.32 ℃ 100 % 1013.55 hPa
2024-02-21 05:15:24 10.38 ℃ 100 % 1013.54 hPa
2024-02-21 05:05:24 10.4 ℃ 100 % 1013.5 hPa
2024-02-21 04:55:24 10.59 ℃ 100 % 1013.47 hPa
2024-02-21 04:45:24 10.52 ℃ 100 % 1013.36 hPa
2024-02-21 04:35:24 10.67 ℃ 100 % 1013.29 hPa
2024-02-21 04:25:24 10.73 ℃ 100 % 1013.4 hPa
2024-02-21 04:15:24 10.82 ℃ 100 % 1013.34 hPa
2024-02-21 04:05:24 10.81 ℃ 100 % 1013.35 hPa
2024-02-21 03:55:24 10.91 ℃ 100 % 1013.36 hPa
2024-02-21 03:45:24 10.86 ℃ 100 % 1013.43 hPa
2024-02-21 03:35:24 10.94 ℃ 100 % 1013.54 hPa
2024-02-21 03:25:24 11 ℃ 100 % 1013.64 hPa
2024-02-21 03:15:24 10.94 ℃ 100 % 1013.83 hPa
2024-02-21 03:05:25 10.9 ℃ 100 % 1013.99 hPa
2024-02-21 02:55:25 11.04 ℃ 100 % 1014.16 hPa
2024-02-21 02:45:24 11.04 ℃ 100 % 1014.46 hPa
2024-02-21 02:35:25 11.24 ℃ 100 % 1014.67 hPa
2024-02-21 02:25:25 11.21 ℃ 100 % 1014.85 hPa
2024-02-21 02:15:25 11.23 ℃ 100 % 1015.01 hPa
2024-02-21 02:05:25 11.39 ℃ 100 % 1015.14 hPa
2024-02-21 01:55:25 11.29 ℃ 100 % 1015.28 hPa
2024-02-21 01:45:25 11.08 ℃ 100 % 1015.49 hPa
2024-02-21 01:35:25 11.2 ℃ 100 % 1015.68 hPa
2024-02-21 01:25:25 11.07 ℃ 100 % 1015.87 hPa
2024-02-21 01:15:25 10.98 ℃ 100 % 1016.05 hPa
2024-02-21 01:05:25 10.94 ℃ 100 % 1016.22 hPa
2024-02-21 00:55:25 10.98 ℃ 100 % 1016.36 hPa
2024-02-21 00:45:25 10.74 ℃ 100 % 1016.56 hPa
2024-02-21 00:35:25 10.72 ℃ 100 % 1016.69 hPa
2024-02-21 00:25:25 10.79 ℃ 100 % 1016.8 hPa
2024-02-21 00:15:25 10.73 ℃ 100 % 1016.88 hPa
2024-02-21 00:05:25 10.73 ℃ 100 % 1016.95 hPa
2024-02-20 23:55:25 10.47 ℃ 100 % 1017.06 hPa
2024-02-20 23:45:25 10.55 ℃ 100 % 1017.15 hPa
2024-02-20 23:35:25 10.39 ℃ 100 % 1017.23 hPa
2024-02-20 23:25:25 10.45 ℃ 100 % 1017.33 hPa
2024-02-20 23:15:25 10.43 ℃ 100 % 1017.43 hPa
2024-02-20 23:05:25 10.43 ℃ 100 % 1017.56 hPa
2024-02-20 22:55:25 10.64 ℃ 100 % 1017.72 hPa
2024-02-20 22:45:25 10.83 ℃ 100 % 1017.85 hPa
2024-02-20 22:35:25 10.87 ℃ 100 % 1017.93 hPa
2024-02-20 22:25:25 10.98 ℃ 100 % 1018.03 hPa
2024-02-20 22:15:25 11.09 ℃ 100 % 1018.04 hPa
2024-02-20 22:05:25 10.94 ℃ 100 % 1018.1 hPa
2024-02-20 21:55:25 10.85 ℃ 100 % 1018.18 hPa
2024-02-20 21:45:25 10.75 ℃ 100 % 1018.35 hPa
2024-02-20 21:35:25 10.68 ℃ 100 % 1018.47 hPa
2024-02-20 21:25:25 10.64 ℃ 100 % 1018.55 hPa
2024-02-20 21:15:25 10.77 ℃ 100 % 1018.67 hPa
2024-02-20 21:05:25 10.6 ℃ 100 % 1018.77 hPa
2024-02-20 20:55:25 10.66 ℃ 100 % 1018.84 hPa
2024-02-20 20:45:25 10.61 ℃ 100 % 1018.92 hPa
2024-02-20 20:35:25 10.84 ℃ 100 % 1019.06 hPa
2024-02-20 20:25:25 10.86 ℃ 100 % 1019.21 hPa
2024-02-20 20:15:25 10.83 ℃ 100 % 1019.31 hPa
2024-02-20 20:05:25 10.86 ℃ 100 % 1019.32 hPa
2024-02-20 19:55:25 10.63 ℃ 100 % 1019.37 hPa
2024-02-20 19:45:25 10.86 ℃ 100 % 1019.47 hPa
2024-02-20 19:35:25 11.06 ℃ 100 % 1019.65 hPa
2024-02-20 19:25:25 11.17 ℃ 100 % 1019.82 hPa
2024-02-20 19:15:25 11.24 ℃ 100 % 1019.97 hPa
2024-02-20 19:05:25 11.13 ℃ 100 % 1020.13 hPa
2024-02-20 18:55:25 11.04 ℃ 100 % 1020.26 hPa
2024-02-20 18:45:25 11.21 ℃ 100 % 1020.4 hPa
2024-02-20 18:35:25 11.24 ℃ 100 % 1020.45 hPa
2024-02-20 18:25:25 11.26 ℃ 100 % 1020.52 hPa
2024-02-20 18:15:25 11.42 ℃ 100 % 1020.61 hPa
2024-02-20 18:05:25 11.22 ℃ 100 % 1020.69 hPa
2024-02-20 17:55:25 11.06 ℃ 100 % 1020.75 hPa
2024-02-20 17:45:25 11.03 ℃ 100 % 1020.79 hPa
2024-02-20 17:35:25 10.9 ℃ 100 % 1020.83 hPa
2024-02-20 17:25:25 11.07 ℃ 100 % 1020.89 hPa
2024-02-20 17:15:25 11.05 ℃ 100 % 1020.93 hPa
2024-02-20 17:05:25 11.15 ℃ 100 % 1021.03 hPa
2024-02-20 16:55:25 11.05 ℃ 100 % 1021.11 hPa
2024-02-20 16:45:25 11.01 ℃ 100 % 1021.2 hPa
2024-02-20 16:35:25 10.93 ℃ 100 % 1021.31 hPa
2024-02-20 16:25:25 11.06 ℃ 100 % 1021.4 hPa
2024-02-20 16:15:26 11.06 ℃ 100 % 1021.47 hPa
2024-02-20 16:05:25 10.94 ℃ 100 % 1021.59 hPa
2024-02-20 15:55:25 10.9 ℃ 100 % 1021.61 hPa
2024-02-20 15:45:26 11.01 ℃ 100 % 1021.62 hPa
2024-02-20 15:35:26 11.05 ℃ 100 % 1021.68 hPa
2024-02-20 15:25:26 11 ℃ 100 % 1021.71 hPa
2024-02-20 15:15:26 10.95 ℃ 100 % 1021.77 hPa
2024-02-20 15:05:26 10.92 ℃ 100 % 1021.82 hPa
2024-02-20 14:55:26 10.95 ℃ 100 % 1021.89 hPa
2024-02-20 14:45:26 10.92 ℃ 100 % 1021.87 hPa
2024-02-20 14:35:26 11.02 ℃ 100 % 1021.91 hPa
2024-02-20 14:25:26 11.02 ℃ 100 % 1021.91 hPa
2024-02-20 14:15:26 11.09 ℃ 100 % 1021.95 hPa
2024-02-20 14:05:26 11.26 ℃ 100 % 1022.03 hPa
2024-02-20 13:55:26 11.43 ℃ 100 % 1021.98 hPa
2024-02-20 13:45:26 11.22 ℃ 100 % 1021.95 hPa
2024-02-20 13:35:26 11.31 ℃ 100 % 1021.98 hPa
2024-02-20 13:25:26 11.39 ℃ 100 % 1022.05 hPa
2024-02-20 13:15:26 11.58 ℃ 100 % 1022.1 hPa
2024-02-20 13:05:26 11.47 ℃ 100 % 1022.21 hPa
2024-02-20 12:55:26 11.31 ℃ 100 % 1022.3 hPa
2024-02-20 12:45:26 11.38 ℃ 100 % 1022.34 hPa
2024-02-20 12:35:26 11.62 ℃ 100 % 1022.3 hPa
2024-02-20 12:25:26 11.49 ℃ 100 % 1022.36 hPa
2024-02-20 12:15:26 11.36 ℃ 100 % 1022.3 hPa
2024-02-20 12:05:26 11.31 ℃ 100 % 1022.3 hPa
2024-02-20 11:55:26 11.09 ℃ 100 % 1022.35 hPa
2024-02-20 11:45:26 11.07 ℃ 100 % 1022.37 hPa
2024-02-20 11:35:26 10.85 ℃ 100 % 1022.38 hPa
2024-02-20 11:25:26 10.98 ℃ 100 % 1022.36 hPa
2024-02-20 11:15:26 10.93 ℃ 100 % 1022.37 hPa
2024-02-20 11:05:26 10.59 ℃ 100 % 1022.4 hPa
2024-02-20 10:55:26 10.29 ℃ 100 % 1022.42 hPa
2024-02-20 10:45:26 10.03 ℃ 100 % 1022.4 hPa
2024-02-20 10:35:26 9.93 ℃ 100 % 1022.33 hPa
2024-02-20 10:25:26 9.85 ℃ 100 % 1022.31 hPa
2024-02-20 10:15:26 9.78 ℃ 100 % 1022.25 hPa
2024-02-20 10:05:27 9.77 ℃ 100 % 1022.23 hPa
2024-02-20 09:55:26 9.78 ℃ 100 % 1022.2 hPa
2024-02-20 09:45:26 9.67 ℃ 100 % 1022.18 hPa
2024-02-20 09:35:26 9.54 ℃ 100 % 1022.18 hPa
2024-02-20 09:25:26 9.47 ℃ 100 % 1022.17 hPa
2024-02-20 09:15:26 9.42 ℃ 100 % 1022.19 hPa
2024-02-20 09:05:26 9.46 ℃ 100 % 1022.2 hPa
2024-02-20 08:55:26 9.39 ℃ 100 % 1022.22 hPa
2024-02-20 08:45:26 9.17 ℃ 100 % 1022.3 hPa
2024-02-20 08:35:26 9.33 ℃ 100 % 1022.37 hPa
2024-02-20 08:25:26 9.13 ℃ 100 % 1022.34 hPa
2024-02-20 08:15:26 8.97 ℃ 100 % 1022.32 hPa
2024-02-20 08:05:26 9 ℃ 100 % 1022.26 hPa
2024-02-20 07:55:26 9.09 ℃ 100 % 1022.29 hPa
2024-02-20 07:45:26 9.2 ℃ 100 % 1022.3 hPa
2024-02-20 07:35:26 9.15 ℃ 100 % 1022.22 hPa
2024-02-20 07:25:26 9.22 ℃ 100 % 1022.13 hPa
2024-02-20 07:15:26 9.33 ℃ 100 % 1022.14 hPa
2024-02-20 07:05:26 9.25 ℃ 100 % 1022.17 hPa
2024-02-20 06:55:26 9.43 ℃ 100 % 1022.2 hPa
2024-02-20 06:45:26 9.38 ℃ 100 % 1022.24 hPa
2024-02-20 06:25:26 9.05 ℃ 100 % 1022.12 hPa
2024-02-20 06:15:26 8.82 ℃ 100 % 1022.13 hPa
2024-02-20 06:05:26 8.75 ℃ 100 % 1022.04 hPa
2024-02-20 05:55:26 8.9 ℃ 100 % 1021.94 hPa
2024-02-20 05:45:26 8.66 ℃ 100 % 1021.86 hPa
2024-02-20 05:35:26 8.83 ℃ 100 % 1021.73 hPa
2024-02-20 05:25:26 8.94 ℃ 100 % 1021.57 hPa
2024-02-20 05:15:27 8.87 ℃ 100 % 1021.48 hPa
2024-02-20 05:05:26 8.86 ℃ 100 % 1021.37 hPa
2024-02-20 04:55:27 8.96 ℃ 100 % 1021.25 hPa
2024-02-20 04:45:27 9.08 ℃ 100 % 1021.18 hPa
2024-02-20 04:35:27 8.92 ℃ 100 % 1021.07 hPa
2024-02-20 04:25:27 8.84 ℃ 100 % 1021.06 hPa
2024-02-20 04:15:27 8.79 ℃ 100 % 1021 hPa
2024-02-20 04:05:27 8.83 ℃ 100 % 1020.89 hPa
2024-02-20 03:55:27 9.12 ℃ 100 % 1020.77 hPa
2024-02-20 03:45:27 9.17 ℃ 100 % 1020.65 hPa
2024-02-20 03:35:27 9.12 ℃ 100 % 1020.5 hPa
2024-02-20 03:25:27 9.12 ℃ 100 % 1020.45 hPa
2024-02-20 03:15:27 9.05 ℃ 100 % 1020.39 hPa
2024-02-20 03:05:27 9.23 ℃ 100 % 1020.31 hPa
2024-02-20 02:55:27 9.4 ℃ 100 % 1020.28 hPa
2024-02-20 02:45:27 9.45 ℃ 100 % 1020.22 hPa
2024-02-20 02:35:27 9.37 ℃ 100 % 1020.11 hPa
2024-02-20 02:25:27 9.69 ℃ 100 % 1020.01 hPa
2024-02-20 02:15:27 9.65 ℃ 100 % 1019.96 hPa
2024-02-20 02:05:27 9.74 ℃ 100 % 1019.87 hPa
2024-02-20 01:55:27 9.59 ℃ 100 % 1019.83 hPa
2024-02-20 01:45:27 9.62 ℃ 100 % 1019.75 hPa
2024-02-20 01:35:27 9.77 ℃ 100 % 1019.66 hPa
2024-02-20 01:25:27 9.57 ℃ 100 % 1019.67 hPa
2024-02-20 01:15:27 9.7 ℃ 100 % 1019.69 hPa
2024-02-20 01:05:27 9.63 ℃ 100 % 1019.69 hPa
2024-02-20 00:55:27 9.64 ℃ 100 % 1019.65 hPa
2024-02-20 00:45:27 9.49 ℃ 100 % 1019.65 hPa
2024-02-20 00:35:27 9.58 ℃ 100 % 1019.64 hPa
2024-02-20 00:25:27 9.74 ℃ 100 % 1019.62 hPa
2024-02-20 00:15:27 9.93 ℃ 100 % 1019.63 hPa
2024-02-20 00:05:27 9.81 ℃ 100 % 1019.64 hPa
2024-02-19 23:55:27 9.72 ℃ 100 % 1019.61 hPa
2024-02-19 23:45:27 9.77 ℃ 100 % 1019.6 hPa
2024-02-19 23:35:27 9.74 ℃ 100 % 1019.51 hPa
2024-02-19 23:25:27 9.7 ℃ 100 % 1019.57 hPa
2024-02-19 23:15:27 9.68 ℃ 100 % 1019.58 hPa
2024-02-19 23:05:27 9.8 ℃ 100 % 1019.57 hPa
2024-02-19 22:55:27 9.83 ℃ 100 % 1019.59 hPa
2024-02-19 22:45:27 9.85 ℃ 100 % 1019.6 hPa
2024-02-19 22:35:27 9.93 ℃ 100 % 1019.55 hPa
2024-02-19 22:25:27 10.07 ℃ 100 % 1019.52 hPa
2024-02-19 22:15:27 10.33 ℃ 100 % 1019.47 hPa
2024-02-19 22:05:27 10.25 ℃ 100 % 1019.46 hPa
2024-02-19 21:55:27 10.27 ℃ 100 % 1019.49 hPa
2024-02-19 21:45:27 10.4 ℃ 100 % 1019.52 hPa
2024-02-19 21:35:27 10.43 ℃ 100 % 1019.51 hPa
2024-02-19 21:25:27 10.49 ℃ 100 % 1019.45 hPa
2024-02-19 21:15:28 10.59 ℃ 100 % 1019.46 hPa
2024-02-19 21:05:27 10.63 ℃ 100 % 1019.44 hPa
2024-02-19 20:55:27 10.48 ℃ 100 % 1019.44 hPa
2024-02-19 20:45:27 10.44 ℃ 100 % 1019.43 hPa
2024-02-19 20:35:27 10.96 ℃ 100 % 1019.39 hPa
2024-02-19 20:25:27 11.08 ℃ 100 % 1019.39 hPa
2024-02-19 20:15:28 11.14 ℃ 100 % 1019.39 hPa
2024-02-19 20:05:27 11.14 ℃ 100 % 1019.4 hPa
2024-02-19 19:55:27 10.92 ℃ 100 % 1019.38 hPa
2024-02-19 19:45:27 10.91 ℃ 100 % 1019.35 hPa
2024-02-19 19:35:27 10.85 ℃ 100 % 1019.36 hPa
2024-02-19 19:25:27 10.91 ℃ 100 % 1019.38 hPa
2024-02-19 19:15:27 10.75 ℃ 100 % 1019.43 hPa
2024-02-19 19:05:27 10.86 ℃ 100 % 1019.45 hPa
2024-02-19 18:55:27 11.02 ℃ 100 % 1019.47 hPa
2024-02-19 18:45:28 10.98 ℃ 100 % 1019.49 hPa
2024-02-19 18:35:28 10.97 ℃ 100 % 1019.42 hPa
2024-02-19 18:25:27 10.74 ℃ 100 % 1019.36 hPa
2024-02-19 18:15:28 10.73 ℃ 100 % 1019.28 hPa
2024-02-19 18:05:28 11.03 ℃ 100 % 1019.26 hPa
2024-02-19 17:55:28 10.65 ℃ 100 % 1019.27 hPa
2024-02-19 17:45:28 10.66 ℃ 100 % 1019.32 hPa
2024-02-19 17:35:28 10.73 ℃ 100 % 1019.32 hPa
2024-02-19 17:25:28 10.84 ℃ 100 % 1019.28 hPa
2024-02-19 17:15:28 10.91 ℃ 100 % 1019.28 hPa
2024-02-19 17:05:28 10.93 ℃ 100 % 1019.23 hPa
2024-02-19 16:55:28 10.99 ℃ 100 % 1019.16 hPa
2024-02-19 16:45:28 11.04 ℃ 100 % 1019.14 hPa
2024-02-19 16:35:28 11.33 ℃ 100 % 1019.04 hPa
2024-02-19 16:25:28 11.62 ℃ 100 % 1018.97 hPa
2024-02-19 16:15:28 11.75 ℃ 100 % 1018.92 hPa
2024-02-19 16:05:28 11.55 ℃ 100 % 1018.9 hPa
2024-02-19 15:55:28 11.81 ℃ 100 % 1018.93 hPa
2024-02-19 15:45:28 11.79 ℃ 100 % 1018.95 hPa
2024-02-19 15:35:28 11.68 ℃ 100 % 1018.98 hPa
2024-02-19 15:25:28 11.72 ℃ 100 % 1019.03 hPa
2024-02-19 15:15:28 11.57 ℃ 100 % 1019.05 hPa
2024-02-19 15:05:28 11.37 ℃ 100 % 1019.08 hPa
2024-02-19 14:55:28 10.91 ℃ 100 % 1019.12 hPa
2024-02-19 14:45:28 10.97 ℃ 100 % 1019.17 hPa
2024-02-19 14:35:28 11.1 ℃ 100 % 1019.24 hPa
2024-02-19 14:25:28 11.33 ℃ 100 % 1019.27 hPa
2024-02-19 14:15:28 11.39 ℃ 100 % 1019.3 hPa
2024-02-19 14:05:28 11.5 ℃ 100 % 1019.33 hPa
2024-02-19 13:55:28 11.75 ℃ 100 % 1019.34 hPa
2024-02-19 13:45:28 12.12 ℃ 100 % 1019.34 hPa
2024-02-19 13:35:28 11.93 ℃ 100 % 1019.39 hPa
2024-02-19 13:25:28 12.14 ℃ 100 % 1019.5 hPa
2024-02-19 13:15:28 11.87 ℃ 100 % 1019.62 hPa
2024-02-19 13:05:28 11.45 ℃ 100 % 1019.73 hPa
2024-02-19 12:55:28 11.62 ℃ 100 % 1019.86 hPa
2024-02-19 12:45:28 11.53 ℃ 100 % 1020 hPa
2024-02-19 12:35:28 11.57 ℃ 100 % 1020.05 hPa
2024-02-19 12:25:28 11.34 ℃ 100 % 1020.12 hPa
2024-02-19 12:15:28 11.05 ℃ 100 % 1020.2 hPa
2024-02-19 12:05:28 10.93 ℃ 100 % 1020.28 hPa
2024-02-19 11:55:28 10.77 ℃ 100 % 1020.27 hPa
2024-02-19 11:45:28 10.67 ℃ 100 % 1020.27 hPa
2024-02-19 11:35:29 10.66 ℃ 100 % 1020.24 hPa
2024-02-19 11:25:28 10.5 ℃ 100 % 1020.26 hPa
2024-02-19 11:15:28 10.45 ℃ 100 % 1020.28 hPa
2024-02-19 11:05:28 10.26 ℃ 100 % 1020.32 hPa
2024-02-19 10:55:28 9.93 ℃ 100 % 1020.34 hPa
2024-02-19 10:45:28 10.2 ℃ 100 % 1020.26 hPa
2024-02-19 10:35:28 10.06 ℃ 100 % 1020.23 hPa
2024-02-19 10:25:28 9.91 ℃ 100 % 1020.21 hPa
2024-02-19 10:15:28 9.93 ℃ 100 % 1020.22 hPa
2024-02-19 10:05:28 9.77 ℃ 100 % 1020.22 hPa
2024-02-19 09:55:28 9.59 ℃ 100 % 1020.21 hPa
2024-02-19 09:45:28 9.45 ℃ 100 % 1020.21 hPa
2024-02-19 09:35:28 9.29 ℃ 100 % 1020.22 hPa
2024-02-19 09:25:28 9.03 ℃ 100 % 1020.21 hPa
2024-02-19 09:15:28 9.11 ℃ 100 % 1020.15 hPa
2024-02-19 09:05:28 8.75 ℃ 100 % 1020.11 hPa
2024-02-19 08:55:28 8.76 ℃ 100 % 1020.07 hPa
2024-02-19 08:45:28 8.55 ℃ 100 % 1020.01 hPa
2024-02-19 08:35:28 8.31 ℃ 100 % 1019.97 hPa
2024-02-19 08:25:28 8.2 ℃ 100 % 1019.84 hPa
2024-02-19 08:15:28 7.97 ℃ 100 % 1019.73 hPa
2024-02-19 08:05:28 8.24 ℃ 100 % 1019.63 hPa
2024-02-19 07:55:28 8.1 ℃ 100 % 1019.52 hPa
2024-02-19 07:45:29 7.83 ℃ 100 % 1019.44 hPa
2024-02-19 07:35:28 7.89 ℃ 100 % 1019.33 hPa
2024-02-19 07:25:29 7.99 ℃ 100 % 1019.2 hPa
2024-02-19 07:15:28 7.91 ℃ 100 % 1019.1 hPa
2024-02-19 07:05:28 8 ℃ 100 % 1018.97 hPa
2024-02-19 06:55:29 7.85 ℃ 100 % 1018.88 hPa
2024-02-19 06:45:29 7.85 ℃ 100 % 1018.76 hPa
2024-02-19 06:35:29 7.79 ℃ 100 % 1018.7 hPa
2024-02-19 06:25:29 7.92 ℃ 100 % 1018.65 hPa
2024-02-19 06:15:29 8.07 ℃ 100 % 1018.62 hPa
2024-02-19 06:05:29 7.9 ℃ 100 % 1018.6 hPa
2024-02-19 05:55:29 7.81 ℃ 100 % 1018.53 hPa
2024-02-19 05:45:29 7.82 ℃ 100 % 1018.43 hPa
2024-02-19 05:35:29 7.99 ℃ 100 % 1018.3 hPa
2024-02-19 05:25:29 8.18 ℃ 100 % 1018.16 hPa
2024-02-19 05:15:29 8.23 ℃ 100 % 1017.99 hPa
2024-02-19 05:05:29 8.26 ℃ 100 % 1017.84 hPa
2024-02-19 04:55:29 8.36 ℃ 100 % 1017.7 hPa
2024-02-19 04:45:29 8.36 ℃ 100 % 1017.55 hPa
2024-02-19 04:35:29 8.3 ℃ 100 % 1017.4 hPa
2024-02-19 04:25:29 8.47 ℃ 100 % 1017.25 hPa
2024-02-19 04:15:29 8.51 ℃ 100 % 1017.11 hPa
2024-02-19 04:05:29 8.43 ℃ 100 % 1017.02 hPa
2024-02-19 03:55:29 8.45 ℃ 100 % 1016.97 hPa
2024-02-19 03:45:29 8.5 ℃ 100 % 1016.91 hPa
2024-02-19 03:35:29 8.56 ℃ 100 % 1016.86 hPa
2024-02-19 03:25:29 8.71 ℃ 100 % 1016.72 hPa
2024-02-19 03:15:29 8.6 ℃ 100 % 1016.66 hPa
2024-02-19 03:05:29 8.59 ℃ 100 % 1016.56 hPa
2024-02-19 02:55:29 8.59 ℃ 100 % 1016.45 hPa
2024-02-19 02:45:29 8.61 ℃ 100 % 1016.37 hPa
2024-02-19 02:35:29 8.86 ℃ 100 % 1016.32 hPa
2024-02-19 02:25:29 8.83 ℃ 100 % 1016.27 hPa
2024-02-19 02:15:29 9.04 ℃ 100 % 1016.21 hPa
2024-02-19 02:05:29 9.25 ℃ 100 % 1016.1 hPa
2024-02-19 01:55:29 9.55 ℃ 100 % 1016.01 hPa
2024-02-19 01:45:29 9.88 ℃ 100 % 1015.93 hPa
2024-02-19 01:35:29 10.13 ℃ 100 % 1015.86 hPa
2024-02-19 01:25:29 10.53 ℃ 100 % 1015.73 hPa
2024-02-19 01:15:29 10.66 ℃ 100 % 1015.63 hPa
2024-02-19 01:05:29 10.91 ℃ 100 % 1015.57 hPa
2024-02-19 00:55:29 10.78 ℃ 100 % 1015.55 hPa
2024-02-19 00:45:29 10.78 ℃ 100 % 1015.59 hPa
2024-02-19 00:35:30 10.8 ℃ 100 % 1015.52 hPa
2024-02-19 00:25:29 10.95 ℃ 100 % 1015.49 hPa
2024-02-19 00:15:30 11.08 ℃ 100 % 1015.42 hPa
2024-02-19 00:05:29 11.52 ℃ 100 % 1015.35 hPa
2024-02-18 23:55:29 11.84 ℃ 100 % 1015.33 hPa
2024-02-18 23:45:29 12.04 ℃ 100 % 1015.32 hPa
2024-02-18 23:35:29 12.05 ℃ 100 % 1015.35 hPa
2024-02-18 23:25:29 12.43 ℃ 100 % 1015.35 hPa
2024-02-18 23:15:29 12.89 ℃ 100 % 1015.37 hPa
2024-02-18 23:05:29 12.93 ℃ 100 % 1015.44 hPa
2024-02-18 22:55:29 13.29 ℃ 100 % 1015.46 hPa
2024-02-18 22:45:29 13.16 ℃ 100 % 1015.5 hPa
2024-02-18 22:35:29 13.03 ℃ 100 % 1015.53 hPa
2024-02-18 22:25:29 13.01 ℃ 100 % 1015.57 hPa
2024-02-18 22:15:29 13.12 ℃ 100 % 1015.62 hPa
2024-02-18 22:05:30 12.96 ℃ 100 % 1015.66 hPa
2024-02-18 21:55:29 12.95 ℃ 100 % 1015.7 hPa
2024-02-18 21:45:29 12.89 ℃ 100 % 1015.76 hPa
2024-02-18 21:35:29 12.74 ℃ 100 % 1015.8 hPa
2024-02-18 21:25:29 12.6 ℃ 100 % 1015.88 hPa
2024-02-18 21:15:29 12.48 ℃ 100 % 1015.97 hPa
2024-02-18 21:05:29 12.29 ℃ 100 % 1016.05 hPa
2024-02-18 20:55:30 12.03 ℃ 100 % 1016.17 hPa
2024-02-18 20:45:29 11.64 ℃ 100 % 1016.25 hPa
2024-02-18 20:35:30 11.46 ℃ 100 % 1016.33 hPa
2024-02-18 20:25:30 11.72 ℃ 100 % 1016.45 hPa
2024-02-18 20:15:30 11.33 ℃ 100 % 1016.59 hPa
2024-02-18 20:05:30 11.4 ℃ 100 % 1016.71 hPa
2024-02-18 19:55:30 11.38 ℃ 100 % 1016.85 hPa
2024-02-18 19:45:30 11.37 ℃ 100 % 1016.97 hPa
2024-02-18 19:35:30 11.48 ℃ 100 % 1017.07 hPa
2024-02-18 19:25:31 11.59 ℃ 100 % 1017.19 hPa
2024-02-18 19:15:30 11.46 ℃ 100 % 1017.34 hPa
2024-02-18 19:05:30 11.14 ℃ 100 % 1017.51 hPa
2024-02-18 18:55:30 11.22 ℃ 100 % 1017.67 hPa
2024-02-18 18:45:30 11.06 ℃ 100 % 1017.82 hPa
2024-02-18 18:35:30 11.12 ℃ 100 % 1017.97 hPa
2024-02-18 18:25:30 11.01 ℃ 100 % 1018.09 hPa
2024-02-18 18:15:30 10.67 ℃ 100 % 1018.2 hPa
2024-02-18 18:05:30 10.74 ℃ 100 % 1018.3 hPa
2024-02-18 17:55:30 10.94 ℃ 100 % 1018.44 hPa
2024-02-18 17:45:30 11.12 ℃ 100 % 1018.57 hPa
2024-02-18 17:35:30 11.04 ℃ 100 % 1018.73 hPa
2024-02-18 17:25:30 10.99 ℃ 100 % 1018.86 hPa
2024-02-18 17:15:30 11.09 ℃ 100 % 1018.98 hPa
2024-02-18 17:05:30 11.03 ℃ 100 % 1019.11 hPa
2024-02-18 16:55:30 11.02 ℃ 100 % 1019.26 hPa
2024-02-18 16:45:30 11.06 ℃ 100 % 1019.41 hPa
2024-02-18 16:35:30 10.93 ℃ 100 % 1019.55 hPa
2024-02-18 16:25:30 10.94 ℃ 100 % 1019.63 hPa
2024-02-18 16:15:30 11.11 ℃ 100 % 1019.75 hPa
2024-02-18 16:05:30 11.1 ℃ 100 % 1019.87 hPa
2024-02-18 15:55:30 11.19 ℃ 100 % 1020.07 hPa
2024-02-18 15:45:30 11.31 ℃ 100 % 1020.25 hPa
2024-02-18 15:35:30 11.24 ℃ 100 % 1020.45 hPa
2024-02-18 15:25:30 11.16 ℃ 100 % 1020.63 hPa
2024-02-18 15:15:30 11.11 ℃ 100 % 1020.79 hPa
2024-02-18 15:05:30 11.07 ℃ 100 % 1020.96 hPa
2024-02-18 14:55:30 11.13 ℃ 100 % 1021.18 hPa
2024-02-18 14:45:30 11.02 ℃ 100 % 1021.34 hPa
2024-02-18 14:35:30 11.05 ℃ 100 % 1021.51 hPa
2024-02-18 14:25:30 11.12 ℃ 100 % 1021.71 hPa
2024-02-18 14:15:30 11.06 ℃ 100 % 1021.89 hPa
2024-02-18 14:05:30 11.12 ℃ 100 % 1022.07 hPa
2024-02-18 13:55:30 11.17 ℃ 100 % 1022.26 hPa
2024-02-18 13:45:30 11.07 ℃ 100 % 1022.44 hPa
2024-02-18 13:35:30 10.99 ℃ 100 % 1022.69 hPa
2024-02-18 13:25:30 10.89 ℃ 100 % 1022.89 hPa
2024-02-18 13:15:30 10.79 ℃ 100 % 1023.09 hPa
2024-02-18 13:05:30 10.87 ℃ 100 % 1023.27 hPa
2024-02-18 12:55:30 10.97 ℃ 100 % 1023.46 hPa
2024-02-18 12:45:30 10.9 ℃ 100 % 1023.62 hPa
2024-02-18 12:35:30 10.91 ℃ 100 % 1023.76 hPa
2024-02-18 12:25:30 10.69 ℃ 100 % 1023.96 hPa
2024-02-18 12:15:30 10.68 ℃ 100 % 1024.14 hPa
2024-02-18 12:05:30 10.54 ℃ 100 % 1024.32 hPa
2024-02-18 11:55:30 10.41 ℃ 100 % 1024.46 hPa
2024-02-18 11:45:30 10.54 ℃ 100 % 1024.65 hPa
2024-02-18 11:35:30 10.38 ℃ 100 % 1024.86 hPa
2024-02-18 11:25:30 10.21 ℃ 100 % 1025.06 hPa
2024-02-18 11:15:30 9.98 ℃ 100 % 1025.23 hPa
2024-02-18 11:05:30 9.91 ℃ 100 % 1025.33 hPa
2024-02-18 10:55:30 9.73 ℃ 100 % 1025.43 hPa
2024-02-18 10:45:30 9.59 ℃ 100 % 1025.55 hPa
2024-02-18 10:35:30 9.12 ℃ 100 % 1025.7 hPa
2024-02-18 10:25:30 9.01 ℃ 100 % 1025.82 hPa
2024-02-18 10:15:30 8.97 ℃ 100 % 1025.9 hPa
2024-02-18 10:05:30 8.75 ℃ 100 % 1026.03 hPa
2024-02-18 09:55:30 8.61 ℃ 100 % 1026.18 hPa
2024-02-18 09:45:30 8.44 ℃ 100 % 1026.31 hPa
2024-02-18 09:35:30 8.37 ℃ 100 % 1026.4 hPa
2024-02-18 09:25:31 8.2 ℃ 100 % 1026.52 hPa
2024-02-18 09:15:30 8.18 ℃ 100 % 1026.63 hPa
2024-02-18 09:05:31 8.36 ℃ 100 % 1026.76 hPa
2024-02-18 08:55:31 8.33 ℃ 100 % 1026.84 hPa
2024-02-18 08:45:31 8.23 ℃ 100 % 1026.87 hPa
2024-02-18 08:35:31 8.09 ℃ 100 % 1026.9 hPa
2024-02-18 08:25:31 7.93 ℃ 100 % 1026.98 hPa
2024-02-18 08:15:31 7.89 ℃ 100 % 1027.1 hPa
2024-02-18 08:05:31 7.77 ℃ 100 % 1027.23 hPa
2024-02-18 07:55:31 7.69 ℃ 100 % 1027.41 hPa
2024-02-18 07:45:31 7.73 ℃ 100 % 1027.6 hPa
2024-02-18 07:35:31 7.59 ℃ 100 % 1027.8 hPa
2024-02-18 07:25:31 7.66 ℃ 100 % 1028.08 hPa
2024-02-18 07:15:31 7.63 ℃ 100 % 1028.26 hPa
2024-02-18 07:05:31 7.55 ℃ 100 % 1028.46 hPa
2024-02-18 06:55:31 7.58 ℃ 100 % 1028.63 hPa
2024-02-18 06:45:31 7.45 ℃ 100 % 1028.77 hPa
2024-02-18 06:35:31 7.19 ℃ 100 % 1028.89 hPa
2024-02-18 06:25:31 7.16 ℃ 100 % 1029.06 hPa
2024-02-18 06:15:31 7.11 ℃ 100 % 1029.21 hPa
2024-02-18 06:05:31 6.99 ℃ 100 % 1029.45 hPa
2024-02-18 05:55:31 6.93 ℃ 100 % 1029.6 hPa
2024-02-18 05:45:31 6.93 ℃ 100 % 1029.75 hPa
2024-02-18 05:35:31 6.95 ℃ 100 % 1029.87 hPa
2024-02-18 05:25:31 6.76 ℃ 100 % 1030.05 hPa
2024-02-18 05:15:31 6.8 ℃ 100 % 1030.19 hPa
2024-02-18 05:05:31 6.57 ℃ 100 % 1030.32 hPa
2024-02-18 04:55:31 6.46 ℃ 100 % 1030.43 hPa
2024-02-18 04:45:31 6.46 ℃ 100 % 1030.58 hPa
2024-02-18 04:35:31 6.58 ℃ 100 % 1030.72 hPa
2024-02-18 04:25:31 6.45 ℃ 100 % 1030.86 hPa
2024-02-18 04:15:31 6.44 ℃ 100 % 1030.97 hPa
2024-02-18 04:05:31 6.26 ℃ 100 % 1031.09 hPa
2024-02-18 03:55:31 6.42 ℃ 100 % 1031.13 hPa
2024-02-18 03:45:31 6.26 ℃ 100 % 1031.22 hPa
2024-02-18 03:35:31 6.25 ℃ 100 % 1031.45 hPa
2024-02-18 03:25:31 6.34 ℃ 100 % 1031.59 hPa
2024-02-18 03:15:31 5.93 ℃ 100 % 1031.7 hPa
2024-02-18 03:05:31 5.56 ℃ 100 % 1031.87 hPa
2024-02-18 02:55:31 5.45 ℃ 100 % 1031.99 hPa
2024-02-18 02:45:31 5.66 ℃ 100 % 1032.12 hPa
2024-02-18 02:35:31 5.61 ℃ 100 % 1032.24 hPa
2024-02-18 02:25:31 5.59 ℃ 100 % 1032.22 hPa
2024-02-18 02:15:31 5.76 ℃ 100 % 1032.34 hPa
2024-02-18 02:05:31 5.98 ℃ 100 % 1032.47 hPa
2024-02-18 01:55:31 6.02 ℃ 100 % 1032.61 hPa
2024-02-18 01:45:31 6.47 ℃ 100 % 1032.69 hPa
2024-02-18 01:35:31 6.62 ℃ 100 % 1032.84 hPa
2024-02-18 01:25:31 6.9 ℃ 100 % 1032.92 hPa
2024-02-18 01:15:31 6.67 ℃ 100 % 1032.97 hPa
2024-02-18 01:05:31 6.6 ℃ 100 % 1032.93 hPa
2024-02-18 00:55:31 6.79 ℃ 100 % 1032.95 hPa
2024-02-18 00:45:31 6.94 ℃ 100 % 1033.03 hPa
2024-02-18 00:35:31 7.12 ℃ 100 % 1033.08 hPa
2024-02-18 00:25:31 7.55 ℃ 100 % 1033.11 hPa
2024-02-18 00:15:31 7.91 ℃ 100 % 1033.18 hPa
2024-02-18 00:05:31 8.05 ℃ 100 % 1033.24 hPa
2024-02-17 23:55:31 8.43 ℃ 100 % 1033.35 hPa
2024-02-17 23:45:31 8.58 ℃ 100 % 1033.42 hPa
2024-02-17 23:35:31 8.81 ℃ 100 % 1033.48 hPa
2024-02-17 23:25:31 9.17 ℃ 100 % 1033.48 hPa
2024-02-17 23:15:31 9.62 ℃ 100 % 1033.46 hPa
2024-02-17 23:05:31 9.89 ℃ 100 % 1033.52 hPa
2024-02-17 22:55:31 9.79 ℃ 100 % 1033.51 hPa
2024-02-17 22:45:31 9.83 ℃ 100 % 1033.49 hPa
2024-02-17 22:35:32 9.73 ℃ 100 % 1033.49 hPa
2024-02-17 22:25:31 9.54 ℃ 100 % 1033.49 hPa
2024-02-17 22:15:31 9.37 ℃ 100 % 1033.54 hPa
2024-02-17 22:05:32 9.51 ℃ 100 % 1033.62 hPa
2024-02-17 21:55:32 9.66 ℃ 100 % 1033.59 hPa
2024-02-17 21:45:32 9.53 ℃ 100 % 1033.55 hPa
2024-02-17 21:35:32 9.36 ℃ 100 % 1033.48 hPa
2024-02-17 21:25:32 9.51 ℃ 100 % 1033.41 hPa
2024-02-17 21:15:32 9.94 ℃ 100 % 1033.33 hPa
2024-02-17 21:05:32 9.88 ℃ 100 % 1033.28 hPa
2024-02-17 20:55:32 9.65 ℃ 100 % 1033.21 hPa
2024-02-17 20:45:32 9.64 ℃ 100 % 1033.04 hPa
2024-02-17 20:35:32 9.63 ℃ 100 % 1032.95 hPa
2024-02-17 20:25:32 9.33 ℃ 100 % 1032.94 hPa
2024-02-17 20:15:32 8.91 ℃ 100 % 1033.05 hPa
2024-02-17 20:05:32 8.89 ℃ 100 % 1033.09 hPa
2024-02-17 19:55:32 9.12 ℃ 100 % 1033.02 hPa
2024-02-17 19:45:32 8.92 ℃ 100 % 1032.95 hPa
2024-02-17 19:35:32 9.13 ℃ 100 % 1032.76 hPa
2024-02-17 19:25:32 9.47 ℃ 100 % 1032.75 hPa
2024-02-17 19:15:32 9.43 ℃ 100 % 1032.75 hPa
2024-02-17 19:05:32 9.22 ℃ 100 % 1032.69 hPa
2024-02-17 18:55:32 9.62 ℃ 100 % 1032.55 hPa
2024-02-17 18:45:32 9.93 ℃ 100 % 1032.43 hPa
2024-02-17 18:35:32 9.78 ℃ 100 % 1032.3 hPa
2024-02-17 18:25:32 9.87 ℃ 100 % 1032.21 hPa
2024-02-17 18:15:32 10 ℃ 100 % 1032.14 hPa
2024-02-17 18:05:32 10 ℃ 100 % 1032.06 hPa
2024-02-17 17:55:32 9.52 ℃ 100 % 1032.07 hPa
2024-02-17 17:45:32 9.7 ℃ 100 % 1031.95 hPa
2024-02-17 17:35:32 9.75 ℃ 100 % 1031.8 hPa
2024-02-17 17:25:32 9.58 ℃ 100 % 1031.77 hPa
2024-02-17 17:15:32 9.53 ℃ 100 % 1031.77 hPa
2024-02-17 17:05:32 9.37 ℃ 100 % 1031.69 hPa
2024-02-17 16:55:32 9.35 ℃ 100 % 1031.69 hPa
2024-02-17 16:45:32 9.26 ℃ 100 % 1031.63 hPa
2024-02-17 16:35:32 9.52 ℃ 100 % 1031.57 hPa
2024-02-17 16:25:32 9.68 ℃ 100 % 1031.46 hPa
2024-02-17 16:15:32 10.02 ℃ 100 % 1031.37 hPa
2024-02-17 16:05:32 10.15 ℃ 100 % 1031.24 hPa
2024-02-17 15:55:32 9.76 ℃ 100 % 1031.15 hPa
2024-02-17 15:45:32 9.63 ℃ 100 % 1030.98 hPa
2024-02-17 15:35:32 9.62 ℃ 100 % 1030.84 hPa
2024-02-17 15:25:32 9.67 ℃ 100 % 1030.71 hPa
2024-02-17 15:15:32 9.52 ℃ 100 % 1030.61 hPa
2024-02-17 15:05:32 9.64 ℃ 100 % 1030.49 hPa
2024-02-17 14:55:32 9.97 ℃ 100 % 1030.35 hPa
2024-02-17 14:45:32 9.85 ℃ 100 % 1030.16 hPa
2024-02-17 14:35:32 10.16 ℃ 100 % 1030.03 hPa
2024-02-17 14:25:32 10.47 ℃ 100 % 1029.91 hPa
2024-02-17 14:15:32 10.25 ℃ 100 % 1029.78 hPa
2024-02-17 14:05:32 10.36 ℃ 100 % 1029.68 hPa
2024-02-17 13:55:32 10.21 ℃ 100 % 1029.62 hPa
2024-02-17 13:45:32 10.44 ℃ 100 % 1029.54 hPa
2024-02-17 13:35:32 9.94 ℃ 100 % 1029.54 hPa
2024-02-17 13:25:33 9.55 ℃ 100 % 1029.47 hPa
2024-02-17 13:15:32 9.34 ℃ 100 % 1029.45 hPa
2024-02-17 13:05:32 9.33 ℃ 100 % 1029.37 hPa
2024-02-17 12:55:32 9.27 ℃ 100 % 1029.29 hPa
2024-02-17 12:45:32 9.32 ℃ 100 % 1029.1 hPa
2024-02-17 12:35:32 9.61 ℃ 100 % 1028.93 hPa
2024-02-17 12:25:32 9.45 ℃ 100 % 1028.8 hPa
2024-02-17 12:15:32 9.5 ℃ 100 % 1028.68 hPa
2024-02-17 12:05:32 9.43 ℃ 100 % 1028.51 hPa
2024-02-17 11:55:33 9.33 ℃ 100 % 1028.32 hPa
2024-02-17 11:45:32 9.37 ℃ 100 % 1028.13 hPa
2024-02-17 11:35:32 9.2 ℃ 100 % 1028.03 hPa
2024-02-17 11:25:33 9.16 ℃ 100 % 1027.86 hPa
2024-02-17 11:15:32 9.01 ℃ 100 % 1027.73 hPa
2024-02-17 11:05:33 8.84 ℃ 100 % 1027.56 hPa
2024-02-17 10:55:33 8.85 ℃ 100 % 1027.44 hPa
2024-02-17 10:45:33 8.7 ℃ 100 % 1027.24 hPa
2024-02-17 10:35:33 8.67 ℃ 100 % 1027.05 hPa
2024-02-17 10:25:33 8.53 ℃ 100 % 1026.92 hPa
2024-02-17 10:15:33 8.58 ℃ 100 % 1026.73 hPa
2024-02-17 10:05:33 8.87 ℃ 100 % 1026.5 hPa
2024-02-17 09:55:33 8.78 ℃ 100 % 1026.26 hPa
2024-02-17 09:45:33 8.87 ℃ 100 % 1026.04 hPa
2024-02-17 09:35:33 8.79 ℃ 100 % 1025.77 hPa
2024-02-17 09:25:33 8.66 ℃ 100 % 1025.51 hPa
2024-02-17 09:15:33 8.74 ℃ 100 % 1025.38 hPa
2024-02-17 09:05:33 8.73 ℃ 100 % 1025.2 hPa
2024-02-17 08:55:33 8.79 ℃ 100 % 1024.94 hPa
2024-02-17 08:45:33 8.42 ℃ 100 % 1024.68 hPa
2024-02-17 08:35:33 8.42 ℃ 100 % 1024.43 hPa
2024-02-17 08:25:33 8.24 ℃ 100 % 1024.19 hPa
2024-02-17 08:15:33 8.37 ℃ 100 % 1023.99 hPa
2024-02-17 08:05:33 8.71 ℃ 100 % 1023.79 hPa
2024-02-17 07:55:33 8.48 ℃ 100 % 1023.63 hPa
2024-02-17 07:45:33 8.49 ℃ 100 % 1023.45 hPa
2024-02-17 07:35:33 8.53 ℃ 100 % 1023.3 hPa
2024-02-17 07:25:33 8.46 ℃ 100 % 1023.14 hPa
2024-02-17 07:15:33 8.77 ℃ 100 % 1022.96 hPa
2024-02-17 07:05:33 8.78 ℃ 100 % 1022.81 hPa
2024-02-17 06:55:33 8.81 ℃ 100 % 1022.67 hPa
2024-02-17 06:45:33 8.72 ℃ 100 % 1022.52 hPa
2024-02-17 06:35:33 8.69 ℃ 100 % 1022.4 hPa
2024-02-17 06:25:33 8.74 ℃ 100 % 1022.18 hPa
2024-02-17 06:15:33 8.7 ℃ 100 % 1022.01 hPa
2024-02-17 06:05:33 8.51 ℃ 100 % 1021.82 hPa
2024-02-17 05:55:33 8.54 ℃ 100 % 1021.65 hPa
2024-02-17 05:45:33 8.5 ℃ 100 % 1021.5 hPa
2024-02-17 05:35:33 8.63 ℃ 100 % 1021.28 hPa
2024-02-17 05:25:33 8.8 ℃ 100 % 1021.12 hPa
2024-02-17 05:15:33 8.87 ℃ 100 % 1020.96 hPa
2024-02-17 05:05:33 8.71 ℃ 100 % 1020.76 hPa
2024-02-17 04:55:33 8.68 ℃ 100 % 1020.61 hPa
2024-02-17 04:45:33 8.53 ℃ 100 % 1020.47 hPa
2024-02-17 04:35:33 8.48 ℃ 100 % 1020.36 hPa
2024-02-17 04:25:33 8.75 ℃ 100 % 1020.19 hPa
2024-02-17 04:15:33 8.71 ℃ 100 % 1020.04 hPa
2024-02-17 04:05:33 8.84 ℃ 100 % 1019.94 hPa
2024-02-17 03:55:33 8.78 ℃ 100 % 1019.84 hPa
2024-02-17 03:45:33 8.62 ℃ 100 % 1019.68 hPa
2024-02-17 03:35:33 8.61 ℃ 100 % 1019.62 hPa
2024-02-17 03:25:33 8.78 ℃ 100 % 1019.6 hPa
2024-02-17 03:15:33 8.79 ℃ 100 % 1019.49 hPa
2024-02-17 03:05:33 8.77 ℃ 100 % 1019.4 hPa
2024-02-17 02:55:33 8.74 ℃ 100 % 1019.3 hPa
2024-02-17 02:45:33 8.71 ℃ 100 % 1019.23 hPa
2024-02-17 02:35:33 8.7 ℃ 100 % 1019.13 hPa
2024-02-17 02:25:33 8.98 ℃ 100 % 1018.98 hPa
2024-02-17 02:15:33 9.1 ℃ 100 % 1018.93 hPa
2024-02-17 02:05:33 9.03 ℃ 100 % 1018.84 hPa
2024-02-17 01:55:33 9.01 ℃ 100 % 1018.77 hPa
2024-02-17 01:45:33 8.95 ℃ 100 % 1018.7 hPa
2024-02-17 01:35:33 8.96 ℃ 100 % 1018.61 hPa
2024-02-17 01:25:33 9.15 ℃ 100 % 1018.53 hPa
2024-02-17 01:15:33 9.28 ℃ 100 % 1018.45 hPa
2024-02-17 01:05:33 9.36 ℃ 100 % 1018.37 hPa
2024-02-17 00:55:33 9.47 ℃ 100 % 1018.2 hPa
2024-02-17 00:45:33 9.6 ℃ 100 % 1018.09 hPa
2024-02-17 00:35:34 9.86 ℃ 100 % 1017.91 hPa
2024-02-17 00:25:33 9.97 ℃ 100 % 1017.77 hPa
2024-02-17 00:15:33 10.15 ℃ 100 % 1017.57 hPa
2024-02-17 00:05:34 9.83 ℃ 100 % 1017.49 hPa
2024-02-16 23:55:34 9.91 ℃ 100 % 1017.32 hPa
2024-02-16 23:45:34 10.02 ℃ 100 % 1017.21 hPa
2024-02-16 23:35:34 10.13 ℃ 100 % 1017.07 hPa
2024-02-16 23:25:34 10.17 ℃ 100 % 1016.95 hPa
2024-02-16 23:15:34 10.18 ℃ 100 % 1016.88 hPa
2024-02-16 23:05:34 10.39 ℃ 100 % 1016.76 hPa
2024-02-16 22:55:34 10.47 ℃ 100 % 1016.59 hPa
2024-02-16 22:45:34 10.45 ℃ 100 % 1016.47 hPa
2024-02-16 22:35:34 10.41 ℃ 100 % 1016.37 hPa
2024-02-16 22:25:34 10.46 ℃ 100 % 1016.3 hPa
2024-02-16 22:15:34 10.46 ℃ 100 % 1016.21 hPa
2024-02-16 22:05:34 10.14 ℃ 100 % 1016.16 hPa
2024-02-16 21:55:34 10.13 ℃ 100 % 1016.07 hPa
2024-02-16 21:45:34 10.3 ℃ 100 % 1015.93 hPa
2024-02-16 21:35:34 10.42 ℃ 100 % 1015.76 hPa
2024-02-16 21:25:34 10.61 ℃ 100 % 1015.53 hPa
2024-02-16 21:15:34 11 ℃ 100 % 1015.35 hPa
2024-02-16 21:05:34 10.82 ℃ 100 % 1015.2 hPa
2024-02-16 20:55:34 10.97 ℃ 100 % 1015.02 hPa
2024-02-16 20:45:34 10.8 ℃ 100 % 1014.9 hPa
2024-02-16 20:35:34 10.86 ℃ 100 % 1014.79 hPa
2024-02-16 20:25:34 10.94 ℃ 100 % 1014.65 hPa
2024-02-16 20:15:34 11.17 ℃ 100 % 1014.49 hPa
2024-02-16 20:05:34 11.21 ℃ 100 % 1014.32 hPa
2024-02-16 19:55:34 11.31 ℃ 100 % 1014.19 hPa
2024-02-16 19:45:34 11.55 ℃ 100 % 1013.99 hPa
2024-02-16 19:35:34 11.66 ℃ 100 % 1013.81 hPa
2024-02-16 19:25:34 11.55 ℃ 100 % 1013.68 hPa
2024-02-16 19:15:34 11.67 ℃ 100 % 1013.51 hPa
2024-02-16 19:05:34 11.84 ℃ 100 % 1013.32 hPa
2024-02-16 18:55:34 11.82 ℃ 100 % 1013.16 hPa
2024-02-16 18:45:34 11.95 ℃ 100 % 1012.96 hPa
2024-02-16 18:35:34 11.96 ℃ 100 % 1012.81 hPa
2024-02-16 18:25:34 11.94 ℃ 100 % 1012.61 hPa
2024-02-16 18:15:34 12.14 ℃ 100 % 1012.36 hPa
2024-02-16 18:05:34 12.11 ℃ 100 % 1012.08 hPa
2024-02-16 17:55:34 12.11 ℃ 100 % 1011.89 hPa
2024-02-16 17:45:34 12.25 ℃ 100 % 1011.71 hPa
2024-02-16 17:35:34 12.26 ℃ 100 % 1011.39 hPa
2024-02-16 17:25:34 12.33 ℃ 100 % 1011.16 hPa
2024-02-16 17:15:34 12.39 ℃ 100 % 1010.98 hPa
2024-02-16 17:05:34 12.74 ℃ 100 % 1010.74 hPa
2024-02-16 16:55:34 13.01 ℃ 100 % 1010.52 hPa
2024-02-16 16:45:34 13.45 ℃ 100 % 1010.19 hPa
2024-02-16 16:35:34 13.68 ℃ 100 % 1009.96 hPa
2024-02-16 16:25:34 13.95 ℃ 100 % 1009.83 hPa
2024-02-16 16:15:34 14.41 ℃ 100 % 1009.6 hPa
2024-02-16 16:05:34 14.78 ℃ 100 % 1009.42 hPa
2024-02-16 15:55:34 15.25 ℃ 100 % 1009.21 hPa
2024-02-16 15:45:34 15.52 ℃ 100 % 1009.05 hPa
2024-02-16 15:35:34 15.87 ℃ 100 % 1008.91 hPa
2024-02-16 15:25:34 16.29 ℃ 100 % 1008.83 hPa
2024-02-16 15:15:35 16.39 ℃ 100 % 1008.74 hPa
2024-02-16 15:05:34 16.55 ℃ 100 % 1008.64 hPa
2024-02-16 14:55:34 16.51 ℃ 100 % 1008.56 hPa
2024-02-16 14:45:34 16.42 ℃ 100 % 1008.59 hPa
2024-02-16 14:35:34 16.55 ℃ 100 % 1008.55 hPa
2024-02-16 14:25:34 16.68 ℃ 100 % 1008.54 hPa
2024-02-16 14:15:34 16.72 ℃ 100 % 1008.56 hPa
2024-02-16 14:05:34 16.53 ℃ 100 % 1008.54 hPa
2024-02-16 13:55:34 16.42 ℃ 100 % 1008.51 hPa
2024-02-16 13:45:35 16.34 ℃ 100 % 1008.46 hPa
2024-02-16 13:35:35 16.21 ℃ 100 % 1008.5 hPa
2024-02-16 13:25:35 16.37 ℃ 100 % 1008.53 hPa
2024-02-16 13:15:35 16.24 ℃ 100 % 1008.64 hPa
2024-02-16 13:05:35 16.21 ℃ 100 % 1008.68 hPa
2024-02-16 12:55:35 16.3 ℃ 100 % 1008.61 hPa
2024-02-16 12:45:35 16.22 ℃ 100 % 1008.61 hPa
2024-02-16 12:35:35 16.07 ℃ 100 % 1008.63 hPa
2024-02-16 12:25:35 15.66 ℃ 100 % 1008.75 hPa
2024-02-16 12:15:35 15.45 ℃ 100 % 1008.82 hPa
2024-02-16 12:05:35 15.66 ℃ 100 % 1008.85 hPa
2024-02-16 11:55:35 15.68 ℃ 100 % 1008.84 hPa
2024-02-16 11:45:35 15.8 ℃ 100 % 1008.8 hPa
2024-02-16 11:35:35 15.61 ℃ 100 % 1008.74 hPa
2024-02-16 11:25:35 15.61 ℃ 100 % 1008.67 hPa
2024-02-16 11:15:35 15.45 ℃ 100 % 1008.68 hPa
2024-02-16 11:05:35 15.22 ℃ 100 % 1008.68 hPa
2024-02-16 10:55:35 15.09 ℃ 100 % 1008.66 hPa
2024-02-16 10:45:35 15.06 ℃ 100 % 1008.57 hPa
2024-02-16 10:35:35 14.85 ℃ 100 % 1008.53 hPa
2024-02-16 10:25:35 14.93 ℃ 100 % 1008.53 hPa
2024-02-16 10:15:35 14.74 ℃ 100 % 1008.66 hPa
2024-02-16 10:05:35 14.55 ℃ 100 % 1008.79 hPa
2024-02-16 09:55:35 14.55 ℃ 100 % 1008.76 hPa
2024-02-16 09:45:35 14.21 ℃ 100 % 1008.8 hPa
2024-02-16 09:35:35 14.24 ℃ 100 % 1008.78 hPa
2024-02-16 09:25:35 13.9 ℃ 100 % 1008.84 hPa
2024-02-16 09:15:35 13.62 ℃ 100 % 1008.93 hPa
2024-02-16 09:05:35 13.79 ℃ 100 % 1008.94 hPa
2024-02-16 08:55:35 13.75 ℃ 100 % 1008.95 hPa
2024-02-16 08:45:35 13.67 ℃ 100 % 1008.96 hPa
2024-02-16 08:35:35 13.23 ℃ 100 % 1008.95 hPa
2024-02-16 08:25:35 13.13 ℃ 100 % 1009 hPa
2024-02-16 08:15:35 13.07 ℃ 100 % 1008.99 hPa
2024-02-16 08:05:35 13.16 ℃ 100 % 1009.1 hPa
2024-02-16 07:55:35 12.98 ℃ 100 % 1009.1 hPa
2024-02-16 07:45:35 12.98 ℃ 100 % 1009.06 hPa
2024-02-16 07:35:35 13.01 ℃ 100 % 1009.08 hPa
2024-02-16 07:25:35 13.07 ℃ 100 % 1009.1 hPa
2024-02-16 07:15:35 13.19 ℃ 100 % 1009.1 hPa
2024-02-16 07:05:35 13.42 ℃ 100 % 1009.08 hPa
2024-02-16 06:55:35 13.21 ℃ 100 % 1009.11 hPa
2024-02-16 06:45:35 13.18 ℃ 100 % 1009.2 hPa
2024-02-16 06:35:35 13.3 ℃ 100 % 1009.22 hPa
2024-02-16 06:25:35 13.27 ℃ 100 % 1009.26 hPa
2024-02-16 06:15:35 13.35 ℃ 100 % 1009.33 hPa
2024-02-16 06:05:35 13.56 ℃ 100 % 1009.46 hPa
2024-02-16 05:55:35 13.51 ℃ 100 % 1009.5 hPa
2024-02-16 05:45:35 13.76 ℃ 100 % 1009.53 hPa
2024-02-16 05:35:35 13.75 ℃ 100 % 1009.56 hPa
2024-02-16 05:25:35 14.04 ℃ 100 % 1009.63 hPa
2024-02-16 05:15:35 14.24 ℃ 100 % 1009.73 hPa
2024-02-16 05:05:35 14.01 ℃ 100 % 1009.75 hPa
2024-02-16 04:55:35 13.85 ℃ 100 % 1009.78 hPa
2024-02-16 04:45:35 13.57 ℃ 100 % 1009.83 hPa
2024-02-16 04:35:35 13.53 ℃ 100 % 1009.89 hPa
2024-02-16 04:25:35 13.29 ℃ 100 % 1009.95 hPa
2024-02-16 04:15:35 13.37 ℃ 100 % 1009.98 hPa
2024-02-16 04:05:35 13.45 ℃ 100 % 1010.09 hPa
2024-02-16 03:55:35 13.4 ℃ 100 % 1010.24 hPa
2024-02-16 03:45:35 13.36 ℃ 100 % 1010.43 hPa
2024-02-16 03:35:36 13.47 ℃ 100 % 1010.63 hPa
2024-02-16 03:25:35 13.48 ℃ 100 % 1010.72 hPa
2024-02-16 03:15:35 13.64 ℃ 100 % 1010.9 hPa
2024-02-16 03:05:35 13.46 ℃ 100 % 1011.12 hPa
2024-02-16 02:55:36 13.51 ℃ 100 % 1011.21 hPa
2024-02-16 02:45:35 13.59 ℃ 100 % 1011.32 hPa
2024-02-16 02:35:35 13.67 ℃ 100 % 1011.42 hPa
2024-02-16 02:25:35 13.7 ℃ 100 % 1011.52 hPa
2024-02-16 02:15:35 13.84 ℃ 100 % 1011.56 hPa
2024-02-16 02:05:36 14.11 ℃ 100 % 1011.61 hPa
2024-02-16 01:55:36 14.04 ℃ 100 % 1011.68 hPa
2024-02-16 01:45:36 14.1 ℃ 100 % 1011.74 hPa
2024-02-16 01:35:36 14.26 ℃ 100 % 1011.87 hPa
2024-02-16 01:25:36 14.43 ℃ 100 % 1012 hPa
2024-02-16 01:15:36 14.53 ℃ 100 % 1012.09 hPa
2024-02-16 01:05:36 14.6 ℃ 100 % 1012.17 hPa
2024-02-16 00:55:36 14.91 ℃ 100 % 1012.14 hPa
2024-02-16 00:45:36 15.11 ℃ 100 % 1012.16 hPa
2024-02-16 00:35:36 15.01 ℃ 100 % 1012.22 hPa
2024-02-16 00:25:36 15.14 ℃ 100 % 1012.34 hPa
2024-02-16 00:15:36 15.3 ℃ 100 % 1012.4 hPa
2024-02-16 00:05:36 15.05 ℃ 100 % 1012.45 hPa
2024-02-15 23:55:36 14.97 ℃ 100 % 1012.48 hPa
2024-02-15 23:45:36 15.12 ℃ 100 % 1012.53 hPa
2024-02-15 23:35:36 14.96 ℃ 100 % 1012.62 hPa
2024-02-15 23:25:36 14.82 ℃ 100 % 1012.7 hPa
2024-02-15 23:15:36 14.94 ℃ 100 % 1012.84 hPa
2024-02-15 23:05:36 14.98 ℃ 100 % 1012.93 hPa
2024-02-15 22:55:36 15.25 ℃ 100 % 1012.96 hPa
2024-02-15 22:45:36 15.02 ℃ 100 % 1013.03 hPa
2024-02-15 22:35:36 14.95 ℃ 100 % 1013.06 hPa
2024-02-15 22:25:36 15.07 ℃ 100 % 1013.11 hPa
2024-02-15 22:15:36 15.12 ℃ 100 % 1013.14 hPa
2024-02-15 22:05:36 15.37 ℃ 100 % 1013.16 hPa
2024-02-15 21:55:36 15.4 ℃ 100 % 1013.12 hPa
2024-02-15 21:45:36 15.46 ℃ 100 % 1013.09 hPa
2024-02-15 21:35:36 15.31 ℃ 100 % 1013.11 hPa
2024-02-15 21:25:36 15.41 ℃ 100 % 1013.16 hPa
2024-02-15 21:15:36 15.35 ℃ 100 % 1013.19 hPa
2024-02-15 21:05:36 15.2 ℃ 100 % 1013.16 hPa
2024-02-15 20:55:36 15.16 ℃ 100 % 1013.15 hPa
2024-02-15 20:45:36 15.31 ℃ 100 % 1013.14 hPa
2024-02-15 20:35:36 15.24 ℃ 100 % 1013.15 hPa
2024-02-15 20:25:36 15.22 ℃ 100 % 1013.25 hPa
2024-02-15 20:15:36 15.21 ℃ 100 % 1013.31 hPa
2024-02-15 20:05:36 15.25 ℃ 100 % 1013.37 hPa
2024-02-15 19:55:36 15.01 ℃ 100 % 1013.43 hPa
2024-02-15 19:45:36 15.07 ℃ 100 % 1013.4 hPa
2024-02-15 19:35:36 15.36 ℃ 100 % 1013.4 hPa
2024-02-15 19:25:36 15.35 ℃ 100 % 1013.46 hPa
2024-02-15 19:15:36 15.53 ℃ 100 % 1013.49 hPa
2024-02-15 19:05:36 15.55 ℃ 100 % 1013.48 hPa
2024-02-15 18:55:36 15.81 ℃ 100 % 1013.45 hPa
2024-02-15 18:45:36 15.78 ℃ 100 % 1013.46 hPa
2024-02-15 18:35:36 15.67 ℃ 100 % 1013.47 hPa
2024-02-15 18:25:36 15.53 ℃ 100 % 1013.47 hPa
2024-02-15 18:15:36 15.38 ℃ 100 % 1013.46 hPa
2024-02-15 18:05:36 15.55 ℃ 100 % 1013.48 hPa
2024-02-15 17:55:36 15.47 ℃ 100 % 1013.48 hPa
2024-02-15 17:45:36 15.64 ℃ 100 % 1013.42 hPa
2024-02-15 17:35:36 15.48 ℃ 100 % 1013.43 hPa
2024-02-15 17:25:36 15.57 ℃ 100 % 1013.38 hPa
2024-02-15 17:15:36 15.39 ℃ 100 % 1013.39 hPa
2024-02-15 17:05:36 15.58 ℃ 100 % 1013.38 hPa
2024-02-15 16:55:36 15.43 ℃ 100 % 1013.41 hPa
2024-02-15 16:45:36 15.39 ℃ 100 % 1013.38 hPa
2024-02-15 16:35:36 15.58 ℃ 100 % 1013.32 hPa
2024-02-15 16:25:36 15.79 ℃ 100 % 1013.37 hPa
2024-02-15 16:15:36 15.88 ℃ 100 % 1013.45 hPa
2024-02-15 16:05:36 15.62 ℃ 100 % 1013.43 hPa
2024-02-15 15:55:36 15.44 ℃ 100 % 1013.49 hPa
2024-02-15 15:45:36 15.63 ℃ 100 % 1013.51 hPa
2024-02-15 15:35:36 15.49 ℃ 100 % 1013.55 hPa
2024-02-15 15:25:36 15.4 ℃ 100 % 1013.58 hPa
2024-02-15 15:15:37 15.43 ℃ 100 % 1013.58 hPa
2024-02-15 15:05:36 15.5 ℃ 100 % 1013.6 hPa
2024-02-15 14:55:36 15.71 ℃ 100 % 1013.61 hPa
2024-02-15 14:45:36 15.74 ℃ 100 % 1013.67 hPa
2024-02-15 14:35:36 15.73 ℃ 100 % 1013.77 hPa
2024-02-15 14:25:37 15.9 ℃ 100 % 1013.84 hPa
2024-02-15 14:15:37 15.92 ℃ 100 % 1013.9 hPa
2024-02-15 14:05:37 15.83 ℃ 100 % 1013.97 hPa
2024-02-15 13:55:37 15.61 ℃ 100 % 1014.06 hPa
2024-02-15 13:45:39 15.57 ℃ 100 % 1014.14 hPa
2024-02-15 13:35:37 15.64 ℃ 100 % 1014.16 hPa
2024-02-15 13:25:37 15.44 ℃ 100 % 1014.23 hPa
2024-02-15 13:15:37 15.2 ℃ 100 % 1014.29 hPa
2024-02-15 13:05:37 15.22 ℃ 100 % 1014.34 hPa
2024-02-15 12:55:37 15.28 ℃ 100 % 1014.39 hPa
2024-02-15 12:45:37 15.14 ℃ 100 % 1014.42 hPa
2024-02-15 12:35:37 15.33 ℃ 100 % 1014.5 hPa
2024-02-15 12:25:37 15.48 ℃ 100 % 1014.59 hPa
2024-02-15 12:15:37 15.44 ℃ 100 % 1014.61 hPa
2024-02-15 12:05:37 15.38 ℃ 100 % 1014.64 hPa
2024-02-15 11:55:37 15.39 ℃ 100 % 1014.67 hPa
2024-02-15 11:45:37 15.11 ℃ 100 % 1014.72 hPa
2024-02-15 11:35:37 14.89 ℃ 100 % 1014.78 hPa
2024-02-15 11:25:37 14.97 ℃ 100 % 1014.78 hPa
2024-02-15 11:15:37 14.87 ℃ 100 % 1014.76 hPa
2024-02-15 11:05:37 14.72 ℃ 100 % 1014.78 hPa
2024-02-15 10:55:37 14.79 ℃ 100 % 1014.75 hPa
2024-02-15 10:45:37 14.9 ℃ 100 % 1014.72 hPa
2024-02-15 10:35:37 14.85 ℃ 100 % 1014.67 hPa
2024-02-15 10:25:37 14.54 ℃ 100 % 1014.67 hPa
2024-02-15 10:15:37 14.4 ℃ 100 % 1014.69 hPa
2024-02-15 10:05:37 14.31 ℃ 100 % 1014.67 hPa
2024-02-15 09:55:37 14.54 ℃ 100 % 1014.71 hPa
2024-02-15 09:45:37 14.56 ℃ 100 % 1014.71 hPa
2024-02-15 09:35:37 14.42 ℃ 100 % 1014.77 hPa
2024-02-15 09:25:37 14.21 ℃ 100 % 1014.79 hPa
2024-02-15 09:15:37 14.13 ℃ 100 % 1014.81 hPa
2024-02-15 09:05:37 14.29 ℃ 100 % 1014.76 hPa
2024-02-15 08:55:37 14.28 ℃ 100 % 1014.72 hPa
2024-02-15 08:45:37 14.22 ℃ 100 % 1014.68 hPa
2024-02-15 08:35:37 14.07 ℃ 100 % 1014.65 hPa
2024-02-15 08:25:37 14.01 ℃ 100 % 1014.61 hPa
2024-02-15 08:15:37 13.68 ℃ 100 % 1014.62 hPa
2024-02-15 08:05:37 13.77 ℃ 100 % 1014.53 hPa
2024-02-15 07:55:37 13.7 ℃ 100 % 1014.5 hPa
2024-02-15 07:45:37 13.89 ℃ 100 % 1014.44 hPa
2024-02-15 07:35:37 14.04 ℃ 100 % 1014.36 hPa
2024-02-15 07:25:37 14.09 ℃ 100 % 1014.33 hPa
2024-02-15 07:15:37 13.89 ℃ 100 % 1014.31 hPa
2024-02-15 07:05:37 13.91 ℃ 100 % 1014.29 hPa
2024-02-15 06:55:37 13.79 ℃ 100 % 1014.29 hPa
2024-02-15 06:45:37 13.84 ℃ 100 % 1014.32 hPa
2024-02-15 06:35:37 13.96 ℃ 100 % 1014.28 hPa
2024-02-15 06:25:37 14.03 ℃ 100 % 1014.26 hPa
2024-02-15 06:15:37 14.31 ℃ 100 % 1014.2 hPa
2024-02-15 06:05:37 14.12 ℃ 100 % 1014.16 hPa
2024-02-15 05:55:37 13.94 ℃ 100 % 1014.2 hPa
2024-02-15 05:45:37 13.96 ℃ 100 % 1014.18 hPa
2024-02-15 05:35:37 13.89 ℃ 100 % 1014.21 hPa
2024-02-15 05:25:37 13.88 ℃ 100 % 1014.16 hPa
2024-02-15 05:15:37 13.94 ℃ 100 % 1014.15 hPa
2024-02-15 05:05:37 13.97 ℃ 100 % 1014.15 hPa
2024-02-15 04:55:37 13.93 ℃ 100 % 1014.15 hPa
2024-02-15 04:45:37 14.1 ℃ 100 % 1014.08 hPa
2024-02-15 04:35:37 14.12 ℃ 100 % 1013.99 hPa
2024-02-15 04:25:37 14.09 ℃ 100 % 1013.94 hPa
2024-02-15 04:15:37 14.51 ℃ 100 % 1013.9 hPa
2024-02-15 04:05:37 14.31 ℃ 100 % 1013.95 hPa
2024-02-15 03:55:37 14.02 ℃ 100 % 1014 hPa
2024-02-15 03:45:37 13.94 ℃ 100 % 1014.04 hPa
2024-02-15 03:35:38 13.8 ℃ 100 % 1014.06 hPa
2024-02-15 03:25:37 13.93 ℃ 100 % 1014.06 hPa
2024-02-15 03:15:37 14.07 ℃ 100 % 1014.06 hPa
2024-02-15 03:05:38 14.14 ℃ 100 % 1014.07 hPa
2024-02-15 02:55:38 13.87 ℃ 100 % 1014.09 hPa
2024-02-15 02:45:38 14.21 ℃ 100 % 1014.05 hPa
2024-02-15 02:35:38 14.14 ℃ 100 % 1014.06 hPa
2024-02-15 02:25:38 14.05 ℃ 100 % 1014.08 hPa
2024-02-15 02:15:38 14.08 ℃ 100 % 1014.03 hPa
2024-02-15 02:05:38 14.13 ℃ 100 % 1013.95 hPa
2024-02-15 01:55:38 13.98 ℃ 100 % 1013.96 hPa
2024-02-15 01:45:38 13.87 ℃ 100 % 1013.95 hPa
2024-02-15 01:35:38 13.78 ℃ 100 % 1014.03 hPa
2024-02-15 01:25:38 14.01 ℃ 100 % 1014.05 hPa
2024-02-15 01:15:38 14.17 ℃ 100 % 1014.04 hPa
2024-02-15 01:05:38 14.3 ℃ 100 % 1013.98 hPa
2024-02-15 00:55:38 14.23 ℃ 100 % 1013.95 hPa
2024-02-15 00:45:38 14.19 ℃ 100 % 1014.01 hPa
2024-02-15 00:35:38 14.1 ℃ 100 % 1014.05 hPa
2024-02-15 00:25:38 14.07 ℃ 100 % 1014.06 hPa
2024-02-15 00:15:38 14.07 ℃ 100 % 1014.03 hPa
2024-02-15 00:05:38 13.98 ℃ 100 % 1014 hPa
2024-02-14 23:55:38 14.01 ℃ 100 % 1013.99 hPa
2024-02-14 23:45:38 13.76 ℃ 100 % 1014.01 hPa
2024-02-14 23:35:38 13.52 ℃ 100 % 1013.96 hPa
2024-02-14 23:25:38 13.53 ℃ 100 % 1013.95 hPa
2024-02-14 23:15:38 13.57 ℃ 100 % 1013.96 hPa
2024-02-14 23:05:38 13.66 ℃ 100 % 1014 hPa
2024-02-14 22:55:38 13.66 ℃ 100 % 1014.03 hPa
2024-02-14 22:45:38 13.91 ℃ 100 % 1013.97 hPa
2024-02-14 22:35:38 13.56 ℃ 100 % 1014.01 hPa
2024-02-14 22:25:38 13.68 ℃ 100 % 1013.95 hPa
2024-02-14 22:15:38 13.74 ℃ 100 % 1013.86 hPa
2024-02-14 22:05:38 13.26 ℃ 100 % 1013.9 hPa
2024-02-14 21:55:38 13.34 ℃ 100 % 1013.83 hPa
2024-02-14 21:45:38 13.62 ℃ 100 % 1013.8 hPa
2024-02-14 21:35:38 13.55 ℃ 100 % 1013.82 hPa
2024-02-14 21:25:38 13.43 ℃ 100 % 1013.77 hPa
2024-02-14 21:15:38 13.59 ℃ 100 % 1013.69 hPa
2024-02-14 21:05:38 13.79 ℃ 100 % 1013.64 hPa
2024-02-14 20:55:38 13.9 ℃ 100 % 1013.59 hPa
2024-02-14 20:45:38 14.11 ℃ 100 % 1013.51 hPa
2024-02-14 20:35:38 13.71 ℃ 100 % 1013.53 hPa
2024-02-14 20:25:38 13.89 ℃ 100 % 1013.53 hPa
2024-02-14 20:15:38 13.9 ℃ 100 % 1013.56 hPa
2024-02-14 20:05:38 14.26 ℃ 100 % 1013.53 hPa
2024-02-14 19:55:38 14.51 ℃ 100 % 1013.5 hPa
2024-02-14 19:45:38 14.33 ℃ 100 % 1013.5 hPa
2024-02-14 19:35:38 14.19 ℃ 100 % 1013.51 hPa
2024-02-14 19:25:38 14.1 ℃ 100 % 1013.53 hPa
2024-02-14 19:15:38 14.14 ℃ 100 % 1013.53 hPa
2024-02-14 19:05:38 14.03 ℃ 100 % 1013.54 hPa
2024-02-14 18:55:38 14.65 ℃ 100 % 1013.51 hPa
2024-02-14 18:45:38 14.58 ℃ 100 % 1013.47 hPa
2024-02-14 18:35:38 14.65 ℃ 100 % 1013.43 hPa
2024-02-14 18:25:38 14.53 ℃ 100 % 1013.4 hPa
2024-02-14 18:15:38 14.16 ℃ 100 % 1013.41 hPa
2024-02-14 18:05:38 14.14 ℃ 100 % 1013.38 hPa
2024-02-14 17:55:38 14.12 ℃ 100 % 1013.36 hPa
2024-02-14 17:45:38 13.68 ℃ 100 % 1013.38 hPa
2024-02-14 17:35:38 13.08 ℃ 100 % 1013.4 hPa
2024-02-14 17:25:38 13.05 ℃ 100 % 1013.39 hPa
2024-02-14 17:15:38 12.81 ℃ 100 % 1013.42 hPa
2024-02-14 17:05:38 12.75 ℃ 100 % 1013.42 hPa
2024-02-14 16:55:39 12.66 ℃ 100 % 1013.4 hPa
2024-02-14 16:45:38 12.39 ℃ 100 % 1013.39 hPa
2024-02-14 16:35:38 11.94 ℃ 100 % 1013.37 hPa
2024-02-14 16:25:38 12.06 ℃ 100 % 1013.34 hPa
2024-02-14 16:15:40 11.89 ℃ 100 % 1013.3 hPa
2024-02-14 16:05:38 11.91 ℃ 100 % 1013.27 hPa
2024-02-14 15:55:40 12.08 ℃ 100 % 1013.24 hPa
2024-02-14 15:45:40 12.12 ℃ 100 % 1013.24 hPa
2024-02-14 15:35:39 12.12 ℃ 100 % 1013.18 hPa
2024-02-14 15:25:39 12.15 ℃ 100 % 1013.09 hPa
2024-02-14 15:15:39 12.46 ℃ 100 % 1013.01 hPa
2024-02-14 15:05:39 12.33 ℃ 100 % 1012.94 hPa
2024-02-14 14:55:39 12.44 ℃ 100 % 1012.88 hPa
2024-02-14 14:45:39 12.59 ℃ 100 % 1012.84 hPa
2024-02-14 14:35:39 12.86 ℃ 100 % 1012.82 hPa
2024-02-14 14:25:39 12.75 ℃ 100 % 1012.84 hPa
2024-02-14 14:15:39 12.66 ℃ 100 % 1012.82 hPa
2024-02-14 14:05:39 12.78 ℃ 100 % 1012.77 hPa
2024-02-14 13:55:39 12.62 ℃ 100 % 1012.72 hPa
2024-02-14 13:45:39 12.04 ℃ 100 % 1012.73 hPa
2024-02-14 13:35:39 12.3 ℃ 100 % 1012.74 hPa
2024-02-14 13:25:39 12.32 ℃ 100 % 1012.75 hPa
2024-02-14 13:15:39 12.04 ℃ 100 % 1012.77 hPa
2024-02-14 13:05:39 11.69 ℃ 100 % 1012.75 hPa
2024-02-14 12:55:39 11.82 ℃ 100 % 1012.75 hPa
2024-02-14 12:45:39 11.7 ℃ 100 % 1012.76 hPa
2024-02-14 12:35:39 11.4 ℃ 100 % 1012.77 hPa
2024-02-14 12:25:39 10.94 ℃ 100 % 1012.85 hPa
2024-02-14 12:15:39 10.76 ℃ 100 % 1012.87 hPa
2024-02-14 12:05:39 10.82 ℃ 100 % 1012.88 hPa
2024-02-14 11:55:39 10.35 ℃ 100 % 1012.93 hPa
2024-02-14 11:45:41 9.91 ℃ 100 % 1012.9 hPa
2024-02-14 11:35:39 9.87 ℃ 100 % 1012.88 hPa
2024-02-14 11:25:39 9.75 ℃ 100 % 1012.87 hPa
2024-02-14 11:15:39 9.75 ℃ 100 % 1012.78 hPa
2024-02-14 11:05:39 9.73 ℃ 100 % 1012.77 hPa
2024-02-14 10:55:39 9.39 ℃ 100 % 1012.78 hPa
2024-02-14 10:45:39 9.28 ℃ 100 % 1012.77 hPa
2024-02-14 10:35:39 9.02 ℃ 100 % 1012.82 hPa
2024-02-14 10:25:39 8.87 ℃ 100 % 1012.85 hPa
2024-02-14 10:15:39 8.88 ℃ 100 % 1012.86 hPa
2024-02-14 10:05:39 8.95 ℃ 100 % 1012.86 hPa
2024-02-14 09:55:39 8.6 ℃ 100 % 1012.86 hPa
2024-02-14 09:45:39 8.47 ℃ 100 % 1012.83 hPa
2024-02-14 09:35:39 8.62 ℃ 100 % 1012.85 hPa
2024-02-14 09:25:39 8.63 ℃ 100 % 1012.84 hPa
2024-02-14 09:15:39 8.58 ℃ 100 % 1012.82 hPa
2024-02-14 09:05:39 8.12 ℃ 100 % 1012.78 hPa
2024-02-14 08:55:39 8.24 ℃ 100 % 1012.82 hPa
2024-02-14 08:45:39 8.32 ℃ 100 % 1012.85 hPa
2024-02-14 08:35:39 8.23 ℃ 100 % 1012.86 hPa
2024-02-14 08:25:40 8.2 ℃ 100 % 1012.9 hPa
2024-02-14 08:15:39 7.97 ℃ 100 % 1012.95 hPa
2024-02-14 08:05:39 8.12 ℃ 100 % 1012.96 hPa
2024-02-14 07:55:39 7.87 ℃ 100 % 1012.96 hPa
2024-02-14 07:45:39 7.98 ℃ 100 % 1012.99 hPa
2024-02-14 07:35:39 7.89 ℃ 100 % 1012.98 hPa
2024-02-14 07:25:39 8.12 ℃ 100 % 1013.02 hPa
2024-02-14 07:15:39 7.93 ℃ 100 % 1013.01 hPa
2024-02-14 07:05:39 8 ℃ 100 % 1013.1 hPa
2024-02-14 06:55:39 7.97 ℃ 100 % 1013.19 hPa
2024-02-14 06:45:39 7.96 ℃ 100 % 1013.26 hPa
2024-02-14 06:35:39 7.99 ℃ 100 % 1013.34 hPa
2024-02-14 06:25:39 8.17 ℃ 100 % 1013.41 hPa
2024-02-14 06:15:39 8.42 ℃ 100 % 1013.49 hPa
2024-02-14 06:05:39 8.47 ℃ 100 % 1013.57 hPa
2024-02-14 05:55:39 8.17 ℃ 100 % 1013.59 hPa
2024-02-14 05:45:39 8.15 ℃ 100 % 1013.61 hPa
2024-02-14 05:35:39 8.08 ℃ 100 % 1013.62 hPa
2024-02-14 05:25:39 7.99 ℃ 100 % 1013.66 hPa
2024-02-14 05:15:39 7.98 ℃ 100 % 1013.68 hPa
2024-02-14 05:05:39 8.19 ℃ 100 % 1013.7 hPa
2024-02-14 04:55:39 8.46 ℃ 100 % 1013.72 hPa
2024-02-14 04:45:40 8.6 ℃ 100 % 1013.77 hPa
2024-02-14 04:35:40 9.06 ℃ 100 % 1013.82 hPa
2024-02-14 04:25:40 9.03 ℃ 100 % 1013.86 hPa
2024-02-14 04:15:40 8.77 ℃ 100 % 1013.95 hPa
2024-02-14 04:05:40 8.33 ℃ 100 % 1014.02 hPa
2024-02-14 03:55:40 8.41 ℃ 100 % 1014.08 hPa
2024-02-14 03:45:40 8.62 ℃ 100 % 1014.13 hPa
2024-02-14 03:35:40 8.77 ℃ 100 % 1014.21 hPa
2024-02-14 03:25:40 8.8 ℃ 100 % 1014.3 hPa
2024-02-14 03:15:40 8.97 ℃ 100 % 1014.4 hPa
2024-02-14 03:05:40 8.99 ℃ 100 % 1014.5 hPa
2024-02-14 02:55:40 8.93 ℃ 100 % 1014.61 hPa
2024-02-14 02:45:40 8.86 ℃ 100 % 1014.72 hPa
2024-02-14 02:35:40 8.97 ℃ 100 % 1014.83 hPa
2024-02-14 02:25:40 8.8 ℃ 100 % 1014.9 hPa
2024-02-14 02:15:40 9.06 ℃ 100 % 1014.93 hPa
2024-02-14 02:05:40 9.2 ℃ 100 % 1014.98 hPa
2024-02-14 01:55:40 9.37 ℃ 100 % 1015.05 hPa
2024-02-14 01:45:40 9.41 ℃ 100 % 1015.14 hPa
2024-02-14 01:35:40 9.88 ℃ 100 % 1015.16 hPa
2024-02-14 01:25:40 10.27 ℃ 100 % 1015.2 hPa
2024-02-14 01:15:40 10.36 ℃ 100 % 1015.25 hPa
2024-02-14 01:05:40 10.41 ℃ 100 % 1015.26 hPa
2024-02-14 00:55:40 10.01 ℃ 100 % 1015.36 hPa
2024-02-14 00:45:40 10.06 ℃ 100 % 1015.43 hPa
2024-02-14 00:35:40 10.26 ℃ 100 % 1015.46 hPa
2024-02-14 00:25:40 10.04 ℃ 100 % 1015.49 hPa
2024-02-14 00:15:40 10.03 ℃ 100 % 1015.47 hPa
2024-02-14 00:05:40 9.94 ℃ 100 % 1015.48 hPa
2024-02-13 23:55:40 9.71 ℃ 100 % 1015.51 hPa
2024-02-13 23:45:40 9.64 ℃ 100 % 1015.47 hPa
2024-02-13 23:35:40 9.89 ℃ 100 % 1015.44 hPa
2024-02-13 23:25:40 10.02 ℃ 100 % 1015.43 hPa
2024-02-13 23:15:40 9.88 ℃ 100 % 1015.45 hPa
2024-02-13 23:05:40 9.53 ℃ 100 % 1015.45 hPa
2024-02-13 22:55:40 9.52 ℃ 100 % 1015.44 hPa
2024-02-13 22:45:40 9.65 ℃ 100 % 1015.43 hPa
2024-02-13 22:35:40 9.53 ℃ 100 % 1015.41 hPa
2024-02-13 22:25:40 9.3 ℃ 100 % 1015.4 hPa
2024-02-13 22:15:40 9.78 ℃ 100 % 1015.41 hPa
2024-02-13 22:05:40 9.68 ℃ 100 % 1015.46 hPa
2024-02-13 21:55:40 9.63 ℃ 100 % 1015.5 hPa
2024-02-13 21:45:40 9.7 ℃ 100 % 1015.45 hPa
2024-02-13 21:35:40 9.62 ℃ 100 % 1015.4 hPa
2024-02-13 21:25:40 9.62 ℃ 100 % 1015.39 hPa
2024-02-13 21:15:40 9.48 ℃ 100 % 1015.4 hPa
2024-02-13 21:05:40 9.31 ℃ 100 % 1015.41 hPa
2024-02-13 20:55:40 9.4 ℃ 100 % 1015.44 hPa
2024-02-13 20:45:40 9.26 ℃ 100 % 1015.45 hPa
2024-02-13 20:35:40 9.51 ℃ 100 % 1015.49 hPa
2024-02-13 20:25:40 9.24 ℃ 100 % 1015.48 hPa
2024-02-13 20:15:40 9.16 ℃ 100 % 1015.46 hPa
2024-02-13 20:05:40 9.08 ℃ 100 % 1015.41 hPa
2024-02-13 19:55:40 9.25 ℃ 100 % 1015.4 hPa
2024-02-13 19:45:40 9.24 ℃ 100 % 1015.4 hPa
2024-02-13 19:35:40 9.43 ℃ 100 % 1015.38 hPa
2024-02-13 19:25:40 9.56 ℃ 100 % 1015.41 hPa
2024-02-13 19:15:41 9.68 ℃ 100 % 1015.45 hPa
2024-02-13 19:05:40 9.62 ℃ 100 % 1015.46 hPa
2024-02-13 18:55:40 9.77 ℃ 100 % 1015.41 hPa
2024-02-13 18:45:40 10.34 ℃ 100 % 1015.38 hPa
2024-02-13 18:35:40 10.86 ℃ 100 % 1015.33 hPa
2024-02-13 18:25:41 10.82 ℃ 100 % 1015.29 hPa
2024-02-13 18:15:42 10.56 ℃ 100 % 1015.3 hPa
2024-02-13 18:05:41 10.91 ℃ 100 % 1015.27 hPa
2024-02-13 17:55:40 10.14 ℃ 100 % 1015.28 hPa
2024-02-13 17:45:41 10.36 ℃ 100 % 1015.19 hPa
2024-02-13 17:35:41 10.75 ℃ 100 % 1015.05 hPa
2024-02-13 17:25:41 10.53 ℃ 100 % 1014.93 hPa
2024-02-13 17:15:41 10.56 ℃ 100 % 1014.87 hPa
2024-02-13 17:05:41 10.62 ℃ 100 % 1014.83 hPa
2024-02-13 16:55:41 10.01 ℃ 100 % 1014.82 hPa
2024-02-13 16:45:41 9.68 ℃ 100 % 1014.79 hPa
2024-02-13 16:35:41 9.52 ℃ 100 % 1014.76 hPa
2024-02-13 16:25:41 9.52 ℃ 100 % 1014.69 hPa
2024-02-13 16:15:41 9.58 ℃ 100 % 1014.65 hPa
2024-02-13 16:05:41 9.74 ℃ 100 % 1014.57 hPa
2024-02-13 15:55:41 9.49 ℃ 100 % 1014.49 hPa
2024-02-13 15:45:41 9.56 ℃ 100 % 1014.41 hPa
2024-02-13 15:35:41 9.54 ℃ 100 % 1014.38 hPa
2024-02-13 15:25:41 9.76 ℃ 100 % 1014.34 hPa
2024-02-13 15:15:41 9.45 ℃ 100 % 1014.3 hPa
2024-02-13 15:05:41 9.52 ℃ 100 % 1014.23 hPa
2024-02-13 14:55:41 9.42 ℃ 100 % 1014.22 hPa
2024-02-13 14:45:41 9.44 ℃ 100 % 1014.2 hPa
2024-02-13 14:35:41 9.34 ℃ 100 % 1014.21 hPa
2024-02-13 14:25:41 9.32 ℃ 100 % 1014.15 hPa
2024-02-13 14:15:41 9.39 ℃ 100 % 1014.09 hPa
2024-02-13 14:05:41 9.45 ℃ 100 % 1014.05 hPa
2024-02-13 13:55:41 9.45 ℃ 100 % 1014.05 hPa
2024-02-13 13:45:41 9.55 ℃ 100 % 1014.06 hPa
2024-02-13 13:35:41 9.43 ℃ 100 % 1014.01 hPa
2024-02-13 13:25:41 9.41 ℃ 100 % 1013.97 hPa
2024-02-13 13:15:41 9.46 ℃ 100 % 1013.92 hPa
2024-02-13 13:05:41 9.49 ℃ 100 % 1013.87 hPa
2024-02-13 12:55:41 9.54 ℃ 100 % 1013.83 hPa
2024-02-13 12:45:41 9.6 ℃ 100 % 1013.77 hPa
2024-02-13 12:35:41 9.29 ℃ 100 % 1013.73 hPa
2024-02-13 12:25:41 9.3 ℃ 100 % 1013.69 hPa
2024-02-13 12:15:41 9.12 ℃ 100 % 1013.65 hPa
2024-02-13 12:05:41 9.14 ℃ 100 % 1013.61 hPa
2024-02-13 11:55:41 9.17 ℃ 100 % 1013.55 hPa
2024-02-13 11:45:41 9.23 ℃ 100 % 1013.48 hPa
2024-02-13 11:35:41 9.22 ℃ 100 % 1013.36 hPa
2024-02-13 11:25:41 9.39 ℃ 100 % 1013.28 hPa
2024-02-13 11:15:41 9.51 ℃ 100 % 1013.26 hPa
2024-02-13 11:05:41 9.51 ℃ 100 % 1013.23 hPa
2024-02-13 10:55:41 9.4 ℃ 100 % 1013.17 hPa
2024-02-13 10:45:41 9.32 ℃ 100 % 1013.15 hPa
2024-02-13 10:35:41 9.04 ℃ 100 % 1013.13 hPa
2024-02-13 10:25:41 8.85 ℃ 100 % 1013.08 hPa
2024-02-13 10:15:41 8.64 ℃ 100 % 1013 hPa
2024-02-13 09:55:41 8.33 ℃ 100 % 1012.88 hPa
2024-02-13 09:45:41 8.26 ℃ 100 % 1012.8 hPa
2024-02-13 09:35:41 8.05 ℃ 100 % 1012.78 hPa
2024-02-13 09:25:41 7.99 ℃ 100 % 1012.76 hPa
2024-02-13 09:15:41 7.77 ℃ 100 % 1012.71 hPa
2024-02-13 09:05:41 7.61 ℃ 100 % 1012.61 hPa
2024-02-13 08:55:41 7.72 ℃ 100 % 1012.55 hPa
2024-02-13 08:45:41 7.86 ℃ 100 % 1012.48 hPa
2024-02-13 08:35:41 7.81 ℃ 100 % 1012.44 hPa
2024-02-13 08:25:41 7.85 ℃ 100 % 1012.39 hPa
2024-02-13 08:15:41 8.02 ℃ 100 % 1012.31 hPa
2024-02-13 08:05:41 7.76 ℃ 100 % 1012.2 hPa
2024-02-13 07:55:41 7.77 ℃ 100 % 1012.11 hPa
2024-02-13 07:45:41 7.93 ℃ 100 % 1012.05 hPa
2024-02-13 07:35:41 7.8 ℃ 100 % 1012.05 hPa
2024-02-13 07:25:41 7.63 ℃ 100 % 1012.03 hPa
2024-02-13 07:15:41 7.33 ℃ 100 % 1011.98 hPa
2024-02-13 07:05:41 7.53 ℃ 100 % 1011.91 hPa
2024-02-13 06:55:41 7.65 ℃ 100 % 1011.86 hPa
2024-02-13 06:45:41 7.81 ℃ 100 % 1011.85 hPa
2024-02-13 06:35:42 7.96 ℃ 100 % 1011.76 hPa
2024-02-13 06:25:41 7.83 ℃ 100 % 1011.71 hPa
2024-02-13 06:15:42 7.93 ℃ 100 % 1011.62 hPa
2024-02-13 06:05:42 7.99 ℃ 100 % 1011.56 hPa
2024-02-13 05:55:42 7.72 ℃ 100 % 1011.47 hPa
2024-02-13 05:45:42 7.94 ℃ 100 % 1011.43 hPa
2024-02-13 05:35:42 8.05 ℃ 100 % 1011.42 hPa
2024-02-13 05:25:42 8.24 ℃ 100 % 1011.37 hPa
2024-02-13 05:15:42 8.27 ℃ 100 % 1011.31 hPa
2024-02-13 05:05:42 8.36 ℃ 100 % 1011.2 hPa
2024-02-13 04:55:42 8.23 ℃ 100 % 1011.18 hPa
2024-02-13 04:45:42 8.38 ℃ 100 % 1011.11 hPa
2024-02-13 04:35:42 7.99 ℃ 100 % 1011.07 hPa
2024-02-13 04:25:42 7.97 ℃ 100 % 1010.99 hPa
2024-02-13 04:15:42 7.95 ℃ 100 % 1010.93 hPa
2024-02-13 04:05:42 8.03 ℃ 100 % 1010.84 hPa
2024-02-13 03:55:42 7.88 ℃ 100 % 1010.85 hPa
2024-02-13 03:45:42 8.07 ℃ 100 % 1010.78 hPa
2024-02-13 03:35:42 8.12 ℃ 100 % 1010.68 hPa
2024-02-13 03:25:42 8.29 ℃ 100 % 1010.59 hPa
2024-02-13 03:15:42 8.43 ℃ 100 % 1010.51 hPa
2024-02-13 03:05:42 8.48 ℃ 100 % 1010.5 hPa
2024-02-13 02:55:42 8.45 ℃ 100 % 1010.43 hPa
2024-02-13 02:45:42 8.55 ℃ 100 % 1010.37 hPa
2024-02-13 02:35:42 8.56 ℃ 100 % 1010.26 hPa
2024-02-13 02:25:42 8.69 ℃ 100 % 1010.17 hPa
2024-02-13 02:15:42 8.5 ℃ 100 % 1010.08 hPa
2024-02-13 02:05:42 8.41 ℃ 100 % 1009.98 hPa
2024-02-13 01:55:42 8.52 ℃ 100 % 1009.92 hPa
2024-02-13 01:45:42 8.38 ℃ 100 % 1009.8 hPa
2024-02-13 01:35:42 8.39 ℃ 100 % 1009.68 hPa
2024-02-13 01:25:42 8.31 ℃ 100 % 1009.56 hPa
2024-02-13 01:15:42 8.59 ℃ 100 % 1009.47 hPa
2024-02-13 01:05:42 8.35 ℃ 100 % 1009.38 hPa
2024-02-13 00:55:42 8.01 ℃ 100 % 1009.27 hPa
2024-02-13 00:45:42 7.97 ℃ 100 % 1009.15 hPa
2024-02-13 00:35:42 8 ℃ 100 % 1009.08 hPa
2024-02-13 00:25:42 8.13 ℃ 100 % 1009.01 hPa
2024-02-13 00:15:42 8.38 ℃ 100 % 1008.92 hPa
2024-02-13 00:05:42 8.51 ℃ 100 % 1008.8 hPa
2024-02-12 23:55:42 8.57 ℃ 100 % 1008.64 hPa
2024-02-12 23:45:42 8.41 ℃ 100 % 1008.53 hPa
2024-02-12 23:35:42 8.38 ℃ 100 % 1008.45 hPa
2024-02-12 23:25:42 8.32 ℃ 100 % 1008.32 hPa
2024-02-12 23:15:42 8.21 ℃ 100 % 1008.21 hPa
2024-02-12 23:05:42 8.47 ℃ 100 % 1008.12 hPa
2024-02-12 22:55:42 8.6 ℃ 100 % 1008.02 hPa
2024-02-12 22:45:42 8.57 ℃ 100 % 1007.86 hPa
2024-02-12 22:35:42 8.71 ℃ 100 % 1007.72 hPa
2024-02-12 22:25:42 8.81 ℃ 100 % 1007.53 hPa
2024-02-12 22:15:42 8.94 ℃ 100 % 1007.36 hPa
2024-02-12 22:05:42 9.06 ℃ 100 % 1007.28 hPa
2024-02-12 21:55:42 9.06 ℃ 100 % 1007.2 hPa
2024-02-12 21:45:42 8.87 ℃ 100 % 1007.1 hPa
2024-02-12 21:35:42 9.05 ℃ 100 % 1006.94 hPa
2024-02-12 21:25:42 9.19 ℃ 100 % 1006.8 hPa
2024-02-12 21:15:42 9.31 ℃ 100 % 1006.63 hPa
2024-02-12 21:05:42 9.34 ℃ 100 % 1006.53 hPa
2024-02-12 20:55:42 9.44 ℃ 100 % 1006.38 hPa
2024-02-12 20:45:42 9.84 ℃ 100 % 1006.19 hPa
2024-02-12 20:35:43 9.64 ℃ 100 % 1006.08 hPa
2024-02-12 20:25:42 9.62 ℃ 100 % 1005.95 hPa
2024-02-12 20:15:43 9.75 ℃ 100 % 1005.83 hPa
2024-02-12 20:05:43 9.59 ℃ 100 % 1005.73 hPa
2024-02-12 19:55:43 9.69 ℃ 100 % 1005.6 hPa
2024-02-12 19:45:43 9.89 ℃ 100 % 1005.48 hPa
2024-02-12 19:35:43 9.8 ℃ 100 % 1005.37 hPa
2024-02-12 19:25:43 9.78 ℃ 100 % 1005.31 hPa
2024-02-12 19:15:43 9.77 ℃ 100 % 1005.21 hPa
2024-02-12 19:05:43 9.96 ℃ 100 % 1005.09 hPa
2024-02-12 18:55:43 10.07 ℃ 100 % 1004.96 hPa
2024-02-12 18:45:43 10.12 ℃ 100 % 1004.74 hPa
2024-02-12 18:35:43 10.13 ℃ 100 % 1004.58 hPa
2024-02-12 18:25:43 10.21 ℃ 100 % 1004.4 hPa
2024-02-12 18:15:43 9.92 ℃ 100 % 1004.24 hPa
2024-02-12 18:05:43 9.86 ℃ 100 % 1004.07 hPa
2024-02-12 17:55:43 9.82 ℃ 100 % 1003.92 hPa
2024-02-12 17:45:43 9.92 ℃ 100 % 1003.73 hPa
2024-02-12 17:35:43 9.92 ℃ 100 % 1003.58 hPa
2024-02-12 17:25:43 10.12 ℃ 100 % 1003.42 hPa
2024-02-12 17:15:43 10 ℃ 100 % 1003.32 hPa
2024-02-12 17:05:43 10.05 ℃ 100 % 1003.16 hPa
2024-02-12 16:55:43 10.05 ℃ 100 % 1003.05 hPa
2024-02-12 16:45:43 10.25 ℃ 100 % 1002.92 hPa
2024-02-12 16:35:43 10.39 ℃ 100 % 1002.79 hPa
2024-02-12 16:25:43 10.6 ℃ 100 % 1002.62 hPa
2024-02-12 16:15:43 10.75 ℃ 100 % 1002.44 hPa
2024-02-12 16:05:43 10.81 ℃ 100 % 1002.29 hPa
2024-02-12 15:55:43 10.93 ℃ 100 % 1002.12 hPa
2024-02-12 15:45:43 10.74 ℃ 100 % 1002.01 hPa
2024-02-12 15:35:43 10.71 ℃ 100 % 1001.85 hPa
2024-02-12 15:25:43 10.85 ℃ 100 % 1001.67 hPa
2024-02-12 15:15:43 10.85 ℃ 100 % 1001.54 hPa
2024-02-12 15:05:43 10.72 ℃ 100 % 1001.42 hPa
2024-02-12 14:55:43 11.07 ℃ 100 % 1001.29 hPa
2024-02-12 14:45:43 10.98 ℃ 100 % 1001.18 hPa
2024-02-12 14:35:43 10.86 ℃ 100 % 1001.06 hPa
2024-02-12 14:25:43 11.09 ℃ 100 % 1000.96 hPa
2024-02-12 14:15:43 11.22 ℃ 100 % 1000.9 hPa
2024-02-12 14:05:43 11.26 ℃ 100 % 1000.85 hPa
2024-02-12 13:55:43 11.09 ℃ 100 % 1000.82 hPa
2024-02-12 13:45:43 11.16 ℃ 100 % 1000.74 hPa
2024-02-12 13:35:43 10.93 ℃ 100 % 1000.71 hPa
2024-02-12 13:25:43 10.79 ℃ 100 % 1000.68 hPa
2024-02-12 13:15:43 10.77 ℃ 100 % 1000.56 hPa
2024-02-12 13:05:43 10.79 ℃ 100 % 1000.48 hPa
2024-02-12 12:55:43 10.68 ℃ 100 % 1000.41 hPa
2024-02-12 12:45:43 10.81 ℃ 100 % 1000.32 hPa
2024-02-12 12:35:43 10.85 ℃ 100 % 1000.2 hPa
2024-02-12 12:25:43 10.55 ℃ 100 % 1000.12 hPa
2024-02-12 12:15:43 10.46 ℃ 100 % 1000.04 hPa
2024-02-12 12:05:43 10.32 ℃ 100 % 999.94 hPa
2024-02-12 11:55:43 10.35 ℃ 100 % 999.84 hPa
2024-02-12 11:45:43 10.14 ℃ 100 % 999.81 hPa
2024-02-12 11:35:43 10.14 ℃ 100 % 999.79 hPa
2024-02-12 11:25:43 9.93 ℃ 100 % 999.74 hPa
2024-02-10 06:48:01 4.8 ℃ 100 % 990.27 hPa
2024-02-10 06:38:01 4.82 ℃ 100 % 990.25 hPa
2024-02-10 06:28:01 4.87 ℃ 100 % 990.23 hPa
2024-02-10 06:18:01 4.68 ℃ 100 % 990.17 hPa
2024-02-10 06:08:01 4.66 ℃ 100 % 990.19 hPa
2024-02-10 05:58:01 4.71 ℃ 100 % 990.17 hPa
2024-02-10 05:48:01 4.6 ℃ 100 % 990.17 hPa
2024-02-10 05:38:01 4.77 ℃ 100 % 990.1 hPa
2024-02-10 05:28:01 4.5 ℃ 100 % 990.04 hPa
2024-02-10 05:18:01 4.58 ℃ 100 % 990.02 hPa
2024-02-10 05:08:01 4.49 ℃ 100 % 989.99 hPa
2024-02-10 04:58:01 4.59 ℃ 100 % 990 hPa
2024-02-10 04:48:01 4.56 ℃ 100 % 990.01 hPa
2024-02-10 04:38:01 4.34 ℃ 100 % 990.02 hPa
2024-02-10 04:28:01 4.28 ℃ 100 % 990.01 hPa
2024-02-10 04:18:01 4.36 ℃ 100 % 990.01 hPa
2024-02-10 04:08:01 4.52 ℃ 100 % 990.05 hPa
2024-02-10 03:58:01 4.53 ℃ 100 % 989.97 hPa
2024-02-10 03:48:01 4.51 ℃ 100 % 990.01 hPa
2024-02-10 03:38:01 4.4 ℃ 100 % 990.05 hPa
2024-02-10 03:28:01 4.33 ℃ 100 % 990.07 hPa
2024-02-10 03:18:01 4.21 ℃ 100 % 990.1 hPa
2024-02-10 03:08:01 4.04 ℃ 100 % 990.08 hPa
2024-02-10 02:58:01 3.88 ℃ 100 % 990.1 hPa
2024-02-10 02:48:01 3.9 ℃ 100 % 990.17 hPa
2024-02-10 02:38:01 3.88 ℃ 100 % 990.19 hPa
2024-02-10 02:28:01 3.94 ℃ 100 % 990.15 hPa
2024-02-10 02:18:02 4.09 ℃ 100 % 990.06 hPa
2024-02-10 02:08:01 4.01 ℃ 100 % 989.95 hPa
2024-02-10 01:58:01 4.05 ℃ 100 % 989.93 hPa
2024-02-10 01:48:01 3.94 ℃ 100 % 989.87 hPa
2024-02-10 01:38:01 3.96 ℃ 100 % 989.87 hPa
2024-02-10 01:28:01 3.88 ℃ 100 % 989.88 hPa
2024-02-10 01:18:01 4 ℃ 100 % 989.89 hPa
2024-02-10 01:08:01 4.08 ℃ 100 % 989.88 hPa
2024-02-10 00:58:01 4.19 ℃ 100 % 989.89 hPa
2024-02-10 00:48:01 4.18 ℃ 100 % 989.88 hPa
2024-02-10 00:38:01 3.93 ℃ 100 % 989.83 hPa
2024-02-10 00:28:01 3.81 ℃ 100 % 989.79 hPa
2024-02-10 00:18:02 3.94 ℃ 100 % 989.87 hPa
2024-02-10 00:08:02 3.97 ℃ 100 % 989.9 hPa
2024-02-09 23:58:02 3.99 ℃ 100 % 989.88 hPa
2024-02-09 23:48:02 3.99 ℃ 100 % 989.87 hPa
2024-02-09 23:38:02 4.17 ℃ 100 % 989.87 hPa
2024-02-09 23:28:02 3.74 ℃ 100 % 989.87 hPa
2024-02-09 23:18:02 3.57 ℃ 100 % 989.86 hPa
2024-02-09 23:08:02 3.67 ℃ 100 % 989.81 hPa
2024-02-09 22:58:02 3.68 ℃ 100 % 989.76 hPa
2024-02-09 22:48:02 3.47 ℃ 100 % 989.71 hPa
2024-02-09 22:38:02 3.5 ℃ 100 % 989.65 hPa
2024-02-09 22:28:02 3.51 ℃ 100 % 989.67 hPa
2024-02-09 22:18:02 3.47 ℃ 100 % 989.67 hPa
2024-02-09 22:08:02 3.59 ℃ 100 % 989.63 hPa
2024-02-09 21:58:02 3.53 ℃ 100 % 989.57 hPa
2024-02-09 21:48:02 3.43 ℃ 100 % 989.43 hPa
2024-02-09 21:38:02 3.43 ℃ 100 % 989.41 hPa
2024-02-09 21:28:02 3.51 ℃ 100 % 989.39 hPa
2024-02-09 21:18:02 3.41 ℃ 100 % 989.34 hPa
2024-02-09 21:08:02 3.51 ℃ 100 % 989.26 hPa
2024-02-09 20:58:02 3.51 ℃ 100 % 989.21 hPa
2024-02-09 20:48:02 3.3 ℃ 100 % 989.25 hPa
2024-02-09 20:38:02 3.22 ℃ 100 % 989.26 hPa
2024-02-09 20:28:02 3.13 ℃ 100 % 989.26 hPa
2024-02-09 20:18:02 3.18 ℃ 100 % 989.21 hPa
2024-02-09 20:08:02 3.09 ℃ 100 % 989.23 hPa
2024-02-09 19:58:02 3.14 ℃ 100 % 989.11 hPa
2024-02-09 19:48:02 3.18 ℃ 100 % 989.16 hPa
2024-02-09 19:38:02 3.39 ℃ 100 % 989.11 hPa
2024-02-09 19:28:02 3.25 ℃ 100 % 989.04 hPa
2024-02-09 19:18:02 2.99 ℃ 100 % 988.98 hPa
2024-02-09 19:08:02 3.19 ℃ 100 % 988.92 hPa
2024-02-09 18:58:02 3.3 ℃ 100 % 988.88 hPa
2024-02-09 18:48:02 3.35 ℃ 100 % 988.94 hPa
2024-02-09 18:38:02 3.31 ℃ 100 % 988.92 hPa
2024-02-09 18:28:02 3.2 ℃ 100 % 988.94 hPa
2024-02-09 18:18:02 3.35 ℃ 100 % 988.87 hPa
2024-02-09 18:08:02 3.31 ℃ 100 % 988.86 hPa
2024-02-09 17:58:02 3.05 ℃ 100 % 988.92 hPa
2024-02-09 17:48:02 3.05 ℃ 100 % 988.86 hPa
2024-02-09 17:38:02 3.05 ℃ 100 % 988.88 hPa
2024-02-09 17:28:02 2.89 ℃ 100 % 988.88 hPa
2024-02-09 17:18:02 2.9 ℃ 100 % 988.88 hPa
2024-02-09 17:08:02 2.9 ℃ 100 % 988.92 hPa
2024-02-09 16:58:02 2.97 ℃ 100 % 988.93 hPa
2024-02-09 16:48:02 3.01 ℃ 100 % 988.94 hPa
2024-02-09 16:38:03 2.96 ℃ 100 % 988.94 hPa
2024-02-09 16:28:02 2.99 ℃ 100 % 988.98 hPa
2024-02-09 16:18:02 2.77 ℃ 100 % 988.93 hPa
2024-02-09 16:08:02 2.75 ℃ 100 % 988.92 hPa
2024-02-09 15:58:03 2.78 ℃ 100 % 988.91 hPa
2024-02-09 15:48:02 2.73 ℃ 100 % 988.92 hPa
2024-02-09 15:38:02 2.83 ℃ 100 % 988.92 hPa
2024-02-09 15:28:02 2.8 ℃ 100 % 988.96 hPa
2024-02-09 15:18:02 2.77 ℃ 100 % 988.98 hPa
2024-02-09 15:08:02 2.88 ℃ 100 % 988.99 hPa
2024-02-09 14:58:03 2.73 ℃ 100 % 989 hPa
2024-02-09 14:48:02 2.76 ℃ 100 % 989.02 hPa
2024-02-09 14:38:02 2.68 ℃ 100 % 989.07 hPa
2024-02-09 14:28:02 2.76 ℃ 100 % 989.12 hPa
2024-02-09 14:18:03 2.58 ℃ 100 % 989.21 hPa
2024-02-09 14:08:02 2.61 ℃ 100 % 989.32 hPa
2024-02-09 13:58:03 2.57 ℃ 100 % 989.39 hPa
2024-02-09 13:48:03 2.54 ℃ 100 % 989.39 hPa
2024-02-09 13:38:03 2.63 ℃ 100 % 989.47 hPa
2024-02-09 13:28:03 2.45 ℃ 100 % 989.57 hPa
2024-02-09 13:18:03 2.42 ℃ 100 % 989.63 hPa
2024-02-09 13:08:03 2.46 ℃ 100 % 989.66 hPa
2024-02-09 12:58:03 2.56 ℃ 100 % 989.78 hPa
2024-02-09 12:48:03 2.25 ℃ 100 % 989.94 hPa
2024-02-09 12:38:03 2.2 ℃ 100 % 990.08 hPa
2024-02-09 12:28:03 2.29 ℃ 100 % 990.24 hPa
2024-02-09 12:18:03 2.25 ℃ 100 % 990.32 hPa
2024-02-09 12:08:03 2.19 ℃ 100 % 990.45 hPa
2024-02-09 11:58:03 2.22 ℃ 100 % 990.6 hPa
2024-02-09 11:48:03 2.35 ℃ 100 % 990.7 hPa
2024-02-09 11:38:03 2.29 ℃ 100 % 990.78 hPa
2024-02-09 11:28:03 2.32 ℃ 100 % 990.82 hPa
2024-02-09 11:18:03 2.18 ℃ 100 % 990.84 hPa
2024-02-09 11:08:03 2.22 ℃ 100 % 990.84 hPa
2024-02-09 10:58:03 2.19 ℃ 100 % 990.86 hPa
2024-02-09 10:48:03 2.12 ℃ 100 % 990.95 hPa
2024-02-09 10:38:03 2.17 ℃ 100 % 990.97 hPa
2024-02-09 10:28:03 2.15 ℃ 100 % 991.08 hPa
2024-02-09 10:18:03 2.2 ℃ 100 % 991.16 hPa
2024-02-09 10:08:03 2.24 ℃ 100 % 991.35 hPa
2024-02-09 09:58:03 2.23 ℃ 100 % 991.56 hPa
2024-02-09 09:48:03 2.18 ℃ 100 % 991.53 hPa
2024-02-09 09:38:03 2.24 ℃ 100 % 991.6 hPa
2024-02-09 09:28:03 2.24 ℃ 100 % 991.69 hPa
2024-02-09 09:18:03 2.2 ℃ 100 % 991.82 hPa
2024-02-09 09:08:03 2.17 ℃ 100 % 991.95 hPa
2024-02-09 08:58:03 2.18 ℃ 100 % 992.05 hPa
2024-02-09 08:48:03 2.11 ℃ 100 % 992.13 hPa
2024-02-09 08:38:03 2.19 ℃ 100 % 992.27 hPa
2024-02-09 08:28:03 2.15 ℃ 100 % 992.38 hPa
2024-02-09 08:18:03 2.24 ℃ 100 % 992.39 hPa
2024-02-09 08:08:03 2.09 ℃ 100 % 992.43 hPa
2024-02-09 07:58:03 2.08 ℃ 100 % 992.52 hPa
2024-02-09 07:48:03 2.17 ℃ 100 % 992.5 hPa
2024-02-09 07:38:03 2.37 ℃ 100 % 992.5 hPa
2024-02-09 07:28:03 2.48 ℃ 100 % 992.53 hPa
2024-02-09 07:18:03 2.62 ℃ 100 % 992.5 hPa
2024-02-09 07:08:03 2.74 ℃ 100 % 992.54 hPa
2024-02-09 06:58:03 2.78 ℃ 100 % 992.66 hPa
2024-02-09 06:48:03 2.87 ℃ 100 % 992.73 hPa
2024-02-09 06:38:03 2.99 ℃ 100 % 992.85 hPa
2024-02-09 06:28:03 3.11 ℃ 100 % 992.96 hPa
2024-02-09 06:18:03 3.28 ℃ 100 % 993.03 hPa
2024-02-09 06:08:03 3.37 ℃ 100 % 993.2 hPa
2024-02-09 05:58:03 3.43 ℃ 100 % 993.36 hPa
2024-02-09 05:48:03 3.57 ℃ 100 % 993.42 hPa
2024-02-09 05:38:03 3.79 ℃ 100 % 993.54 hPa
2024-02-09 05:28:03 3.67 ℃ 100 % 993.68 hPa
2024-02-09 05:18:03 3.72 ℃ 100 % 993.8 hPa
2024-02-09 05:08:03 3.66 ℃ 100 % 993.93 hPa
2024-02-09 04:58:03 3.67 ℃ 100 % 994.03 hPa
2024-02-09 04:48:03 3.54 ℃ 100 % 994.15 hPa
2024-02-09 04:38:03 3.55 ℃ 100 % 994.31 hPa
2024-02-09 04:28:03 3.67 ℃ 100 % 994.38 hPa
2024-02-09 04:18:03 3.63 ℃ 100 % 994.56 hPa
2024-02-09 04:08:03 3.53 ℃ 100 % 994.74 hPa
2024-02-09 03:58:03 3.41 ℃ 100 % 994.91 hPa
2024-02-09 03:48:04 3.57 ℃ 100 % 995.08 hPa
2024-02-09 03:38:04 3.53 ℃ 100 % 995.22 hPa
2024-02-09 03:28:04 3.69 ℃ 100 % 995.38 hPa
2024-02-09 03:18:04 3.62 ℃ 100 % 995.55 hPa
2024-02-09 03:08:04 3.61 ℃ 100 % 995.68 hPa
2024-02-09 02:58:04 3.61 ℃ 100 % 995.74 hPa
2024-02-09 02:48:04 3.39 ℃ 100 % 995.8 hPa
2024-02-09 02:38:04 3.58 ℃ 100 % 995.92 hPa
2024-02-09 02:28:04 3.47 ℃ 100 % 995.99 hPa
2024-02-09 02:18:04 3.56 ℃ 100 % 996.07 hPa
2024-02-09 02:08:04 3.72 ℃ 100 % 996.14 hPa
2024-02-09 01:58:04 3.75 ℃ 100 % 996.25 hPa
2024-02-09 01:48:04 3.81 ℃ 100 % 996.4 hPa
2024-02-09 01:38:27 3.89 ℃ 100 % 996.64 hPa
2024-02-09 01:28:04 3.84 ℃ 100 % 996.78 hPa
2024-02-09 01:18:04 3.84 ℃ 100 % 996.98 hPa
2024-02-09 01:08:04 4.02 ℃ 100 % 997.18 hPa
2024-02-09 00:58:04 4.24 ℃ 100 % 997.2 hPa
2024-02-09 00:48:04 4.08 ℃ 100 % 997.24 hPa
2024-02-09 00:38:04 3.96 ℃ 100 % 997.33 hPa
2024-02-09 00:28:04 3.99 ℃ 100 % 997.5 hPa
2024-02-09 00:18:04 4.1 ℃ 100 % 997.53 hPa
2024-02-09 00:08:04 4.07 ℃ 100 % 997.61 hPa
2024-02-08 23:58:04 4.35 ℃ 100 % 997.67 hPa
2024-02-08 23:48:04 4.44 ℃ 100 % 997.75 hPa
2024-02-08 23:38:04 4.5 ℃ 100 % 997.87 hPa
2024-02-08 23:28:04 4.47 ℃ 100 % 997.93 hPa
2024-02-08 23:18:04 4.33 ℃ 100 % 997.96 hPa
2024-02-08 23:08:04 4.53 ℃ 100 % 998.07 hPa
2024-02-08 22:58:04 4.58 ℃ 100 % 998.12 hPa
2024-02-08 22:48:04 4.82 ℃ 100 % 998.14 hPa
2024-02-08 22:38:04 4.72 ℃ 100 % 998.18 hPa
2024-02-08 22:28:04 4.75 ℃ 100 % 998.19 hPa
2024-02-08 22:18:04 4.93 ℃ 100 % 998.14 hPa
2024-02-08 22:08:04 5.04 ℃ 100 % 998.13 hPa
2024-02-08 21:58:04 4.86 ℃ 100 % 998.18 hPa
2024-02-08 21:48:04 5.17 ℃ 100 % 998.26 hPa
2024-02-08 21:38:04 5.21 ℃ 100 % 998.24 hPa
2024-02-08 21:28:04 5.04 ℃ 100 % 998.19 hPa
2024-02-08 21:18:05 5.19 ℃ 100 % 998.24 hPa
2024-02-08 21:08:04 5.28 ℃ 100 % 998.31 hPa
2024-02-08 20:58:04 5.46 ℃ 100 % 998.35 hPa
2024-02-08 20:48:04 5.4 ℃ 100 % 998.39 hPa
2024-02-08 20:38:04 5.43 ℃ 100 % 998.45 hPa
2024-02-08 20:28:04 5.51 ℃ 100 % 998.5 hPa
2024-02-08 20:18:04 5.68 ℃ 100 % 998.51 hPa
2024-02-08 20:08:04 5.76 ℃ 100 % 998.58 hPa
2024-02-08 19:58:04 5.92 ℃ 100 % 998.6 hPa
2024-02-08 19:48:04 6.03 ℃ 100 % 998.64 hPa
2024-02-08 19:38:04 6.41 ℃ 100 % 998.63 hPa
2024-02-08 19:28:04 6.54 ℃ 100 % 998.61 hPa
2024-02-08 19:18:04 6.93 ℃ 100 % 998.62 hPa
2024-02-08 19:08:04 7.46 ℃ 100 % 998.64 hPa
2024-02-08 18:58:04 7.51 ℃ 100 % 998.69 hPa
2024-02-08 18:48:04 7.58 ℃ 100 % 998.73 hPa
2024-02-08 18:38:04 7.99 ℃ 100 % 998.77 hPa
2024-02-08 18:28:05 7.9 ℃ 100 % 998.8 hPa
2024-02-08 18:18:04 7.7 ℃ 100 % 998.84 hPa
2024-02-08 18:08:04 7.48 ℃ 100 % 998.85 hPa
2024-02-08 17:58:04 7.6 ℃ 100 % 998.87 hPa
2024-02-08 17:48:04 7.77 ℃ 100 % 998.83 hPa
2024-02-08 17:38:04 7.85 ℃ 100 % 998.82 hPa
2024-02-08 17:28:04 8 ℃ 100 % 998.84 hPa
2024-02-08 17:18:05 7.64 ℃ 100 % 998.88 hPa
2024-02-08 17:08:05 7.82 ℃ 100 % 998.92 hPa
2024-02-08 16:58:05 7.97 ℃ 100 % 999.02 hPa
2024-02-08 16:48:05 7.98 ℃ 100 % 999.14 hPa
2024-02-08 16:38:05 8.18 ℃ 100 % 999.32 hPa
2024-02-08 16:28:05 8.26 ℃ 100 % 999.49 hPa
2024-02-08 16:18:05 8.39 ℃ 100 % 999.66 hPa
2024-02-08 16:08:05 8.43 ℃ 100 % 999.8 hPa
2024-02-08 15:58:05 8.44 ℃ 100 % 999.86 hPa
2024-02-08 15:48:05 8.52 ℃ 100 % 999.93 hPa
2024-02-08 15:38:05 8.66 ℃ 100 % 1000.03 hPa
2024-02-08 15:28:05 8.58 ℃ 100 % 1000.11 hPa
2024-02-08 15:18:05 8.75 ℃ 100 % 1000.13 hPa
2024-02-08 15:08:05 9.1 ℃ 100 % 1000.21 hPa
2024-02-08 14:58:05 8.88 ℃ 100 % 1000.26 hPa
2024-02-08 14:48:05 9.22 ℃ 100 % 1000.33 hPa
2024-02-08 14:38:05 9.52 ℃ 100 % 1000.37 hPa
2024-02-08 14:28:05 9.68 ℃ 100 % 1000.49 hPa
2024-02-08 14:18:05 9.59 ℃ 100 % 1000.55 hPa
2024-02-08 14:08:05 9.56 ℃ 100 % 1000.61 hPa
2024-02-08 13:58:05 9.19 ℃ 100 % 1000.71 hPa
2024-02-08 13:48:05 9.2 ℃ 100 % 1000.75 hPa
2024-02-08 13:38:05 9.35 ℃ 100 % 1000.83 hPa
2024-02-08 13:28:05 8.93 ℃ 100 % 1000.91 hPa
2024-02-08 13:18:05 9.02 ℃ 100 % 1001.01 hPa
2024-02-08 13:08:05 8.98 ℃ 100 % 1001.05 hPa
2024-02-08 12:58:05 8.57 ℃ 100 % 1001.08 hPa
2024-02-08 12:48:05 8.33 ℃ 100 % 1001.17 hPa
2024-02-08 12:38:05 8.04 ℃ 100 % 1001.27 hPa
2024-02-08 12:28:05 8.16 ℃ 100 % 1001.28 hPa
2024-02-08 12:18:05 7.98 ℃ 100 % 1001.32 hPa
2024-02-08 12:08:05 8.31 ℃ 100 % 1001.38 hPa
2024-02-08 11:58:05 8.46 ℃ 100 % 1001.48 hPa
2024-02-08 11:48:05 8.63 ℃ 100 % 1001.56 hPa
2024-02-08 11:38:05 8.92 ℃ 100 % 1001.6 hPa
2024-02-08 11:28:05 8.93 ℃ 100 % 1001.65 hPa
2024-02-08 11:18:05 8.22 ℃ 100 % 1001.67 hPa
2024-02-08 11:08:05 7.68 ℃ 100 % 1001.79 hPa
2024-02-08 10:58:05 6.92 ℃ 100 % 1001.86 hPa
2024-02-08 10:48:05 6.77 ℃ 100 % 1001.91 hPa
2024-02-08 10:38:05 6.69 ℃ 100 % 1001.96 hPa
2024-02-08 10:28:05 6.86 ℃ 100 % 1002 hPa
2024-02-08 10:18:06 6.3 ℃ 100 % 1002.07 hPa
2024-02-08 10:08:05 6.01 ℃ 100 % 1002.09 hPa
2024-02-08 09:58:05 5.88 ℃ 100 % 1002.08 hPa
2024-02-08 09:48:05 5.83 ℃ 100 % 1002.05 hPa
2024-02-08 09:38:05 5.79 ℃ 100 % 1002.05 hPa
2024-02-08 09:28:05 5.92 ℃ 100 % 1002.09 hPa
2024-02-08 09:18:05 6.03 ℃ 100 % 1002.09 hPa
2024-02-08 09:08:05 6.08 ℃ 100 % 1002.06 hPa
2024-02-08 08:58:05 5.85 ℃ 100 % 1002.02 hPa
2024-02-08 08:48:05 5.59 ℃ 100 % 1002.05 hPa
2024-02-08 08:38:05 5.47 ℃ 100 % 1002.05 hPa
2024-02-08 08:28:05 5.64 ℃ 100 % 1002.06 hPa
2024-02-08 08:18:05 5.56 ℃ 100 % 1002.04 hPa
2024-02-08 08:08:05 5.66 ℃ 100 % 1002.05 hPa
2024-02-08 07:58:05 5.51 ℃ 100 % 1002.08 hPa
2024-02-08 07:48:05 5.92 ℃ 100 % 1002.1 hPa
2024-02-08 07:38:05 5.92 ℃ 100 % 1002.08 hPa
2024-02-08 07:28:05 5.85 ℃ 100 % 1002.07 hPa
2024-02-08 07:18:05 5.84 ℃ 100 % 1002.08 hPa
2024-02-08 07:08:05 5.68 ℃ 100 % 1002.16 hPa
2024-02-08 06:58:05 5.36 ℃ 100 % 1002.16 hPa
2024-02-08 06:48:05 5.05 ℃ 100 % 1002.13 hPa
2024-02-08 06:38:05 4.96 ℃ 100 % 1002.16 hPa
2024-02-08 06:28:06 5.21 ℃ 100 % 1002.08 hPa
2024-02-08 06:18:05 5.37 ℃ 100 % 1002.04 hPa
2024-02-08 06:08:06 5.45 ℃ 100 % 1002.02 hPa
2024-02-08 05:58:06 5.57 ℃ 100 % 1002.02 hPa
2024-02-08 05:48:06 5.5 ℃ 100 % 1002.04 hPa
2024-02-08 05:38:06 5.51 ℃ 100 % 1002.11 hPa
2024-02-08 05:28:06 5.45 ℃ 100 % 1002.1 hPa
2024-02-08 05:18:06 5.41 ℃ 100 % 1002.05 hPa
2024-02-08 05:08:06 4.88 ℃ 100 % 1001.98 hPa
2024-02-08 04:58:06 5.05 ℃ 100 % 1001.99 hPa
2024-02-08 04:48:06 4.94 ℃ 100 % 1002.02 hPa
2024-02-08 04:38:07 4.65 ℃ 100 % 1002.05 hPa
2024-02-08 04:28:06 4.81 ℃ 100 % 1002.07 hPa
2024-02-08 04:18:06 4.87 ℃ 100 % 1002.02 hPa
2024-02-08 04:08:06 4.87 ℃ 100 % 1002.05 hPa
2024-02-08 03:58:06 4.87 ℃ 100 % 1002.08 hPa
2024-02-08 03:48:06 4.94 ℃ 100 % 1002.09 hPa
2024-02-08 03:38:06 5.01 ℃ 100 % 1002.09 hPa
2024-02-08 03:28:06 5.3 ℃ 100 % 1002.13 hPa
2024-02-08 03:18:06 5.39 ℃ 100 % 1002.17 hPa
2024-02-08 03:08:06 4.93 ℃ 100 % 1002.19 hPa
2024-02-08 02:58:06 4.84 ℃ 100 % 1002.23 hPa
2024-02-08 02:48:06 4.86 ℃ 100 % 1002.34 hPa
2024-02-08 02:38:06 4.76 ℃ 100 % 1002.41 hPa
2024-02-08 02:28:06 4.81 ℃ 100 % 1002.53 hPa
2024-02-08 02:18:06 4.73 ℃ 100 % 1002.58 hPa
2024-02-08 02:08:07 4.15 ℃ 100 % 1002.61 hPa
2024-02-08 01:58:06 4.25 ℃ 100 % 1002.49 hPa
2024-02-08 01:48:06 4.92 ℃ 100 % 1002.24 hPa
2024-02-08 01:38:06 4.88 ℃ 100 % 1002.12 hPa
2024-02-08 01:28:06 4.98 ℃ 100 % 1002.19 hPa
2024-02-08 01:18:06 4.9 ℃ 100 % 1002.26 hPa
2024-02-08 01:08:06 4.9 ℃ 100 % 1002.34 hPa
2024-02-08 00:58:06 4.93 ℃ 100 % 1002.39 hPa
2024-02-08 00:48:06 5.02 ℃ 100 % 1002.37 hPa
2024-02-08 00:38:06 5.01 ℃ 100 % 1002.38 hPa
2024-02-08 00:28:06 4.83 ℃ 100 % 1002.44 hPa
2024-02-08 00:18:06 4.87 ℃ 100 % 1002.47 hPa
2024-02-08 00:08:06 4.87 ℃ 100 % 1002.52 hPa
2024-02-07 23:58:06 5.13 ℃ 100 % 1002.6 hPa
2024-02-07 23:48:06 5.05 ℃ 100 % 1002.67 hPa
2024-02-07 23:38:06 5.28 ℃ 100 % 1002.74 hPa
2024-02-07 23:28:06 5.94 ℃ 100 % 1002.8 hPa
2024-02-07 23:18:06 5.99 ℃ 100 % 1002.84 hPa
2024-02-07 23:08:06 6.03 ℃ 100 % 1002.9 hPa
2024-02-07 22:58:06 5.85 ℃ 100 % 1002.93 hPa
2024-02-07 22:48:06 5.59 ℃ 100 % 1002.97 hPa
2024-02-07 22:38:06 5.46 ℃ 100 % 1002.98 hPa
2024-02-07 22:28:06 5.61 ℃ 100 % 1003.06 hPa
2024-02-07 22:18:06 5.9 ℃ 100 % 1003.11 hPa
2024-02-07 22:08:06 5.69 ℃ 100 % 1003.11 hPa
2024-02-07 21:58:06 5.79 ℃ 100 % 1003.2 hPa
2024-02-07 21:48:06 5.83 ℃ 100 % 1003.31 hPa
2024-02-07 21:38:06 5.76 ℃ 100 % 1003.38 hPa
2024-02-07 21:28:06 5.68 ℃ 100 % 1003.48 hPa
2024-02-07 21:18:06 5.58 ℃ 100 % 1003.52 hPa
2024-02-07 21:08:06 5.39 ℃ 100 % 1003.55 hPa
2024-02-07 20:58:06 5.54 ℃ 100 % 1003.6 hPa
2024-02-07 20:48:06 5.6 ℃ 100 % 1003.64 hPa
2024-02-07 20:38:07 5.53 ℃ 100 % 1003.62 hPa
2024-02-07 20:28:06 5.42 ℃ 100 % 1003.69 hPa
2024-02-07 20:18:06 5.44 ℃ 100 % 1003.72 hPa
2024-02-07 20:08:06 5.65 ℃ 100 % 1003.78 hPa
2024-02-07 19:58:06 5.5 ℃ 100 % 1003.87 hPa
2024-02-07 19:48:07 5.74 ℃ 100 % 1003.88 hPa
2024-02-07 19:38:07 5.76 ℃ 100 % 1003.87 hPa
2024-02-07 19:28:07 6 ℃ 100 % 1003.9 hPa
2024-02-07 19:18:06 6.01 ℃ 100 % 1003.92 hPa
2024-02-07 19:08:07 6.22 ℃ 100 % 1003.89 hPa
2024-02-07 18:58:07 6.31 ℃ 100 % 1003.94 hPa
2024-02-07 18:48:07 6.36 ℃ 100 % 1003.95 hPa
2024-02-07 18:38:07 6.56 ℃ 100 % 1003.99 hPa
2024-02-07 18:28:07 6.96 ℃ 100 % 1004 hPa
2024-02-07 18:18:07 6.87 ℃ 100 % 1004.02 hPa
2024-02-07 18:08:07 6.91 ℃ 100 % 1003.99 hPa
2024-02-07 17:58:07 6.81 ℃ 100 % 1003.96 hPa
2024-02-07 17:48:07 6.91 ℃ 100 % 1003.96 hPa
2024-02-07 17:38:07 7.04 ℃ 100 % 1003.93 hPa
2024-02-07 17:28:07 6.83 ℃ 100 % 1003.9 hPa
2024-02-07 17:18:07 6.54 ℃ 100 % 1003.89 hPa
2024-02-07 17:08:07 6.43 ℃ 100 % 1003.9 hPa
2024-02-07 16:58:07 6.35 ℃ 100 % 1003.92 hPa
2024-02-07 16:48:07 6.33 ℃ 100 % 1003.93 hPa
2024-02-07 16:38:07 6.33 ℃ 100 % 1003.86 hPa
2024-02-07 16:28:07 6.18 ℃ 100 % 1003.81 hPa
2024-02-07 16:18:07 6.44 ℃ 100 % 1003.78 hPa
2024-02-07 16:08:07 6.48 ℃ 100 % 1003.78 hPa
2024-02-07 15:58:07 6.5 ℃ 100 % 1003.77 hPa
2024-02-07 15:48:07 6.55 ℃ 100 % 1003.78 hPa
2024-02-07 15:38:07 6.46 ℃ 100 % 1003.79 hPa
2024-02-07 15:28:07 6.2 ℃ 100 % 1003.78 hPa
2024-02-07 15:18:07 6.1 ℃ 100 % 1003.76 hPa
2024-02-07 15:08:07 6.41 ℃ 100 % 1003.65 hPa
2024-02-07 14:58:07 6.91 ℃ 100 % 1003.47 hPa
2024-02-07 14:48:07 7.15 ℃ 100 % 1003.36 hPa
2024-02-07 14:38:07 7.31 ℃ 100 % 1003.29 hPa
2024-02-07 14:28:07 7.8 ℃ 100 % 1003.21 hPa
2024-02-07 14:18:07 7.26 ℃ 100 % 1003.19 hPa
2024-02-07 14:08:07 7.13 ℃ 100 % 1003.1 hPa
2024-02-07 13:58:07 7.1 ℃ 100 % 1003.02 hPa
2024-02-07 13:48:07 7.14 ℃ 100 % 1002.97 hPa
2024-02-07 13:38:07 7.32 ℃ 100 % 1002.9 hPa
2024-02-07 13:28:07 7.08 ℃ 100 % 1002.95 hPa
2024-02-07 13:18:07 7.29 ℃ 100 % 1002.86 hPa
2024-02-07 13:08:07 7.56 ℃ 100 % 1002.81 hPa
2024-02-07 12:58:07 7.82 ℃ 100 % 1002.77 hPa
2024-02-07 12:48:07 7.02 ℃ 100 % 1002.79 hPa
2024-02-07 12:38:07 6.82 ℃ 100 % 1002.83 hPa
2024-02-07 12:28:07 6.67 ℃ 100 % 1002.78 hPa
2024-02-07 12:18:07 6.46 ℃ 100 % 1002.62 hPa
2024-02-07 12:08:07 6.74 ℃ 100 % 1002.51 hPa
2024-02-07 11:58:07 6.61 ℃ 100 % 1002.45 hPa
2024-02-07 11:48:07 6.33 ℃ 100 % 1002.4 hPa
2024-02-07 11:38:07 6.56 ℃ 100 % 1002.26 hPa
2024-02-07 11:28:07 6.71 ℃ 100 % 1002.13 hPa
2024-02-07 11:18:07 6.62 ℃ 100 % 1001.95 hPa
2024-02-07 11:08:07 6.92 ℃ 100 % 1001.79 hPa
2024-02-07 10:58:07 6.72 ℃ 100 % 1001.67 hPa
2024-02-07 10:48:07 6.62 ℃ 100 % 1001.59 hPa
2024-02-07 10:38:07 6.49 ℃ 100 % 1001.41 hPa
2024-02-07 10:28:07 6.34 ℃ 100 % 1001.36 hPa
2024-02-07 10:18:07 6.14 ℃ 100 % 1001.31 hPa
2024-02-07 10:08:07 6.05 ℃ 100 % 1001.2 hPa
2024-02-07 09:58:07 6.05 ℃ 100 % 1001.05 hPa
2024-02-07 09:48:07 5.89 ℃ 100 % 1000.87 hPa
2024-02-07 09:38:07 5.68 ℃ 100 % 1000.73 hPa
2024-02-07 09:28:08 5.55 ℃ 100 % 1000.61 hPa
2024-02-07 09:18:08 5.51 ℃ 100 % 1000.42 hPa
2024-02-07 09:08:08 5.56 ℃ 100 % 1000.2 hPa
2024-02-07 08:58:08 5.58 ℃ 100 % 999.98 hPa
2024-02-07 08:48:08 5.69 ℃ 100 % 999.75 hPa
2024-02-07 08:38:08 5.85 ℃ 100 % 999.51 hPa
2024-02-07 08:28:08 6.01 ℃ 100 % 999.24 hPa
2024-02-07 08:18:08 6.19 ℃ 100 % 999.14 hPa
2024-02-07 08:08:08 6.01 ℃ 100 % 999.02 hPa
2024-02-07 07:58:08 5.95 ℃ 100 % 998.87 hPa
2024-02-07 07:48:08 6.11 ℃ 100 % 998.74 hPa
2024-02-07 07:38:08 6.2 ℃ 100 % 998.59 hPa
2024-02-07 07:28:17 6.31 ℃ 100 % 998.41 hPa
2024-02-07 07:18:08 6.17 ℃ 100 % 998.29 hPa
2024-02-07 07:08:08 6 ℃ 100 % 998.23 hPa
2024-02-07 06:58:08 5.88 ℃ 100 % 998.09 hPa
2024-02-07 06:48:08 6.14 ℃ 100 % 997.9 hPa
2024-02-07 06:38:08 6.25 ℃ 100 % 997.7 hPa
2024-02-07 06:28:08 6.12 ℃ 100 % 997.53 hPa
2024-02-07 06:18:08 6.17 ℃ 100 % 997.42 hPa
2024-02-07 06:08:08 6.26 ℃ 100 % 997.25 hPa
2024-02-07 05:58:08 6.45 ℃ 100 % 997.17 hPa
2024-02-07 05:48:08 6.28 ℃ 100 % 997.13 hPa
2024-02-07 05:38:08 6.21 ℃ 100 % 997.05 hPa
2024-02-07 05:28:08 6.33 ℃ 100 % 996.92 hPa
2024-02-07 05:18:08 6.35 ℃ 100 % 996.84 hPa
2024-02-07 05:08:08 6.59 ℃ 100 % 996.67 hPa
2024-02-07 04:58:08 6.81 ℃ 100 % 996.47 hPa
2024-02-07 04:48:08 7.07 ℃ 100 % 996.26 hPa
2024-02-07 04:38:08 7.23 ℃ 100 % 996.03 hPa
2024-02-07 04:28:08 7.34 ℃ 100 % 995.83 hPa
2024-02-07 04:18:08 7.49 ℃ 100 % 995.62 hPa
2024-02-07 04:08:08 7.53 ℃ 100 % 995.55 hPa
2024-02-07 03:58:08 7.57 ℃ 100 % 995.61 hPa
2024-02-07 03:48:08 7.64 ℃ 100 % 995.63 hPa
2024-02-07 03:38:08 7.69 ℃ 100 % 995.65 hPa
2024-02-07 03:28:08 7.53 ℃ 100 % 995.66 hPa
2024-02-07 03:18:08 7.55 ℃ 100 % 995.66 hPa
2024-02-07 03:08:08 7.61 ℃ 100 % 995.71 hPa
2024-02-07 02:58:08 7.71 ℃ 100 % 995.68 hPa
2024-02-07 02:48:08 7.61 ℃ 100 % 995.66 hPa
2024-02-07 02:38:08 7.77 ℃ 100 % 995.61 hPa
2024-02-07 02:28:08 7.68 ℃ 100 % 995.57 hPa
2024-02-07 02:18:08 7.96 ℃ 100 % 995.57 hPa
2024-02-07 02:08:08 7.81 ℃ 100 % 995.56 hPa
2024-02-07 01:58:08 8.04 ℃ 100 % 995.55 hPa
2024-02-07 01:48:08 7.97 ℃ 100 % 995.54 hPa
2024-02-07 01:38:08 8.03 ℃ 100 % 995.62 hPa
2024-02-07 01:28:08 8.08 ℃ 100 % 995.64 hPa
2024-02-07 01:18:08 7.98 ℃ 100 % 995.7 hPa
2024-02-07 01:08:08 7.93 ℃ 100 % 995.69 hPa
2024-02-07 00:58:08 7.87 ℃ 100 % 995.73 hPa
2024-02-07 00:48:08 7.98 ℃ 100 % 995.72 hPa
2024-02-07 00:38:08 8.03 ℃ 100 % 995.75 hPa
2024-02-07 00:28:08 8.03 ℃ 100 % 995.81 hPa
2024-02-07 00:18:08 7.98 ℃ 100 % 995.79 hPa
2024-02-07 00:08:08 8.01 ℃ 100 % 995.8 hPa
2024-02-06 23:58:08 7.91 ℃ 100 % 995.86 hPa
2024-02-06 23:48:08 7.89 ℃ 100 % 995.89 hPa
2024-02-06 23:38:08 7.72 ℃ 100 % 995.9 hPa
2024-02-06 23:28:08 7.79 ℃ 100 % 995.94 hPa
2024-02-06 23:18:08 7.81 ℃ 100 % 995.98 hPa
2024-02-06 23:08:08 7.96 ℃ 100 % 996.04 hPa
2024-02-06 22:58:08 7.93 ℃ 100 % 996.04 hPa
2024-02-06 22:48:08 8 ℃ 100 % 996.05 hPa
2024-02-06 22:38:09 8.07 ℃ 100 % 996.06 hPa
2024-02-06 22:28:09 8.04 ℃ 100 % 996.03 hPa
2024-02-06 22:18:09 8.09 ℃ 100 % 996.1 hPa
2024-02-06 22:08:09 8.13 ℃ 100 % 996.12 hPa
2024-02-06 21:58:09 8.15 ℃ 100 % 996.14 hPa
2024-02-06 21:48:09 8.05 ℃ 100 % 996.18 hPa
2024-02-06 21:38:09 8.11 ℃ 100 % 996.14 hPa
2024-02-06 21:28:09 8.15 ℃ 100 % 996.07 hPa
2024-02-06 21:18:09 8.17 ℃ 100 % 995.94 hPa
2024-02-06 21:08:09 8.12 ℃ 100 % 995.89 hPa
2024-02-06 20:58:09 8.15 ℃ 100 % 995.83 hPa
2024-02-06 20:48:09 8.12 ℃ 100 % 995.84 hPa
2024-02-06 20:38:09 8.05 ℃ 100 % 995.83 hPa
2024-02-06 20:28:09 8.03 ℃ 100 % 995.78 hPa
2024-02-06 20:18:09 8.05 ℃ 100 % 995.72 hPa
2024-02-06 20:08:09 7.88 ℃ 100 % 995.81 hPa
2024-02-06 19:58:09 7.93 ℃ 100 % 995.78 hPa
2024-02-06 19:48:09 8.06 ℃ 100 % 995.77 hPa
2024-02-06 19:38:09 8.1 ℃ 100 % 995.75 hPa
2024-02-06 19:28:09 8.31 ℃ 100 % 995.76 hPa
2024-02-06 19:18:09 8.6 ℃ 100 % 995.72 hPa
2024-02-06 19:08:09 8.86 ℃ 100 % 995.57 hPa
2024-02-06 18:58:09 9.35 ℃ 100 % 995.36 hPa
2024-02-06 18:48:09 10.11 ℃ 100 % 995.11 hPa
2024-02-06 18:38:09 10.14 ℃ 100 % 994.81 hPa
2024-02-06 18:28:09 10.21 ℃ 100 % 994.72 hPa
2024-02-06 18:18:09 10.31 ℃ 100 % 994.74 hPa
2024-02-06 18:08:09 10.52 ℃ 100 % 994.53 hPa
2024-02-06 17:58:09 10.49 ℃ 100 % 994.56 hPa
2024-02-06 17:48:09 10.47 ℃ 100 % 994.59 hPa
2024-02-06 17:38:09 10.5 ℃ 100 % 994.66 hPa
2024-02-06 17:28:09 10.62 ℃ 100 % 994.74 hPa
2024-02-06 17:18:09 10.64 ℃ 100 % 994.83 hPa
2024-02-06 17:08:09 10.68 ℃ 100 % 994.97 hPa
2024-02-06 16:58:09 10.82 ℃ 100 % 995.1 hPa
2024-02-06 16:48:09 10.77 ℃ 100 % 995.21 hPa
2024-02-06 16:38:09 10.89 ℃ 100 % 995.26 hPa
2024-02-06 16:28:09 10.85 ℃ 100 % 995.39 hPa
2024-02-06 16:18:09 10.91 ℃ 100 % 995.46 hPa
2024-02-06 16:08:09 10.85 ℃ 100 % 995.52 hPa
2024-02-06 15:58:09 10.96 ℃ 100 % 995.6 hPa
2024-02-06 15:48:09 11.02 ℃ 100 % 995.64 hPa
2024-02-06 15:38:09 10.91 ℃ 100 % 995.8 hPa
2024-02-06 15:28:09 10.94 ℃ 100 % 995.9 hPa
2024-02-06 15:18:09 10.97 ℃ 100 % 996.02 hPa
2024-02-06 15:08:09 11.17 ℃ 100 % 996.16 hPa
2024-02-06 14:58:09 11.1 ℃ 100 % 996.18 hPa
2024-02-06 14:48:09 11.2 ℃ 100 % 996.37 hPa
2024-02-06 14:38:09 11.33 ℃ 100 % 996.46 hPa
2024-02-06 14:28:09 11.29 ℃ 100 % 996.67 hPa
2024-02-06 14:18:09 11.43 ℃ 100 % 996.83 hPa
2024-02-06 14:08:09 11.33 ℃ 100 % 996.91 hPa
2024-02-06 13:58:10 11.3 ℃ 100 % 997.02 hPa
2024-02-06 13:48:09 11.28 ℃ 100 % 997.16 hPa
2024-02-06 13:38:09 11.35 ℃ 100 % 997.31 hPa
2024-02-06 13:28:09 11.36 ℃ 100 % 997.44 hPa
2024-02-06 13:18:09 11.37 ℃ 100 % 997.59 hPa
2024-02-06 13:08:09 11.28 ℃ 100 % 997.77 hPa
2024-02-06 12:58:09 11.27 ℃ 100 % 997.93 hPa
2024-02-06 12:48:09 11.23 ℃ 100 % 998.04 hPa
2024-02-06 12:38:09 11.32 ℃ 100 % 998.15 hPa
2024-02-06 12:28:09 11.31 ℃ 100 % 998.31 hPa
2024-02-06 12:18:09 11.25 ℃ 100 % 998.43 hPa
2024-02-06 12:08:09 11.29 ℃ 100 % 998.5 hPa
2024-02-06 11:58:10 11.28 ℃ 100 % 998.64 hPa
2024-02-06 11:48:09 11.19 ℃ 100 % 998.7 hPa
2024-02-06 11:38:10 11.28 ℃ 100 % 998.78 hPa
2024-02-06 11:28:10 11.28 ℃ 100 % 998.9 hPa
2024-02-06 11:18:09 11.32 ℃ 100 % 998.85 hPa
2024-02-06 11:08:10 11.53 ℃ 100 % 998.86 hPa
2024-02-06 10:58:10 11.56 ℃ 100 % 998.82 hPa
2024-02-06 10:48:10 11.45 ℃ 100 % 998.86 hPa
2024-02-06 10:38:10 11.51 ℃ 100 % 998.94 hPa
2024-02-06 10:28:10 11.52 ℃ 100 % 999.13 hPa
2024-02-06 10:18:10 11.4 ℃ 100 % 999.18 hPa
2024-02-06 10:08:10 11.26 ℃ 100 % 999.2 hPa
2024-02-06 09:58:10 11.43 ℃ 100 % 999.27 hPa
2024-02-06 09:48:10 11.48 ℃ 100 % 999.32 hPa
2024-02-06 09:38:10 11.36 ℃ 100 % 999.29 hPa
2024-02-06 09:28:10 11.26 ℃ 100 % 999.51 hPa
2024-02-06 09:18:10 11.27 ℃ 100 % 999.57 hPa
2024-02-06 09:08:10 11.25 ℃ 100 % 999.52 hPa
2024-02-06 08:58:10 11.21 ℃ 100 % 999.67 hPa
2024-02-06 08:48:10 11.11 ℃ 100 % 999.72 hPa
2024-02-06 08:38:10 10.96 ℃ 100 % 999.82 hPa
2024-02-06 08:28:10 10.89 ℃ 100 % 999.94 hPa
2024-02-06 08:18:10 10.69 ℃ 100 % 1000.01 hPa
2024-02-06 08:08:10 10.77 ℃ 100 % 1000 hPa
2024-02-06 07:58:10 10.78 ℃ 100 % 1000.03 hPa
2024-02-06 07:48:10 10.67 ℃ 100 % 1000.06 hPa
2024-02-06 07:38:10 10.48 ℃ 100 % 1000.17 hPa
2024-02-06 07:28:10 10.2 ℃ 100 % 1000.23 hPa
2024-02-06 05:42:12 10.23 ℃ 100 % 1001.53 hPa
2024-02-06 05:32:12 10.01 ℃ 100 % 1001.64 hPa
2024-02-06 05:22:12 9.98 ℃ 100 % 1001.76 hPa
2024-02-06 05:12:12 9.9 ℃ 100 % 1001.91 hPa
2024-02-06 05:02:12 9.87 ℃ 100 % 1002.04 hPa
2024-02-06 04:52:12 9.78 ℃ 100 % 1002.08 hPa
2024-02-06 04:42:12 9.75 ℃ 100 % 1002.19 hPa
2024-02-06 04:32:12 9.79 ℃ 100 % 1002.25 hPa
2024-02-06 04:22:12 9.83 ℃ 100 % 1002.33 hPa
2024-02-06 04:12:12 9.84 ℃ 100 % 1002.4 hPa
2024-02-06 04:02:12 9.7 ℃ 100 % 1002.54 hPa
2024-02-06 03:52:12 9.67 ℃ 100 % 1002.67 hPa
2024-02-06 03:42:12 9.69 ℃ 100 % 1002.7 hPa
2024-02-06 03:32:12 9.65 ℃ 100 % 1002.89 hPa
2024-02-06 03:22:12 9.58 ℃ 100 % 1002.98 hPa
2024-02-06 03:12:12 9.69 ℃ 100 % 1003.09 hPa
2024-02-06 03:02:12 9.63 ℃ 100 % 1003.14 hPa
2024-02-06 02:52:12 9.59 ℃ 100 % 1003.22 hPa
2024-02-06 02:42:12 9.6 ℃ 100 % 1003.28 hPa
2024-02-06 02:32:12 9.53 ℃ 100 % 1003.38 hPa
2024-02-06 02:22:12 9.58 ℃ 100 % 1003.44 hPa
2024-02-06 02:12:12 9.63 ℃ 100 % 1003.44 hPa
2024-02-06 02:02:12 9.57 ℃ 100 % 1003.59 hPa
2024-02-06 01:52:12 9.7 ℃ 100 % 1003.69 hPa
2024-02-06 01:42:12 9.63 ℃ 100 % 1003.88 hPa
2024-02-06 01:32:13 9.8 ℃ 100 % 1004.03 hPa
2024-02-06 01:22:12 9.74 ℃ 100 % 1004.08 hPa
2024-02-06 01:12:13 9.74 ℃ 100 % 1004.13 hPa
2024-02-06 01:02:13 9.84 ℃ 100 % 1004.16 hPa
2024-02-06 00:52:13 9.88 ℃ 100 % 1004.28 hPa
2024-02-06 00:42:13 9.92 ℃ 100 % 1004.35 hPa
2024-02-06 00:32:13 9.93 ℃ 100 % 1004.39 hPa
2024-02-06 00:22:13 10.07 ℃ 100 % 1004.37 hPa
2024-02-06 00:12:13 10.12 ℃ 100 % 1004.43 hPa
2024-02-06 00:02:13 10.16 ℃ 100 % 1004.44 hPa
2024-02-05 23:52:13 10.14 ℃ 100 % 1004.43 hPa
2024-02-05 23:42:13 10.16 ℃ 100 % 1004.41 hPa
2024-02-05 23:32:13 10.24 ℃ 100 % 1004.46 hPa
2024-02-05 23:22:13 10.18 ℃ 100 % 1004.48 hPa
2024-02-05 23:12:13 10.14 ℃ 100 % 1004.51 hPa
2024-02-05 23:02:13 10.16 ℃ 100 % 1004.57 hPa
2024-02-05 22:52:13 10.19 ℃ 100 % 1004.72 hPa
2024-02-05 22:42:13 10.1 ℃ 100 % 1004.8 hPa
2024-02-05 22:32:13 10.1 ℃ 100 % 1004.9 hPa
2024-02-05 22:22:13 10.03 ℃ 100 % 1004.96 hPa
2024-02-05 22:12:13 10.05 ℃ 100 % 1004.94 hPa
2024-02-05 22:02:13 10.01 ℃ 100 % 1004.97 hPa
2024-02-05 21:52:13 10.01 ℃ 100 % 1004.99 hPa
2024-02-05 21:42:13 9.97 ℃ 100 % 1005.14 hPa
2024-02-05 21:32:13 9.86 ℃ 100 % 1005.26 hPa
2024-02-05 21:22:13 9.89 ℃ 100 % 1005.43 hPa
2024-02-05 21:12:13 9.8 ℃ 100 % 1005.56 hPa
2024-02-05 21:02:13 9.66 ℃ 100 % 1005.62 hPa
2024-02-05 20:52:13 9.57 ℃ 100 % 1005.62 hPa
2024-02-05 20:32:13 9.51 ℃ 100 % 1005.8 hPa
2024-02-05 20:22:13 9.66 ℃ 100 % 1005.88 hPa
2024-02-05 20:12:13 9.71 ℃ 100 % 1005.87 hPa
2024-02-05 20:02:13 9.88 ℃ 100 % 1005.86 hPa
2024-02-05 19:52:13 9.93 ℃ 100 % 1005.94 hPa
2024-02-05 19:42:13 9.96 ℃ 100 % 1006 hPa
2024-02-05 19:32:13 9.81 ℃ 100 % 1006.07 hPa
2024-02-05 19:22:13 9.74 ℃ 100 % 1006.11 hPa
2024-02-05 19:12:13 9.64 ℃ 100 % 1006.12 hPa
2024-02-05 19:02:14 9.56 ℃ 100 % 1006.14 hPa
2024-02-05 18:52:13 9.54 ℃ 100 % 1006.3 hPa
2024-02-05 18:42:13 9.53 ℃ 100 % 1006.42 hPa
2024-02-05 18:32:13 9.41 ℃ 100 % 1006.56 hPa
2024-02-05 18:22:13 9.41 ℃ 100 % 1006.54 hPa
2024-02-05 18:12:13 9.32 ℃ 100 % 1006.75 hPa
2024-02-05 18:02:13 9.34 ℃ 100 % 1006.78 hPa
2024-02-05 17:52:14 9.29 ℃ 100 % 1006.88 hPa
2024-02-05 17:42:13 9.19 ℃ 100 % 1006.82 hPa
2024-02-05 17:32:13 9.22 ℃ 100 % 1006.83 hPa
2024-02-05 17:22:13 9.2 ℃ 100 % 1006.97 hPa
2024-02-05 17:12:13 9.11 ℃ 100 % 1007 hPa
2024-02-05 17:02:13 9.17 ℃ 100 % 1006.94 hPa
2024-02-05 16:52:13 9.15 ℃ 100 % 1006.98 hPa
2024-02-05 16:42:13 9.15 ℃ 100 % 1007.01 hPa
2024-02-05 16:32:13 9.13 ℃ 100 % 1006.92 hPa
2024-02-05 16:22:13 9.12 ℃ 100 % 1006.89 hPa
2024-02-05 16:12:13 9.13 ℃ 100 % 1006.89 hPa
2024-02-05 16:02:14 9.26 ℃ 100 % 1006.96 hPa
2024-02-05 15:52:13 9.35 ℃ 100 % 1007.06 hPa
2024-02-05 15:42:13 9.34 ℃ 100 % 1007.06 hPa
2024-02-05 15:32:13 9.34 ℃ 100 % 1007.08 hPa
2024-02-05 15:22:13 9.43 ℃ 100 % 1007.09 hPa
2024-02-05 15:12:13 9.39 ℃ 100 % 1007.03 hPa
2024-02-05 15:02:13 9.39 ℃ 100 % 1007.04 hPa
2024-02-05 14:52:13 9.53 ℃ 100 % 1007.14 hPa
2024-02-05 14:42:13 9.53 ℃ 100 % 1007.15 hPa
2024-02-05 14:32:14 9.52 ℃ 100 % 1007.1 hPa
2024-02-05 14:22:14 9.41 ℃ 100 % 1007.18 hPa
2024-02-05 14:12:14 9.44 ℃ 100 % 1007.34 hPa
2024-02-05 14:02:14 9.56 ℃ 100 % 1007.26 hPa
2024-02-05 13:52:14 9.59 ℃ 100 % 1007.18 hPa
2024-02-05 13:42:14 9.62 ℃ 100 % 1007.2 hPa
2024-02-05 13:32:14 9.63 ℃ 100 % 1007.13 hPa
2024-02-05 13:22:14 9.65 ℃ 100 % 1007.19 hPa
2024-02-05 13:12:14 9.68 ℃ 100 % 1007.26 hPa
2024-02-05 13:02:14 9.73 ℃ 100 % 1007.3 hPa
2024-02-05 12:52:14 9.72 ℃ 100 % 1007.32 hPa
2024-02-05 12:42:14 9.91 ℃ 100 % 1007.41 hPa
2024-02-05 12:32:14 9.76 ℃ 100 % 1007.43 hPa
2024-02-05 12:22:14 9.78 ℃ 100 % 1007.55 hPa
2024-02-05 12:12:14 9.66 ℃ 100 % 1007.55 hPa
2024-02-05 12:02:14 9.67 ℃ 100 % 1007.56 hPa
2024-02-05 11:52:14 9.82 ℃ 100 % 1007.59 hPa
2024-02-05 11:42:14 9.77 ℃ 100 % 1007.67 hPa
2024-02-05 11:32:14 9.68 ℃ 100 % 1007.7 hPa
2024-02-05 11:22:14 9.64 ℃ 100 % 1007.77 hPa
2024-02-05 11:12:14 9.61 ℃ 100 % 1007.77 hPa
2024-02-05 11:02:14 9.52 ℃ 100 % 1007.88 hPa
2024-02-05 10:52:14 9.67 ℃ 100 % 1007.89 hPa
2024-02-05 10:42:14 9.6 ℃ 100 % 1007.86 hPa
2024-02-05 10:32:14 9.66 ℃ 100 % 1007.88 hPa
2024-02-05 10:22:14 9.65 ℃ 100 % 1007.81 hPa
2024-02-05 10:12:14 9.64 ℃ 100 % 1007.74 hPa
2024-02-05 10:02:14 9.68 ℃ 100 % 1007.65 hPa
2024-02-05 09:52:14 9.68 ℃ 100 % 1007.57 hPa
2024-02-05 09:42:14 9.63 ℃ 100 % 1007.48 hPa
2024-02-05 09:32:14 9.64 ℃ 100 % 1007.41 hPa
2024-02-05 09:22:14 9.68 ℃ 100 % 1007.27 hPa
2024-02-05 09:12:14 9.74 ℃ 100 % 1007.28 hPa
2024-02-05 09:02:14 9.86 ℃ 100 % 1007.18 hPa
2024-02-05 08:52:14 9.9 ℃ 100 % 1007.16 hPa
2024-02-05 08:42:14 9.97 ℃ 100 % 1007.1 hPa
2024-02-05 08:32:14 9.97 ℃ 100 % 1007.04 hPa
2024-02-05 08:22:14 9.92 ℃ 100 % 1007.02 hPa
2024-02-05 08:12:14 9.86 ℃ 100 % 1006.95 hPa
2024-02-05 08:02:14 9.97 ℃ 100 % 1006.92 hPa
2024-02-05 07:52:14 9.93 ℃ 100 % 1006.97 hPa
2024-02-05 07:42:14 10 ℃ 100 % 1007.05 hPa
2024-02-05 07:32:14 10.1 ℃ 100 % 1007.09 hPa
2024-02-05 07:22:14 9.99 ℃ 100 % 1007.13 hPa
2024-02-05 07:12:14 9.99 ℃ 100 % 1007.07 hPa
2024-02-05 07:02:15 10.06 ℃ 100 % 1007.02 hPa
2024-02-05 04:44:27 9.68 ℃ 100 % 1007.75 hPa
2024-02-05 04:34:27 9.58 ℃ 100 % 1007.67 hPa
2024-02-05 04:24:27 9.82 ℃ 100 % 1007.69 hPa
2024-02-05 04:14:27 9.82 ℃ 100 % 1007.72 hPa
2024-02-05 04:04:27 9.86 ℃ 100 % 1007.68 hPa
2024-02-05 03:54:27 9.88 ℃ 100 % 1007.8 hPa
2024-02-05 03:44:27 9.89 ℃ 100 % 1007.84 hPa
2024-02-05 03:34:27 10.01 ℃ 100 % 1007.86 hPa
2024-02-05 03:24:27 9.82 ℃ 100 % 1007.84 hPa
2024-02-05 03:14:27 9.85 ℃ 100 % 1007.79 hPa
2024-02-05 03:04:27 9.79 ℃ 100 % 1007.74 hPa
2024-02-05 02:54:27 9.91 ℃ 100 % 1007.7 hPa
2024-02-05 02:44:27 9.74 ℃ 100 % 1007.67 hPa
2024-02-05 02:34:27 9.84 ℃ 100 % 1007.56 hPa
2024-02-05 02:24:27 9.83 ℃ 100 % 1007.43 hPa
2024-02-05 02:14:27 9.88 ℃ 100 % 1007.37 hPa
2024-02-05 02:04:27 9.84 ℃ 100 % 1007.41 hPa
2024-02-05 01:54:27 9.93 ℃ 100 % 1007.44 hPa
2024-02-05 01:44:27 9.84 ℃ 100 % 1007.44 hPa
2024-02-05 01:34:27 10 ℃ 100 % 1007.35 hPa
2024-02-05 01:24:27 10.14 ℃ 100 % 1007.27 hPa
2024-02-05 01:14:27 10.2 ℃ 100 % 1007.15 hPa
2024-02-05 01:04:27 9.91 ℃ 100 % 1007.15 hPa
2024-02-05 00:54:27 9.99 ℃ 100 % 1007.06 hPa
2024-02-05 00:44:27 10.04 ℃ 100 % 1006.99 hPa
2024-02-05 00:34:27 9.98 ℃ 100 % 1006.89 hPa
2024-02-05 00:24:27 9.84 ℃ 100 % 1006.79 hPa
2024-02-05 00:14:27 9.87 ℃ 100 % 1006.78 hPa
2024-02-05 00:04:28 9.89 ℃ 100 % 1006.8 hPa
2024-02-04 23:54:27 9.84 ℃ 100 % 1006.83 hPa
2024-02-04 23:44:27 9.65 ℃ 100 % 1006.93 hPa
2024-02-04 23:34:27 9.59 ℃ 100 % 1006.94 hPa
2024-02-04 23:24:27 9.63 ℃ 100 % 1006.99 hPa
2024-02-04 23:14:27 9.38 ℃ 100 % 1006.97 hPa
2024-02-04 23:04:27 9.42 ℃ 100 % 1007.09 hPa
2024-02-04 22:54:27 9.37 ℃ 100 % 1007.28 hPa
2024-02-04 22:44:28 9.38 ℃ 100 % 1007.43 hPa
2024-02-04 22:34:28 9.34 ℃ 100 % 1007.63 hPa
2024-02-04 22:24:28 9.36 ℃ 100 % 1007.71 hPa
2024-02-04 22:14:28 9.28 ℃ 100 % 1007.74 hPa
2024-02-04 22:04:28 9.25 ℃ 100 % 1007.83 hPa
2024-02-04 21:54:28 9.18 ℃ 100 % 1007.91 hPa
2024-02-04 21:44:28 9.1 ℃ 100 % 1007.96 hPa
2024-02-04 21:34:28 9.11 ℃ 100 % 1008.07 hPa
2024-02-04 21:24:28 9.26 ℃ 100 % 1008.26 hPa
2024-02-04 21:14:28 9.24 ℃ 100 % 1008.3 hPa
2024-02-04 21:04:28 9.14 ℃ 100 % 1008.33 hPa
2024-02-04 20:54:28 9.23 ℃ 100 % 1008.47 hPa
2024-02-04 20:44:28 9.13 ℃ 100 % 1008.57 hPa
2024-02-04 20:34:28 9.23 ℃ 100 % 1008.6 hPa
2024-02-04 20:24:28 9.08 ℃ 100 % 1008.75 hPa
2024-02-04 20:14:28 9.07 ℃ 100 % 1008.97 hPa
2024-02-04 20:04:28 9.2 ℃ 100 % 1009.15 hPa
2024-02-04 19:54:28 9.14 ℃ 100 % 1009.25 hPa
2024-02-04 19:44:28 9.03 ℃ 100 % 1009.42 hPa
2024-02-04 19:34:28 8.98 ℃ 100 % 1009.54 hPa
2024-02-04 19:24:28 8.95 ℃ 100 % 1009.67 hPa
2024-02-04 19:14:28 9 ℃ 100 % 1009.75 hPa
2024-02-04 19:04:28 9.02 ℃ 100 % 1009.79 hPa
2024-02-04 18:54:28 9.06 ℃ 100 % 1009.84 hPa
2024-02-04 18:44:28 9.01 ℃ 100 % 1009.84 hPa
2024-02-04 18:34:28 9.11 ℃ 100 % 1009.9 hPa
2024-02-04 18:24:29 9.05 ℃ 100 % 1009.93 hPa
2024-02-04 18:14:28 9.02 ℃ 100 % 1010.01 hPa
2024-02-04 18:04:28 8.99 ℃ 100 % 1010.04 hPa
2024-02-04 17:54:28 8.95 ℃ 100 % 1010.06 hPa
2024-02-04 17:44:28 8.93 ℃ 100 % 1010.11 hPa
2024-02-04 17:34:29 8.87 ℃ 100 % 1010.11 hPa
2024-02-04 17:24:28 8.86 ℃ 100 % 1010.11 hPa
2024-02-04 17:14:28 8.84 ℃ 100 % 1010.19 hPa
2024-02-04 17:04:28 8.93 ℃ 100 % 1010.21 hPa
2024-02-04 16:54:28 9.02 ℃ 100 % 1010.37 hPa
2024-02-04 16:44:29 9.1 ℃ 100 % 1010.47 hPa
2024-02-04 16:34:28 9.12 ℃ 100 % 1010.5 hPa
2024-02-04 16:24:28 9.34 ℃ 100 % 1010.51 hPa
2024-02-04 16:14:28 9.44 ℃ 100 % 1010.53 hPa
2024-02-04 16:04:28 9.49 ℃ 100 % 1010.57 hPa
2024-02-04 15:54:28 9.64 ℃ 100 % 1010.62 hPa
2024-02-04 15:44:29 9.71 ℃ 100 % 1010.72 hPa
2024-02-04 15:34:28 9.81 ℃ 100 % 1010.7 hPa
2024-02-04 15:24:28 9.83 ℃ 100 % 1010.74 hPa
2024-02-04 15:14:28 9.77 ℃ 100 % 1010.75 hPa
2024-02-04 15:04:28 9.81 ℃ 100 % 1010.77 hPa
2024-02-04 14:54:28 9.76 ℃ 100 % 1010.84 hPa
2024-02-04 14:44:28 9.74 ℃ 100 % 1010.82 hPa
2024-02-04 14:34:28 9.7 ℃ 100 % 1010.84 hPa
2024-02-04 14:24:28 9.58 ℃ 100 % 1010.84 hPa
2024-02-04 14:14:28 9.56 ℃ 100 % 1010.87 hPa
2024-02-04 14:04:28 9.53 ℃ 100 % 1010.99 hPa
2024-02-04 13:54:28 9.44 ℃ 100 % 1011.09 hPa
2024-02-04 13:44:28 9.53 ℃ 100 % 1011.08 hPa
2024-02-04 13:34:28 9.6 ℃ 100 % 1011.1 hPa
2024-02-04 13:24:29 9.57 ℃ 100 % 1011.19 hPa
2024-02-04 13:14:28 9.59 ℃ 100 % 1011.18 hPa
2024-02-04 13:04:28 9.64 ℃ 100 % 1011.12 hPa
2024-02-04 12:54:28 9.59 ℃ 100 % 1011.14 hPa
2024-02-04 12:44:28 9.64 ℃ 100 % 1011.08 hPa
2024-02-04 12:34:29 9.55 ℃ 100 % 1011.17 hPa
2024-02-04 12:24:28 9.51 ℃ 100 % 1011.33 hPa
2024-02-04 12:14:29 9.56 ℃ 100 % 1011.41 hPa
2024-02-04 12:04:29 9.57 ℃ 100 % 1011.42 hPa
2024-02-04 11:54:28 9.36 ℃ 100 % 1011.41 hPa
2024-02-04 11:44:29 9.43 ℃ 100 % 1011.46 hPa
2024-02-04 11:34:29 9.35 ℃ 100 % 1011.5 hPa
2024-02-04 11:24:29 9.29 ℃ 100 % 1011.61 hPa
2024-02-04 11:14:29 9.25 ℃ 100 % 1011.64 hPa
2024-02-04 11:04:29 9.14 ℃ 100 % 1011.69 hPa
2024-02-04 10:54:29 9.04 ℃ 100 % 1011.69 hPa
2024-02-04 10:44:29 9.18 ℃ 100 % 1011.62 hPa
2024-02-04 10:34:29 9.15 ℃ 100 % 1011.61 hPa
2024-02-04 10:24:29 9.04 ℃ 100 % 1011.71 hPa
2024-02-04 10:14:29 8.99 ℃ 100 % 1011.71 hPa
2024-02-04 10:04:29 8.95 ℃ 100 % 1011.82 hPa
2024-02-04 09:54:29 8.97 ℃ 100 % 1011.93 hPa
2024-02-04 09:44:29 8.95 ℃ 100 % 1012.04 hPa
2024-02-04 09:34:29 8.96 ℃ 100 % 1012.12 hPa
2024-02-04 09:24:29 9.11 ℃ 100 % 1012.16 hPa
2024-02-04 09:14:29 8.96 ℃ 100 % 1012.19 hPa
2024-02-04 09:04:29 8.98 ℃ 100 % 1012.21 hPa
2024-02-04 08:54:29 9.17 ℃ 100 % 1012.28 hPa
2024-02-04 08:44:29 9.23 ℃ 100 % 1012.3 hPa
2024-02-04 08:34:29 9.17 ℃ 100 % 1012.27 hPa
2024-02-04 08:24:29 9.07 ℃ 100 % 1012.29 hPa
2024-02-04 08:14:29 9.16 ℃ 100 % 1012.42 hPa
2024-02-04 08:04:29 9.1 ℃ 100 % 1012.46 hPa
2024-02-04 07:54:29 9.27 ℃ 100 % 1012.49 hPa
2024-02-04 07:44:29 9.3 ℃ 100 % 1012.51 hPa
2024-02-04 07:34:29 9.09 ℃ 100 % 1012.58 hPa
2024-02-04 07:24:29 9.08 ℃ 100 % 1012.67 hPa
2024-02-04 07:14:29 9.16 ℃ 100 % 1012.89 hPa
2024-02-04 07:04:29 9.12 ℃ 100 % 1013.02 hPa
2024-02-04 06:54:29 9.08 ℃ 100 % 1012.98 hPa
2024-02-04 06:44:29 9.35 ℃ 100 % 1012.98 hPa
2024-02-04 06:34:29 9.21 ℃ 100 % 1013.1 hPa
2024-02-04 06:24:29 9.29 ℃ 100 % 1013.22 hPa
2024-02-04 06:14:29 9.43 ℃ 100 % 1013.32 hPa
2024-02-04 06:04:29 9.44 ℃ 100 % 1013.48 hPa
2024-02-04 05:54:29 9.4 ℃ 100 % 1013.51 hPa
2024-02-04 05:44:29 9.31 ℃ 100 % 1013.51 hPa
2024-02-04 05:34:29 9.18 ℃ 100 % 1013.53 hPa
2024-02-04 05:24:29 9.27 ℃ 100 % 1013.57 hPa
2024-02-04 05:14:29 9.4 ℃ 100 % 1013.63 hPa
2024-02-04 05:04:29 9.52 ℃ 100 % 1013.73 hPa
2024-02-04 04:54:29 9.43 ℃ 100 % 1013.86 hPa
2024-02-04 04:44:29 9.3 ℃ 100 % 1014.02 hPa
2024-02-04 04:34:29 9.47 ℃ 100 % 1014.07 hPa
2024-02-04 04:24:29 9.41 ℃ 100 % 1014.15 hPa
2024-02-04 04:14:29 9.43 ℃ 100 % 1014.22 hPa
2024-02-04 04:04:29 9.55 ℃ 100 % 1014.37 hPa
2024-02-04 03:54:29 9.35 ℃ 100 % 1014.48 hPa
2024-02-04 03:44:29 9.38 ℃ 100 % 1014.58 hPa
2024-02-04 03:34:29 9.39 ℃ 100 % 1014.72 hPa
2024-02-04 03:24:29 9.17 ℃ 100 % 1014.79 hPa
2024-02-04 03:14:29 9.18 ℃ 100 % 1014.84 hPa
2024-02-04 03:04:29 9.1 ℃ 100 % 1014.9 hPa
2024-02-04 02:54:29 8.91 ℃ 100 % 1014.97 hPa
2024-02-04 02:44:29 8.96 ℃ 100 % 1015.05 hPa
2024-02-04 02:34:29 9 ℃ 100 % 1015.07 hPa
2024-02-04 02:24:29 8.92 ℃ 100 % 1015.2 hPa
2024-02-04 02:14:29 9 ℃ 100 % 1015.2 hPa
2024-02-04 02:04:29 9.07 ℃ 100 % 1015.25 hPa
2024-02-04 01:54:29 9.28 ℃ 100 % 1015.36 hPa
2024-02-04 01:44:29 9.34 ℃ 100 % 1015.41 hPa
2024-02-04 01:34:29 9.13 ℃ 100 % 1015.44 hPa
2024-02-04 01:24:29 9.13 ℃ 100 % 1015.6 hPa
2024-02-04 01:14:30 9.18 ℃ 100 % 1015.69 hPa
2024-02-04 01:04:30 8.97 ℃ 100 % 1015.79 hPa
2024-02-04 00:54:30 9.04 ℃ 100 % 1015.82 hPa
2024-02-04 00:44:30 9.1 ℃ 100 % 1015.89 hPa
2024-02-04 00:34:30 9.26 ℃ 100 % 1015.91 hPa
2024-02-04 00:24:30 8.96 ℃ 100 % 1016 hPa
2024-02-04 00:14:30 8.59 ℃ 100 % 1016.06 hPa
2024-02-04 00:04:30 8.65 ℃ 100 % 1016.15 hPa
2024-02-03 23:54:30 8.84 ℃ 100 % 1016.22 hPa
2024-02-03 23:44:30 9.1 ℃ 100 % 1016.25 hPa
2024-02-03 23:34:30 9.19 ℃ 100 % 1016.26 hPa
2024-02-03 23:24:30 9.35 ℃ 100 % 1016.29 hPa
2024-02-03 23:14:30 9.29 ℃ 100 % 1016.42 hPa
2024-02-03 23:04:30 9.32 ℃ 100 % 1016.47 hPa
2024-02-03 22:54:30 9.36 ℃ 100 % 1016.52 hPa
2024-02-03 22:44:30 9.37 ℃ 100 % 1016.55 hPa
2024-02-03 22:34:30 9.32 ℃ 100 % 1016.65 hPa
2024-02-03 22:24:30 9.36 ℃ 100 % 1016.73 hPa
2024-02-03 22:14:30 9.4 ℃ 100 % 1016.75 hPa
2024-02-03 22:04:30 9.45 ℃ 100 % 1016.83 hPa
2024-02-03 21:54:30 9.7 ℃ 100 % 1016.91 hPa
2024-02-03 21:44:30 9.55 ℃ 100 % 1016.91 hPa
2024-02-03 21:34:30 9.69 ℃ 100 % 1016.93 hPa
2024-02-03 21:24:30 9.78 ℃ 100 % 1016.99 hPa
2024-02-03 21:14:30 9.69 ℃ 100 % 1017.06 hPa
2024-02-03 21:04:30 9.75 ℃ 100 % 1017.06 hPa
2024-02-03 20:54:30 9.69 ℃ 100 % 1017 hPa
2024-02-03 20:44:30 10.02 ℃ 100 % 1016.96 hPa
2024-02-03 20:34:30 10.17 ℃ 100 % 1016.99 hPa
2024-02-03 20:24:30 10.06 ℃ 100 % 1016.93 hPa
2024-02-03 20:14:30 9.85 ℃ 100 % 1017 hPa
2024-02-03 20:04:30 10.17 ℃ 100 % 1017.01 hPa
2024-02-03 19:54:30 10 ℃ 100 % 1016.95 hPa
2024-02-03 19:44:30 10.22 ℃ 100 % 1016.85 hPa
2024-02-03 19:34:30 10.25 ℃ 100 % 1016.76 hPa
2024-02-03 19:24:30 10.34 ℃ 100 % 1016.7 hPa
2024-02-03 19:14:30 10.24 ℃ 100 % 1016.63 hPa
2024-02-03 19:04:30 10.05 ℃ 100 % 1016.54 hPa
2024-02-03 18:54:30 10.25 ℃ 100 % 1016.48 hPa
2024-02-03 18:44:30 10.28 ℃ 100 % 1016.43 hPa
2024-02-03 18:34:30 10.19 ℃ 100 % 1016.37 hPa
2024-02-03 18:24:30 10.12 ℃ 100 % 1016.42 hPa
2024-02-03 18:14:30 9.94 ℃ 100 % 1016.37 hPa
2024-02-03 18:04:30 9.89 ℃ 100 % 1016.29 hPa
2024-02-03 17:54:30 10.03 ℃ 100 % 1016.24 hPa
2024-02-03 17:44:30 9.78 ℃ 100 % 1016.21 hPa
2024-02-03 17:34:30 9.99 ℃ 100 % 1016.19 hPa
2024-02-03 17:24:30 9.86 ℃ 100 % 1016.18 hPa
2024-02-03 17:14:30 10.1 ℃ 100 % 1016.17 hPa
2024-02-03 17:04:30 10.01 ℃ 100 % 1016.16 hPa
2024-02-03 16:54:30 10.13 ℃ 100 % 1016.2 hPa
2024-02-03 16:44:30 10.4 ℃ 100 % 1016.19 hPa
2024-02-03 16:34:30 10.45 ℃ 100 % 1016.13 hPa
2024-02-03 16:24:30 10.66 ℃ 100 % 1016.06 hPa
2024-02-03 16:14:30 10.92 ℃ 100 % 1016.01 hPa
2024-02-03 16:04:30 11 ℃ 100 % 1015.91 hPa
2024-02-03 15:54:30 10.96 ℃ 100 % 1015.83 hPa
2024-02-03 15:44:30 11.22 ℃ 100 % 1015.77 hPa
2024-02-03 15:34:30 11.26 ℃ 100 % 1015.73 hPa
2024-02-03 15:24:30 11.35 ℃ 100 % 1015.55 hPa
2024-02-03 15:14:30 11.43 ℃ 100 % 1015.37 hPa
2024-02-03 15:04:30 11.36 ℃ 100 % 1015.15 hPa
2024-02-03 14:54:30 11.46 ℃ 100 % 1015.03 hPa
2024-02-03 14:44:30 11.67 ℃ 100 % 1014.97 hPa
2024-02-03 14:34:30 11.92 ℃ 100 % 1014.91 hPa
2024-02-03 14:24:30 12.08 ℃ 100 % 1014.92 hPa
2024-02-03 14:14:31 12.17 ℃ 100 % 1014.94 hPa
2024-02-03 14:04:31 12.3 ℃ 100 % 1014.97 hPa
2024-02-03 13:54:31 12.33 ℃ 100 % 1014.98 hPa
2024-02-03 13:44:31 12.65 ℃ 100 % 1015.07 hPa
2024-02-03 13:34:31 12.64 ℃ 100 % 1015.05 hPa
2024-02-03 13:24:31 12.66 ℃ 100 % 1015.04 hPa
2024-02-03 13:14:31 12.52 ℃ 100 % 1015.07 hPa
2024-02-03 13:04:31 12.35 ℃ 100 % 1015.19 hPa
2024-02-03 12:54:31 12.49 ℃ 100 % 1015.22 hPa
2024-02-03 12:44:31 12.63 ℃ 100 % 1015.22 hPa
2024-02-03 12:34:31 12.6 ℃ 100 % 1015.28 hPa
2024-02-03 12:24:31 12.64 ℃ 100 % 1015.25 hPa
2024-02-03 12:14:31 12.57 ℃ 100 % 1015.25 hPa
2024-02-03 12:04:31 12.41 ℃ 100 % 1015.22 hPa
2024-02-03 11:54:31 12.31 ℃ 100 % 1015.2 hPa
2024-02-03 11:44:31 12.29 ℃ 100 % 1015.32 hPa
2024-02-03 11:34:31 12.1 ℃ 100 % 1015.39 hPa
2024-02-03 11:24:31 12.01 ℃ 100 % 1015.44 hPa
2024-02-03 11:14:31 11.84 ℃ 100 % 1015.41 hPa
2024-02-03 11:04:31 11.65 ℃ 100 % 1015.34 hPa
2024-02-03 10:54:31 11.67 ℃ 100 % 1015.41 hPa
2024-02-03 10:44:31 11.59 ℃ 100 % 1015.42 hPa
2024-02-03 10:34:31 11.56 ℃ 100 % 1015.41 hPa
2024-02-03 10:24:31 11.58 ℃ 100 % 1015.32 hPa
2024-02-03 10:14:31 11.68 ℃ 100 % 1015.3 hPa
2024-02-03 10:04:31 11.45 ℃ 100 % 1015.25 hPa
2024-02-03 09:54:31 11.36 ℃ 100 % 1015.23 hPa
2024-02-03 09:44:31 11.51 ℃ 100 % 1015.2 hPa
2024-02-03 09:34:31 11.55 ℃ 100 % 1015.23 hPa
2024-02-03 09:24:31 11.58 ℃ 100 % 1015.2 hPa
2024-02-03 09:14:31 11.75 ℃ 100 % 1015.22 hPa
2024-02-03 09:04:31 11.53 ℃ 100 % 1015.16 hPa
2024-02-03 08:54:31 11.67 ℃ 100 % 1015.07 hPa
2024-02-03 08:44:31 11.72 ℃ 100 % 1015.08 hPa
2024-02-03 08:34:31 11.66 ℃ 100 % 1015.05 hPa
2024-02-03 08:24:31 11.54 ℃ 100 % 1015 hPa
2024-02-03 08:14:31 11.7 ℃ 100 % 1014.94 hPa
2024-02-03 08:04:31 11.66 ℃ 100 % 1014.92 hPa
2024-02-03 07:54:31 11.56 ℃ 100 % 1014.88 hPa
2024-02-03 07:44:31 11.61 ℃ 100 % 1014.82 hPa
2024-02-03 07:34:31 11.42 ℃ 100 % 1014.73 hPa
2024-02-03 07:24:31 11.43 ℃ 100 % 1014.66 hPa
2024-02-03 07:14:31 11.31 ℃ 100 % 1014.56 hPa
2024-02-03 07:04:31 11.33 ℃ 100 % 1014.59 hPa
2024-02-03 06:54:31 11.3 ℃ 100 % 1014.63 hPa
2024-02-03 06:44:31 11.51 ℃ 100 % 1014.54 hPa
2024-02-03 06:34:31 11.18 ℃ 100 % 1014.55 hPa
2024-02-03 06:24:31 11.27 ℃ 100 % 1014.57 hPa
2024-02-03 06:14:31 11.21 ℃ 100 % 1014.6 hPa
2024-02-03 06:04:31 11.19 ℃ 100 % 1014.53 hPa
2024-02-03 05:54:31 11.27 ℃ 100 % 1014.5 hPa
2024-02-03 05:44:31 11.08 ℃ 100 % 1014.57 hPa
2024-02-03 05:34:31 11 ℃ 100 % 1014.57 hPa
2024-02-03 05:24:31 11.01 ℃ 100 % 1014.63 hPa
2024-02-03 05:14:31 10.97 ℃ 100 % 1014.71 hPa
2024-02-03 05:04:32 10.97 ℃ 100 % 1014.7 hPa
2024-02-03 04:54:31 10.91 ℃ 100 % 1014.79 hPa
2024-02-03 04:44:31 10.95 ℃ 100 % 1014.79 hPa
2024-02-03 04:34:31 10.97 ℃ 100 % 1014.87 hPa
2024-02-03 04:24:31 10.88 ℃ 100 % 1014.95 hPa
2024-02-03 04:14:31 10.9 ℃ 100 % 1015.01 hPa
2024-02-03 04:04:31 10.99 ℃ 100 % 1015.08 hPa
2024-02-03 03:54:32 11.03 ℃ 100 % 1015.17 hPa
2024-02-03 03:44:31 11.01 ℃ 100 % 1015.15 hPa
2024-02-03 03:34:31 11 ℃ 100 % 1015.18 hPa
2024-02-03 03:24:32 11.11 ℃ 100 % 1015.2 hPa
2024-02-03 03:14:31 10.98 ℃ 100 % 1015.19 hPa
2024-02-03 03:04:32 11.04 ℃ 100 % 1015.16 hPa
2024-02-03 02:54:32 11.01 ℃ 100 % 1015.1 hPa
2024-02-03 02:44:32 11.1 ℃ 100 % 1015.09 hPa
2024-02-03 02:34:32 11.1 ℃ 100 % 1015.09 hPa
2024-02-03 02:24:32 10.99 ℃ 100 % 1015.04 hPa
2024-02-03 02:14:32 10.89 ℃ 100 % 1015.1 hPa
2024-02-03 02:04:32 10.88 ℃ 100 % 1015.05 hPa
2024-02-03 01:54:32 10.95 ℃ 100 % 1015 hPa
2024-02-03 01:44:32 10.84 ℃ 100 % 1014.93 hPa
2024-02-03 01:34:32 10.73 ℃ 100 % 1014.91 hPa
2024-02-03 01:24:32 10.68 ℃ 100 % 1014.96 hPa
2024-02-03 01:14:32 10.63 ℃ 100 % 1015.07 hPa
2024-02-03 01:04:32 10.64 ℃ 100 % 1015.24 hPa
2024-02-03 00:54:32 10.57 ℃ 100 % 1015.33 hPa
2024-02-03 00:44:32 10.58 ℃ 100 % 1015.3 hPa
2024-02-03 00:34:32 10.63 ℃ 100 % 1015.39 hPa
2024-02-03 00:24:32 10.62 ℃ 100 % 1015.32 hPa
2024-02-03 00:14:32 10.43 ℃ 100 % 1015.3 hPa
2024-02-03 00:04:32 10.29 ℃ 100 % 1015.3 hPa
2024-02-02 23:54:32 10.4 ℃ 100 % 1015.34 hPa
2024-02-02 23:44:32 10.64 ℃ 100 % 1015.35 hPa
2024-02-02 23:34:32 10.7 ℃ 100 % 1015.39 hPa
2024-02-02 23:24:32 10.43 ℃ 100 % 1015.38 hPa
2024-02-02 23:14:32 10.39 ℃ 100 % 1015.47 hPa
2024-02-02 23:04:32 10.59 ℃ 100 % 1015.48 hPa
2024-02-02 22:54:32 10.61 ℃ 100 % 1015.52 hPa
2024-02-02 22:44:32 10.6 ℃ 100 % 1015.41 hPa
2024-02-02 22:34:32 10.59 ℃ 100 % 1015.44 hPa
2024-02-02 22:24:32 10.57 ℃ 100 % 1015.51 hPa
2024-02-02 22:14:32 10.56 ℃ 100 % 1015.52 hPa
2024-02-02 22:04:32 10.57 ℃ 100 % 1015.55 hPa
2024-02-02 21:54:32 10.37 ℃ 100 % 1015.57 hPa
2024-02-02 21:44:32 10.44 ℃ 100 % 1015.59 hPa
2024-02-02 21:34:32 10.5 ℃ 100 % 1015.68 hPa
2024-02-02 21:24:32 10.41 ℃ 100 % 1015.75 hPa
2024-02-02 21:14:32 10.44 ℃ 100 % 1015.81 hPa
2024-02-02 21:04:32 10.38 ℃ 100 % 1015.83 hPa
2024-02-02 20:54:32 10.39 ℃ 100 % 1015.86 hPa
2024-02-02 20:44:32 10.39 ℃ 100 % 1015.9 hPa
2024-02-02 20:34:32 10.39 ℃ 100 % 1015.86 hPa
2024-02-02 20:24:32 10.1 ℃ 100 % 1015.93 hPa
2024-02-02 20:14:32 10.08 ℃ 100 % 1015.99 hPa
2024-02-02 20:04:32 9.93 ℃ 100 % 1015.98 hPa
2024-02-02 19:54:32 9.89 ℃ 100 % 1016 hPa
2024-02-02 19:44:32 9.71 ℃ 100 % 1015.98 hPa
2024-02-02 19:34:32 9.44 ℃ 100 % 1015.99 hPa
2024-02-02 19:24:32 9.42 ℃ 100 % 1016.01 hPa
2024-02-02 19:14:32 9.44 ℃ 100 % 1016.08 hPa
2024-02-02 19:04:32 9.38 ℃ 100 % 1016.13 hPa
2024-02-02 18:54:32 9.35 ℃ 100 % 1016.12 hPa
2024-02-02 18:44:32 9.38 ℃ 100 % 1016.05 hPa
2024-02-02 18:34:32 9.39 ℃ 100 % 1016.02 hPa
2024-02-02 18:24:33 9.37 ℃ 100 % 1016.06 hPa
2024-02-02 18:14:32 9.31 ℃ 100 % 1016.08 hPa
2024-02-02 18:04:32 9.29 ℃ 100 % 1016 hPa
2024-02-02 17:54:32 9.2 ℃ 100 % 1015.96 hPa
2024-02-02 17:44:32 9.24 ℃ 100 % 1015.91 hPa
2024-02-02 17:34:32 9.09 ℃ 100 % 1015.87 hPa
2024-02-02 17:14:32 9.12 ℃ 100 % 1015.9 hPa
2024-02-02 17:04:32 9.06 ℃ 100 % 1015.93 hPa
2024-02-02 16:54:32 9.09 ℃ 100 % 1015.94 hPa
2024-02-02 16:44:32 9.15 ℃ 100 % 1015.91 hPa
2024-02-02 16:34:33 9.08 ℃ 100 % 1015.93 hPa
2024-02-02 16:14:33 9.02 ℃ 100 % 1016.04 hPa
2024-02-02 16:04:33 8.95 ℃ 100 % 1016.08 hPa
2024-02-02 15:54:33 8.88 ℃ 100 % 1016.23 hPa
2024-02-02 15:44:33 8.82 ℃ 100 % 1016.26 hPa
2024-02-02 15:34:33 8.74 ℃ 100 % 1016.26 hPa
2024-02-02 15:24:33 8.77 ℃ 100 % 1016.31 hPa
2024-02-02 15:14:33 8.8 ℃ 100 % 1016.42 hPa
2024-02-02 15:04:33 8.69 ℃ 100 % 1016.56 hPa
2024-02-02 14:54:33 8.72 ℃ 100 % 1016.72 hPa
2024-02-02 14:44:33 8.82 ℃ 100 % 1016.88 hPa
2024-02-02 14:34:33 8.77 ℃ 100 % 1017.03 hPa
2024-02-02 14:24:33 8.83 ℃ 100 % 1017.23 hPa
2024-02-02 14:14:33 8.6 ℃ 100 % 1017.37 hPa
2024-02-02 14:04:33 8.51 ℃ 100 % 1017.39 hPa
2024-02-02 13:54:33 8.59 ℃ 100 % 1017.45 hPa
2024-02-02 13:44:33 8.5 ℃ 100 % 1017.45 hPa
2024-02-02 13:34:33 8.48 ℃ 100 % 1017.52 hPa
2024-02-02 13:24:33 8.48 ℃ 100 % 1017.53 hPa
2024-02-02 13:14:33 8.49 ℃ 100 % 1017.58 hPa
2024-02-02 13:04:33 8.43 ℃ 100 % 1017.64 hPa
2024-02-02 12:54:33 8.35 ℃ 100 % 1017.72 hPa
2024-02-02 12:44:33 8.36 ℃ 100 % 1017.8 hPa
2024-02-02 12:34:33 8.3 ℃ 100 % 1017.96 hPa
2024-02-02 12:24:33 8.15 ℃ 100 % 1018.03 hPa
2024-02-02 05:29:26 8.66 ℃ 100 % 1022.96 hPa
2024-02-02 05:19:26 8.42 ℃ 100 % 1023.29 hPa
2024-02-02 05:09:26 8.19 ℃ 100 % 1023.48 hPa
2024-02-02 04:59:26 7.99 ℃ 100 % 1023.56 hPa
2024-02-02 04:49:26 8.05 ℃ 100 % 1023.67 hPa
2024-02-02 04:39:26 7.86 ℃ 100 % 1023.74 hPa
2024-02-02 04:29:26 7.94 ℃ 100 % 1023.83 hPa
2024-02-02 04:19:26 7.93 ℃ 100 % 1023.94 hPa
2024-02-02 04:09:26 7.86 ℃ 100 % 1024.11 hPa
2024-02-02 03:59:26 7.9 ℃ 100 % 1024.21 hPa
2024-02-02 03:49:26 7.91 ℃ 100 % 1024.33 hPa
2024-02-02 03:39:26 8.06 ℃ 100 % 1024.41 hPa
2024-02-02 03:29:26 8.16 ℃ 100 % 1024.49 hPa
2024-02-02 03:19:26 8.22 ℃ 100 % 1024.49 hPa
2024-02-02 03:09:26 8.08 ℃ 100 % 1024.58 hPa
2024-02-02 02:59:26 8.23 ℃ 100 % 1024.68 hPa
2024-02-02 02:49:26 8.15 ℃ 100 % 1024.77 hPa
2024-02-02 02:39:26 7.86 ℃ 100 % 1024.97 hPa
2024-02-02 02:29:26 7.73 ℃ 100 % 1025.07 hPa
2024-02-02 02:19:26 7.7 ℃ 100 % 1025.11 hPa
2024-02-02 02:09:26 7.78 ℃ 100 % 1025.16 hPa
2024-02-02 01:59:26 8.12 ℃ 100 % 1025.23 hPa
2024-02-02 01:49:26 8.03 ℃ 100 % 1025.26 hPa
2024-02-02 01:39:26 7.94 ℃ 100 % 1025.31 hPa
2024-02-02 01:29:26 7.87 ℃ 100 % 1025.33 hPa
2024-02-02 01:19:26 7.81 ℃ 100 % 1025.4 hPa
2024-02-02 01:09:26 7.64 ℃ 100 % 1025.44 hPa
2024-02-02 00:59:26 7.65 ℃ 100 % 1025.39 hPa
2024-02-02 00:49:26 7.55 ℃ 100 % 1025.37 hPa
2024-02-02 00:39:26 7.29 ℃ 100 % 1025.34 hPa
2024-02-02 00:29:26 7.28 ℃ 100 % 1025.47 hPa
2024-02-02 00:19:26 7.24 ℃ 100 % 1025.51 hPa
2024-02-02 00:09:26 7.26 ℃ 100 % 1025.48 hPa
2024-02-01 23:59:26 7.41 ℃ 100 % 1025.62 hPa
2024-02-01 23:49:26 7.36 ℃ 100 % 1025.65 hPa
2024-02-01 23:39:27 7.36 ℃ 100 % 1025.7 hPa
2024-02-01 23:29:26 7.45 ℃ 100 % 1025.66 hPa
2024-02-01 23:19:26 7.25 ℃ 100 % 1025.67 hPa
2024-02-01 23:09:27 7.1 ℃ 100 % 1025.7 hPa
2024-02-01 22:59:27 7.13 ℃ 100 % 1025.66 hPa
2024-02-01 22:49:27 7.1 ℃ 100 % 1025.66 hPa
2024-02-01 22:39:27 7.21 ℃ 100 % 1025.67 hPa
2024-02-01 22:29:27 7.39 ℃ 100 % 1025.6 hPa
2024-02-01 22:19:27 7.48 ℃ 100 % 1025.62 hPa
2024-02-01 22:09:27 7.32 ℃ 100 % 1025.56 hPa
2024-02-01 21:59:27 7.35 ℃ 100 % 1025.51 hPa
2024-02-01 21:49:27 7.36 ℃ 100 % 1025.51 hPa
2024-02-01 21:39:27 7.44 ℃ 100 % 1025.52 hPa
2024-02-01 21:29:27 7.49 ℃ 100 % 1025.51 hPa
2024-02-01 21:19:27 7.58 ℃ 100 % 1025.53 hPa
2024-02-01 21:09:27 7.68 ℃ 100 % 1025.48 hPa
2024-02-01 20:59:27 7.54 ℃ 100 % 1025.49 hPa
2024-02-01 20:49:27 7.56 ℃ 100 % 1025.48 hPa
2024-02-01 20:39:27 7.55 ℃ 100 % 1025.43 hPa
2024-02-01 20:29:27 7.5 ℃ 100 % 1025.4 hPa
2024-02-01 20:19:27 7.55 ℃ 100 % 1025.34 hPa
2024-02-01 20:09:27 7.62 ℃ 100 % 1025.34 hPa
2024-02-01 19:59:27 7.74 ℃ 100 % 1025.29 hPa
2024-02-01 19:49:27 7.74 ℃ 100 % 1025.29 hPa
2024-02-01 19:39:27 8.01 ℃ 100 % 1025.26 hPa
2024-02-01 19:29:27 7.88 ℃ 100 % 1025.28 hPa
2024-02-01 19:19:27 8.09 ℃ 100 % 1025.28 hPa
2024-02-01 19:09:27 8.22 ℃ 100 % 1025.22 hPa
2024-02-01 18:59:27 7.83 ℃ 100 % 1025.21 hPa
2024-02-01 18:49:27 7.96 ℃ 100 % 1025.16 hPa
2024-02-01 18:39:27 8.21 ℃ 100 % 1025.03 hPa
2024-02-01 18:29:27 8.31 ℃ 100 % 1024.98 hPa
2024-02-01 18:19:27 8.39 ℃ 100 % 1024.89 hPa
2024-02-01 18:09:27 8.57 ℃ 100 % 1024.81 hPa
2024-02-01 17:59:27 8.47 ℃ 100 % 1024.67 hPa
2024-02-01 17:49:27 8.42 ℃ 100 % 1024.57 hPa
2024-02-01 17:39:27 8.52 ℃ 100 % 1024.53 hPa
2024-02-01 17:29:27 8.65 ℃ 100 % 1024.47 hPa
2024-02-01 17:19:27 8.81 ℃ 100 % 1024.36 hPa
2024-02-01 17:09:28 8.83 ℃ 100 % 1024.24 hPa
2024-02-01 16:59:27 8.76 ℃ 100 % 1024.2 hPa
2024-02-01 16:49:27 8.86 ℃ 100 % 1024.11 hPa
2024-02-01 16:39:27 9.01 ℃ 100 % 1024 hPa
2024-02-01 16:29:27 9.14 ℃ 100 % 1023.88 hPa
2024-02-01 16:19:27 9.39 ℃ 100 % 1023.72 hPa
2024-02-01 16:09:27 9.3 ℃ 100 % 1023.62 hPa
2024-02-01 15:59:27 9.32 ℃ 100 % 1023.52 hPa
2024-02-01 15:49:27 9.16 ℃ 100 % 1023.43 hPa
2024-02-01 15:39:27 9.17 ℃ 100 % 1023.36 hPa
2024-02-01 15:29:27 9.25 ℃ 100 % 1023.28 hPa
2024-02-01 15:19:27 9.41 ℃ 100 % 1023.14 hPa
2024-02-01 15:09:27 9.62 ℃ 100 % 1022.98 hPa
2024-02-01 14:59:27 9.28 ℃ 100 % 1022.91 hPa
2024-02-01 14:49:27 9.38 ℃ 100 % 1022.76 hPa
2024-02-01 14:39:27 9.6 ℃ 100 % 1022.76 hPa
2024-02-01 14:29:27 9.81 ℃ 100 % 1022.71 hPa
2024-02-01 14:19:27 9.88 ℃ 100 % 1022.69 hPa
2024-02-01 14:09:27 9.82 ℃ 100 % 1022.56 hPa
2024-02-01 13:59:27 9.68 ℃ 100 % 1022.58 hPa
2024-02-01 13:49:27 9.73 ℃ 100 % 1022.42 hPa
2024-02-01 13:39:27 9.71 ℃ 100 % 1022.35 hPa
2024-02-01 13:29:27 9.75 ℃ 100 % 1022.22 hPa
2024-02-01 13:19:28 9.66 ℃ 100 % 1022.23 hPa
2024-02-01 13:09:27 9.7 ℃ 100 % 1022.14 hPa
2024-02-01 12:59:27 9.88 ℃ 100 % 1022.03 hPa
2024-02-01 12:49:27 10.01 ℃ 100 % 1021.93 hPa
2024-02-01 12:39:27 10.13 ℃ 100 % 1021.95 hPa
2024-02-01 12:29:27 10.02 ℃ 100 % 1021.91 hPa
2024-02-01 12:19:29 9.68 ℃ 100 % 1021.89 hPa
2024-02-01 12:09:27 9.69 ℃ 100 % 1021.84 hPa
2024-02-01 11:59:28 9.52 ℃ 100 % 1021.83 hPa
2024-02-01 11:49:27 9.44 ℃ 100 % 1021.82 hPa
2024-02-01 11:39:28 8.98 ℃ 100 % 1021.7 hPa
2024-02-01 11:29:28 8.78 ℃ 100 % 1021.62 hPa
2024-02-01 11:19:28 8.83 ℃ 100 % 1021.59 hPa
2024-02-01 11:09:28 8.75 ℃ 100 % 1021.47 hPa
2024-02-01 10:59:28 8.54 ℃ 100 % 1021.55 hPa
2024-02-01 10:49:28 8.65 ℃ 100 % 1021.29 hPa
2024-02-01 10:39:28 8.58 ℃ 100 % 1021.24 hPa
2024-02-01 10:29:28 8.51 ℃ 100 % 1021.07 hPa
2024-02-01 10:19:28 8.18 ℃ 100 % 1020.95 hPa
2024-02-01 10:09:28 8 ℃ 100 % 1020.75 hPa
2024-02-01 09:59:28 7.88 ℃ 100 % 1020.66 hPa
2024-02-01 09:49:28 7.63 ℃ 100 % 1020.54 hPa
2024-02-01 09:39:28 7.38 ℃ 100 % 1020.44 hPa
2024-02-01 09:29:28 7.49 ℃ 100 % 1020.32 hPa
2024-02-01 09:19:28 7.47 ℃ 100 % 1020.27 hPa
2024-02-01 09:09:28 7.34 ℃ 100 % 1020.17 hPa
2024-02-01 08:59:28 7.21 ℃ 100 % 1020.14 hPa
2024-02-01 08:49:28 7.23 ℃ 100 % 1020 hPa
2024-02-01 08:39:28 7.18 ℃ 100 % 1019.89 hPa
2024-02-01 08:29:28 7.07 ℃ 100 % 1019.83 hPa
2024-02-01 08:19:28 7.07 ℃ 100 % 1019.69 hPa
2024-02-01 08:09:28 6.96 ℃ 100 % 1019.61 hPa
2024-02-01 07:59:28 7.02 ℃ 100 % 1019.54 hPa
2024-02-01 07:49:28 6.98 ℃ 100 % 1019.49 hPa
2024-02-01 07:39:28 6.99 ℃ 100 % 1019.33 hPa
2024-02-01 07:29:28 7.02 ℃ 100 % 1019.24 hPa
2024-02-01 07:19:28 7.04 ℃ 100 % 1019.1 hPa
2024-02-01 07:09:28 6.98 ℃ 100 % 1018.93 hPa
2024-02-01 06:59:28 6.9 ℃ 100 % 1018.78 hPa
2024-02-01 06:49:28 6.94 ℃ 100 % 1018.66 hPa
2024-02-01 06:39:28 7.03 ℃ 100 % 1018.61 hPa
2024-02-01 06:29:28 7.04 ℃ 100 % 1018.48 hPa
2024-02-01 06:19:28 7 ℃ 100 % 1018.47 hPa
2024-02-01 06:09:28 6.84 ℃ 100 % 1018.4 hPa
2024-02-01 05:59:28 6.66 ℃ 100 % 1018.3 hPa
2024-02-01 05:49:28 6.7 ℃ 100 % 1018.19 hPa
2024-02-01 05:39:28 6.83 ℃ 100 % 1018.08 hPa
2024-02-01 05:29:28 6.8 ℃ 100 % 1018.01 hPa
Durchschnitt 9.29 ℃ 100 % 1009.34 hPa